<?xml version="1.0" encoding="UTF-8" standalone="no" ?>
<gpx xmlns="http://www.topografix.com/GPX/1/1" xmlns:xsi="http://www.w3.org/2001/XMLSchema-instance" xsi:schemaLocation="http://www.topografix.com/GPX/1/1 http://www.topografix.com/GPX/1/1/gpx.xsd" version="1.1" creator="VisuGPX - https://www.visugpx.com">
  <metadata>
    <name>La Rochelle</name>
  </metadata>
  <trk>
    <name><![CDATA[La Rochelle_1]]></name>
    <trkseg>
      <trkpt lat="46.15378" lon="-1.1554">
        <ele>1.8</ele>
        <time>2025-07-01T10:11:44Z</time>
      </trkpt>
      <trkpt lat="46.1538" lon="-1.15537">
        <ele>1.2</ele>
        <time>2025-07-01T10:11:50Z</time>
      </trkpt>
      <trkpt lat="46.1538" lon="-1.1553">
        <ele>1.2</ele>
        <time>2025-07-01T10:11:53Z</time>
      </trkpt>
      <trkpt lat="46.15382" lon="-1.15513">
        <ele>1.2</ele>
        <time>2025-07-01T10:12:01Z</time>
      </trkpt>
      <trkpt lat="46.15382" lon="-1.15512">
        <ele>1.2</ele>
        <time>2025-07-01T10:12:02Z</time>
      </trkpt>
      <trkpt lat="46.15382" lon="-1.15507">
        <ele>1.2</ele>
        <time>2025-07-01T10:12:04Z</time>
      </trkpt>
      <trkpt lat="46.15383" lon="-1.155">
        <ele>1.2</ele>
        <time>2025-07-01T10:12:08Z</time>
      </trkpt>
      <trkpt lat="46.15385" lon="-1.15495">
        <ele>1.2</ele>
        <time>2025-07-01T10:12:11Z</time>
      </trkpt>
      <trkpt lat="46.15387" lon="-1.15488">
        <ele>1</ele>
        <time>2025-07-01T10:12:16Z</time>
      </trkpt>
      <trkpt lat="46.15388" lon="-1.15472">
        <ele>1.6</ele>
        <time>2025-07-01T10:12:24Z</time>
      </trkpt>
      <trkpt lat="46.15389" lon="-1.15469">
        <ele>1.6</ele>
        <time>2025-07-01T10:12:25Z</time>
      </trkpt>
      <trkpt lat="46.15389" lon="-1.15468">
        <ele>1.6</ele>
        <time>2025-07-01T10:12:26Z</time>
      </trkpt>
      <trkpt lat="46.15391" lon="-1.15458">
        <ele>1.4</ele>
        <time>2025-07-01T10:12:33Z</time>
      </trkpt>
      <trkpt lat="46.15392" lon="-1.15443">
        <ele>1</ele>
        <time>2025-07-01T10:12:42Z</time>
      </trkpt>
      <trkpt lat="46.15392" lon="-1.1544">
        <ele>1</ele>
        <time>2025-07-01T10:12:45Z</time>
      </trkpt>
      <trkpt lat="46.15393" lon="-1.15433">
        <ele>1</ele>
        <time>2025-07-01T10:12:49Z</time>
      </trkpt>
      <trkpt lat="46.15393" lon="-1.15428">
        <ele>1</ele>
        <time>2025-07-01T10:12:52Z</time>
      </trkpt>
      <trkpt lat="46.15393" lon="-1.15426">
        <ele>1</ele>
        <time>2025-07-01T10:12:54Z</time>
      </trkpt>
      <trkpt lat="46.15396" lon="-1.15411">
        <ele>1</ele>
        <time>2025-07-01T10:13:03Z</time>
      </trkpt>
      <trkpt lat="46.15396" lon="-1.15406">
        <ele>1</ele>
        <time>2025-07-01T10:13:06Z</time>
      </trkpt>
      <trkpt lat="46.15398" lon="-1.154">
        <ele>0.80000000000001</ele>
        <time>2025-07-01T10:13:10Z</time>
      </trkpt>
      <trkpt lat="46.15399" lon="-1.15392">
        <ele>1</ele>
        <time>2025-07-01T10:13:16Z</time>
      </trkpt>
      <trkpt lat="46.154" lon="-1.15389">
        <ele>1</ele>
        <time>2025-07-01T10:13:17Z</time>
      </trkpt>
      <trkpt lat="46.15404" lon="-1.15381">
        <ele>0.80000000000001</ele>
        <time>2025-07-01T10:13:22Z</time>
      </trkpt>
      <trkpt lat="46.15404" lon="-1.15377">
        <ele>0.80000000000001</ele>
        <time>2025-07-01T10:13:26Z</time>
      </trkpt>
      <trkpt lat="46.15406" lon="-1.15358">
        <ele>1.4</ele>
        <time>2025-07-01T10:13:37Z</time>
      </trkpt>
      <trkpt lat="46.15407" lon="-1.15351">
        <ele>1.4</ele>
        <time>2025-07-01T10:13:41Z</time>
      </trkpt>
      <trkpt lat="46.15406" lon="-1.15348">
        <ele>1.4</ele>
        <time>2025-07-01T10:13:43Z</time>
      </trkpt>
      <trkpt lat="46.15407" lon="-1.15345">
        <ele>1.2</ele>
        <time>2025-07-01T10:13:45Z</time>
      </trkpt>
      <trkpt lat="46.1541" lon="-1.15333">
        <ele>1.2</ele>
        <time>2025-07-01T10:13:52Z</time>
      </trkpt>
      <trkpt lat="46.15412" lon="-1.15322">
        <ele>1.2</ele>
        <time>2025-07-01T10:13:59Z</time>
      </trkpt>
      <trkpt lat="46.15412" lon="-1.15318">
        <ele>1.2</ele>
        <time>2025-07-01T10:14:01Z</time>
      </trkpt>
      <trkpt lat="46.15421" lon="-1.15305">
        <ele>1.2</ele>
        <time>2025-07-01T10:14:13Z</time>
      </trkpt>
      <trkpt lat="46.15424" lon="-1.153">
        <ele>0.80000000000001</ele>
        <time>2025-07-01T10:14:17Z</time>
      </trkpt>
      <trkpt lat="46.15427" lon="-1.15294">
        <ele>0.80000000000001</ele>
        <time>2025-07-01T10:14:21Z</time>
      </trkpt>
      <trkpt lat="46.15429" lon="-1.15283">
        <ele>1</ele>
        <time>2025-07-01T10:14:28Z</time>
      </trkpt>
      <trkpt lat="46.1543" lon="-1.15268">
        <ele>1.2</ele>
        <time>2025-07-01T10:14:39Z</time>
      </trkpt>
      <trkpt lat="46.1543" lon="-1.15267">
        <ele>1.2</ele>
        <time>2025-07-01T10:14:40Z</time>
      </trkpt>
      <trkpt lat="46.15432" lon="-1.15265">
        <ele>1.2</ele>
        <time>2025-07-01T10:14:44Z</time>
      </trkpt>
      <trkpt lat="46.15434" lon="-1.15266">
        <ele>1.2</ele>
        <time>2025-07-01T10:14:45Z</time>
      </trkpt>
      <trkpt lat="46.15441" lon="-1.15268">
        <ele>1.4</ele>
        <time>2025-07-01T10:14:53Z</time>
      </trkpt>
      <trkpt lat="46.15443" lon="-1.15268">
        <ele>1.4</ele>
        <time>2025-07-01T10:14:54Z</time>
      </trkpt>
      <trkpt lat="46.15445" lon="-1.15268">
        <ele>1.8</ele>
        <time>2025-07-01T10:14:57Z</time>
      </trkpt>
      <trkpt lat="46.15452" lon="-1.15269">
        <ele>2.4</ele>
        <time>2025-07-01T10:15:04Z</time>
      </trkpt>
      <trkpt lat="46.15458" lon="-1.15269">
        <ele>2.2</ele>
        <time>2025-07-01T10:15:11Z</time>
      </trkpt>
      <trkpt lat="46.15465" lon="-1.15269">
        <ele>2</ele>
        <time>2025-07-01T10:15:17Z</time>
      </trkpt>
      <trkpt lat="46.15475" lon="-1.15266">
        <ele>1.8</ele>
        <time>2025-07-01T10:15:25Z</time>
      </trkpt>
      <trkpt lat="46.15476" lon="-1.15264">
        <ele>1.8</ele>
        <time>2025-07-01T10:15:26Z</time>
      </trkpt>
      <trkpt lat="46.15477" lon="-1.15253">
        <ele>2</ele>
        <time>2025-07-01T10:15:33Z</time>
      </trkpt>
      <trkpt lat="46.15478" lon="-1.15247">
        <ele>1.8</ele>
        <time>2025-07-01T10:15:37Z</time>
      </trkpt>
      <trkpt lat="46.1548" lon="-1.15244">
        <ele>1.6</ele>
        <time>2025-07-01T10:15:39Z</time>
      </trkpt>
      <trkpt lat="46.15483" lon="-1.15235">
        <ele>1.2</ele>
        <time>2025-07-01T10:15:48Z</time>
      </trkpt>
      <trkpt lat="46.15484" lon="-1.15233">
        <ele>1.4</ele>
        <time>2025-07-01T10:15:50Z</time>
      </trkpt>
      <trkpt lat="46.15485" lon="-1.15226">
        <ele>1.4</ele>
        <time>2025-07-01T10:15:55Z</time>
      </trkpt>
      <trkpt lat="46.15485" lon="-1.15223">
        <ele>1.6</ele>
        <time>2025-07-01T10:15:57Z</time>
      </trkpt>
      <trkpt lat="46.15483" lon="-1.15209">
        <ele>1.6</ele>
        <time>2025-07-01T10:16:07Z</time>
      </trkpt>
      <trkpt lat="46.15484" lon="-1.15199">
        <ele>1.6</ele>
        <time>2025-07-01T10:16:15Z</time>
      </trkpt>
      <trkpt lat="46.15484" lon="-1.15196">
        <ele>1.6</ele>
        <time>2025-07-01T10:16:21Z</time>
      </trkpt>
      <trkpt lat="46.15484" lon="-1.15194">
        <ele>1.4</ele>
        <time>2025-07-01T10:16:27Z</time>
      </trkpt>
      <trkpt lat="46.15486" lon="-1.15184">
        <ele>1.6</ele>
        <time>2025-07-01T10:16:35Z</time>
      </trkpt>
      <trkpt lat="46.15487" lon="-1.15172">
        <ele>1.6</ele>
        <time>2025-07-01T10:16:43Z</time>
      </trkpt>
      <trkpt lat="46.15488" lon="-1.15162">
        <ele>1.2</ele>
        <time>2025-07-01T10:16:51Z</time>
      </trkpt>
      <trkpt lat="46.15487" lon="-1.15156">
        <ele>1.2</ele>
        <time>2025-07-01T10:16:57Z</time>
      </trkpt>
      <trkpt lat="46.15486" lon="-1.15144">
        <ele>1.4</ele>
        <time>2025-07-01T10:17:06Z</time>
      </trkpt>
      <trkpt lat="46.15486" lon="-1.1514">
        <ele>1.4</ele>
        <time>2025-07-01T10:17:12Z</time>
      </trkpt>
      <trkpt lat="46.15486" lon="-1.15136">
        <ele>1.4</ele>
        <time>2025-07-01T10:17:14Z</time>
      </trkpt>
      <trkpt lat="46.15484" lon="-1.15149">
        <ele>4.2</ele>
        <time>2025-07-01T11:14:51Z</time>
      </trkpt>
      <trkpt lat="46.15486" lon="-1.15141">
        <ele>4.8</ele>
        <time>2025-07-01T11:15:04Z</time>
      </trkpt>
      <trkpt lat="46.15489" lon="-1.15126">
        <ele>4.2</ele>
        <time>2025-07-01T11:15:12Z</time>
      </trkpt>
      <trkpt lat="46.1549" lon="-1.15108">
        <ele>4.4</ele>
        <time>2025-07-01T11:15:24Z</time>
      </trkpt>
      <trkpt lat="46.15491" lon="-1.15095">
        <ele>4.2</ele>
        <time>2025-07-01T11:15:33Z</time>
      </trkpt>
      <trkpt lat="46.15493" lon="-1.1508">
        <ele>4.2</ele>
        <time>2025-07-01T11:15:42Z</time>
      </trkpt>
      <trkpt lat="46.15493" lon="-1.15079">
        <ele>4.2</ele>
        <time>2025-07-01T11:15:43Z</time>
      </trkpt>
      <trkpt lat="46.15493" lon="-1.15074">
        <ele>4.2</ele>
        <time>2025-07-01T11:15:47Z</time>
      </trkpt>
      <trkpt lat="46.15493" lon="-1.15069">
        <ele>4.2</ele>
        <time>2025-07-01T11:15:50Z</time>
      </trkpt>
      <trkpt lat="46.15494" lon="-1.15058">
        <ele>3.8</ele>
        <time>2025-07-01T11:15:57Z</time>
      </trkpt>
      <trkpt lat="46.15494" lon="-1.15049">
        <ele>4</ele>
        <time>2025-07-01T11:16:02Z</time>
      </trkpt>
      <trkpt lat="46.15495" lon="-1.15042">
        <ele>4</ele>
        <time>2025-07-01T11:16:06Z</time>
      </trkpt>
      <trkpt lat="46.15499" lon="-1.15036">
        <ele>4</ele>
        <time>2025-07-01T11:16:10Z</time>
      </trkpt>
      <trkpt lat="46.155" lon="-1.15033">
        <ele>4</ele>
        <time>2025-07-01T11:16:12Z</time>
      </trkpt>
      <trkpt lat="46.15501" lon="-1.15024">
        <ele>4</ele>
        <time>2025-07-01T11:16:17Z</time>
      </trkpt>
      <trkpt lat="46.15502" lon="-1.15015">
        <ele>4.2</ele>
        <time>2025-07-01T11:16:23Z</time>
      </trkpt>
      <trkpt lat="46.15502" lon="-1.15014">
        <ele>4.2</ele>
        <time>2025-07-01T11:16:24Z</time>
      </trkpt>
      <trkpt lat="46.15502" lon="-1.15012">
        <ele>4</ele>
        <time>2025-07-01T11:16:25Z</time>
      </trkpt>
      <trkpt lat="46.15502" lon="-1.14997">
        <ele>3.8</ele>
        <time>2025-07-01T11:16:34Z</time>
      </trkpt>
      <trkpt lat="46.15502" lon="-1.14996">
        <ele>3.8</ele>
        <time>2025-07-01T11:16:35Z</time>
      </trkpt>
      <trkpt lat="46.15504" lon="-1.14985">
        <ele>3.8</ele>
        <time>2025-07-01T11:16:41Z</time>
      </trkpt>
      <trkpt lat="46.15504" lon="-1.14979">
        <ele>3.8</ele>
        <time>2025-07-01T11:16:45Z</time>
      </trkpt>
      <trkpt lat="46.15504" lon="-1.14976">
        <ele>3.8</ele>
        <time>2025-07-01T11:16:47Z</time>
      </trkpt>
      <trkpt lat="46.15504" lon="-1.14974">
        <ele>3.8</ele>
        <time>2025-07-01T11:16:49Z</time>
      </trkpt>
      <trkpt lat="46.15505" lon="-1.14972">
        <ele>3.8</ele>
        <time>2025-07-01T11:16:52Z</time>
      </trkpt>
      <trkpt lat="46.15506" lon="-1.14972">
        <ele>3.8</ele>
        <time>2025-07-01T11:16:53Z</time>
      </trkpt>
      <trkpt lat="46.1551" lon="-1.14972">
        <ele>3.8</ele>
        <time>2025-07-01T11:16:58Z</time>
      </trkpt>
      <trkpt lat="46.15513" lon="-1.1497">
        <ele>4</ele>
        <time>2025-07-01T11:17:01Z</time>
      </trkpt>
      <trkpt lat="46.1552" lon="-1.14968">
        <ele>3.6</ele>
        <time>2025-07-01T11:17:08Z</time>
      </trkpt>
      <trkpt lat="46.1553" lon="-1.14969">
        <ele>3.8</ele>
        <time>2025-07-01T11:17:16Z</time>
      </trkpt>
      <trkpt lat="46.15538" lon="-1.14971">
        <ele>3.6</ele>
        <time>2025-07-01T11:17:23Z</time>
      </trkpt>
      <trkpt lat="46.1554" lon="-1.1497">
        <ele>3.6</ele>
        <time>2025-07-01T11:17:24Z</time>
      </trkpt>
      <trkpt lat="46.15542" lon="-1.14969">
        <ele>3.6</ele>
        <time>2025-07-01T11:17:26Z</time>
      </trkpt>
      <trkpt lat="46.15544" lon="-1.14968">
        <ele>3.6</ele>
        <time>2025-07-01T11:17:28Z</time>
      </trkpt>
      <trkpt lat="46.15549" lon="-1.14968">
        <ele>3.8</ele>
        <time>2025-07-01T11:17:34Z</time>
      </trkpt>
      <trkpt lat="46.15551" lon="-1.14968">
        <ele>3.8</ele>
        <time>2025-07-01T11:17:35Z</time>
      </trkpt>
      <trkpt lat="46.1556" lon="-1.14964">
        <ele>3</ele>
        <time>2025-07-01T11:23:30Z</time>
      </trkpt>
      <trkpt lat="46.1556" lon="-1.14964">
        <ele>3.4</ele>
        <time>2025-07-01T11:23:36Z</time>
      </trkpt>
      <trkpt lat="46.15564" lon="-1.14964">
        <ele>2.8</ele>
        <time>2025-07-01T11:23:44Z</time>
      </trkpt>
      <trkpt lat="46.15571" lon="-1.14963">
        <ele>3</ele>
        <time>2025-07-01T11:23:49Z</time>
      </trkpt>
      <trkpt lat="46.15573" lon="-1.14963">
        <ele>3</ele>
        <time>2025-07-01T11:23:51Z</time>
      </trkpt>
      <trkpt lat="46.15575" lon="-1.14963">
        <ele>3</ele>
        <time>2025-07-01T11:23:53Z</time>
      </trkpt>
      <trkpt lat="46.15576" lon="-1.14963">
        <ele>3</ele>
        <time>2025-07-01T11:23:54Z</time>
      </trkpt>
      <trkpt lat="46.1558" lon="-1.14962">
        <ele>2.6</ele>
        <time>2025-07-01T11:23:58Z</time>
      </trkpt>
      <trkpt lat="46.15585" lon="-1.14956">
        <ele>2.2</ele>
        <time>2025-07-01T11:24:05Z</time>
      </trkpt>
      <trkpt lat="46.15585" lon="-1.14955">
        <ele>2.2</ele>
        <time>2025-07-01T11:24:06Z</time>
      </trkpt>
      <trkpt lat="46.15589" lon="-1.14954">
        <ele>2.4</ele>
        <time>2025-07-01T11:24:11Z</time>
      </trkpt>
      <trkpt lat="46.15594" lon="-1.14946">
        <ele>2.2</ele>
        <time>2025-07-01T11:24:18Z</time>
      </trkpt>
      <trkpt lat="46.15595" lon="-1.14945">
        <ele>2.2</ele>
        <time>2025-07-01T11:24:19Z</time>
      </trkpt>
      <trkpt lat="46.15596" lon="-1.14936">
        <ele>2.4</ele>
        <time>2025-07-01T11:24:26Z</time>
      </trkpt>
      <trkpt lat="46.15598" lon="-1.14934">
        <ele>2.4</ele>
        <time>2025-07-01T11:24:28Z</time>
      </trkpt>
      <trkpt lat="46.15598" lon="-1.14933">
        <ele>2.2</ele>
        <time>2025-07-01T11:24:30Z</time>
      </trkpt>
      <trkpt lat="46.15601" lon="-1.14925">
        <ele>2</ele>
        <time>2025-07-01T11:24:36Z</time>
      </trkpt>
      <trkpt lat="46.15602" lon="-1.14919">
        <ele>2.2</ele>
        <time>2025-07-01T11:24:41Z</time>
      </trkpt>
      <trkpt lat="46.15603" lon="-1.14914">
        <ele>2.2</ele>
        <time>2025-07-01T11:24:44Z</time>
      </trkpt>
      <trkpt lat="46.15605" lon="-1.14908">
        <ele>2.2</ele>
        <time>2025-07-01T11:24:48Z</time>
      </trkpt>
      <trkpt lat="46.15604" lon="-1.14907">
        <ele>2.2</ele>
        <time>2025-07-01T11:24:50Z</time>
      </trkpt>
      <trkpt lat="46.15606" lon="-1.14899">
        <ele>2</ele>
        <time>2025-07-01T11:24:56Z</time>
      </trkpt>
      <trkpt lat="46.15608" lon="-1.14891">
        <ele>2.4</ele>
        <time>2025-07-01T11:25:01Z</time>
      </trkpt>
      <trkpt lat="46.15608" lon="-1.1489">
        <ele>2.4</ele>
        <time>2025-07-01T11:25:02Z</time>
      </trkpt>
      <trkpt lat="46.15608" lon="-1.14889">
        <ele>2.4</ele>
        <time>2025-07-01T11:25:04Z</time>
      </trkpt>
      <trkpt lat="46.1561" lon="-1.1489">
        <ele>2.2</ele>
        <time>2025-07-01T11:25:08Z</time>
      </trkpt>
      <trkpt lat="46.15613" lon="-1.1489">
        <ele>2.2</ele>
        <time>2025-07-01T11:25:10Z</time>
      </trkpt>
      <trkpt lat="46.15617" lon="-1.14889">
        <ele>2</ele>
        <time>2025-07-01T11:25:15Z</time>
      </trkpt>
      <trkpt lat="46.15618" lon="-1.1489">
        <ele>2</ele>
        <time>2025-07-01T11:25:16Z</time>
      </trkpt>
      <trkpt lat="46.15622" lon="-1.1489">
        <ele>2</ele>
        <time>2025-07-01T11:25:19Z</time>
      </trkpt>
      <trkpt lat="46.15625" lon="-1.14892">
        <ele>2.2</ele>
        <time>2025-07-01T11:25:22Z</time>
      </trkpt>
      <trkpt lat="46.15627" lon="-1.14893">
        <ele>2.2</ele>
        <time>2025-07-01T11:25:24Z</time>
      </trkpt>
      <trkpt lat="46.15634" lon="-1.14894">
        <ele>2.2</ele>
        <time>2025-07-01T11:25:29Z</time>
      </trkpt>
      <trkpt lat="46.15635" lon="-1.14893">
        <ele>2.2</ele>
        <time>2025-07-01T11:25:30Z</time>
      </trkpt>
      <trkpt lat="46.15638" lon="-1.14893">
        <ele>2.2</ele>
        <time>2025-07-01T11:25:33Z</time>
      </trkpt>
      <trkpt lat="46.15641" lon="-1.14894">
        <ele>2.4</ele>
        <time>2025-07-01T11:25:35Z</time>
      </trkpt>
      <trkpt lat="46.15648" lon="-1.14897">
        <ele>2.6</ele>
        <time>2025-07-01T11:25:42Z</time>
      </trkpt>
      <trkpt lat="46.15651" lon="-1.14898">
        <ele>2.6</ele>
        <time>2025-07-01T11:25:45Z</time>
      </trkpt>
      <trkpt lat="46.15657" lon="-1.149">
        <ele>2.6</ele>
        <time>2025-07-01T11:25:50Z</time>
      </trkpt>
      <trkpt lat="46.15663" lon="-1.14904">
        <ele>2.8</ele>
        <time>2025-07-01T11:25:56Z</time>
      </trkpt>
      <trkpt lat="46.15666" lon="-1.14905">
        <ele>3</ele>
        <time>2025-07-01T11:25:58Z</time>
      </trkpt>
      <trkpt lat="46.15668" lon="-1.14906">
        <ele>2.8</ele>
        <time>2025-07-01T11:26:01Z</time>
      </trkpt>
      <trkpt lat="46.1567" lon="-1.14907">
        <ele>3</ele>
        <time>2025-07-01T11:26:03Z</time>
      </trkpt>
      <trkpt lat="46.15675" lon="-1.14907">
        <ele>3.2</ele>
        <time>2025-07-01T11:26:07Z</time>
      </trkpt>
      <trkpt lat="46.15677" lon="-1.14907">
        <ele>3.2</ele>
        <time>2025-07-01T11:26:09Z</time>
      </trkpt>
      <trkpt lat="46.15686" lon="-1.14908">
        <ele>3.4</ele>
        <time>2025-07-01T11:26:16Z</time>
      </trkpt>
      <trkpt lat="46.15689" lon="-1.14909">
        <ele>3.4</ele>
        <time>2025-07-01T11:26:18Z</time>
      </trkpt>
      <trkpt lat="46.15691" lon="-1.14912">
        <ele>3.6</ele>
        <time>2025-07-01T11:26:20Z</time>
      </trkpt>
      <trkpt lat="46.15692" lon="-1.14914">
        <ele>3.6</ele>
        <time>2025-07-01T11:26:21Z</time>
      </trkpt>
      <trkpt lat="46.15695" lon="-1.14915">
        <ele>3.6</ele>
        <time>2025-07-01T11:26:24Z</time>
      </trkpt>
      <trkpt lat="46.15697" lon="-1.14915">
        <ele>3.8</ele>
        <time>2025-07-01T11:26:25Z</time>
      </trkpt>
      <trkpt lat="46.15701" lon="-1.14916">
        <ele>4</ele>
        <time>2025-07-01T11:26:28Z</time>
      </trkpt>
      <trkpt lat="46.15702" lon="-1.14917">
        <ele>4</ele>
        <time>2025-07-01T11:26:30Z</time>
      </trkpt>
      <trkpt lat="46.15704" lon="-1.14919">
        <ele>4</ele>
        <time>2025-07-01T11:26:33Z</time>
      </trkpt>
      <trkpt lat="46.15705" lon="-1.14918">
        <ele>4</ele>
        <time>2025-07-01T11:26:34Z</time>
      </trkpt>
      <trkpt lat="46.15707" lon="-1.14917">
        <ele>4</ele>
        <time>2025-07-01T11:26:36Z</time>
      </trkpt>
      <trkpt lat="46.15717" lon="-1.14921">
        <ele>4.8</ele>
        <time>2025-07-01T11:26:44Z</time>
      </trkpt>
      <trkpt lat="46.15717" lon="-1.14921">
        <ele>5</ele>
        <time>2025-07-01T11:26:45Z</time>
      </trkpt>
      <trkpt lat="46.15718" lon="-1.14921">
        <ele>5</ele>
        <time>2025-07-01T11:26:47Z</time>
      </trkpt>
      <trkpt lat="46.15719" lon="-1.14922">
        <ele>5</ele>
        <time>2025-07-01T11:26:48Z</time>
      </trkpt>
      <trkpt lat="46.15721" lon="-1.14924">
        <ele>5</ele>
        <time>2025-07-01T11:26:50Z</time>
      </trkpt>
      <trkpt lat="46.15727" lon="-1.1493">
        <ele>4.8</ele>
        <time>2025-07-01T11:26:55Z</time>
      </trkpt>
      <trkpt lat="46.15729" lon="-1.1493">
        <ele>4.6</ele>
        <time>2025-07-01T11:26:57Z</time>
      </trkpt>
      <trkpt lat="46.15733" lon="-1.14931">
        <ele>4.8</ele>
        <time>2025-07-01T11:27:00Z</time>
      </trkpt>
      <trkpt lat="46.15735" lon="-1.1493">
        <ele>4.8</ele>
        <time>2025-07-01T11:27:02Z</time>
      </trkpt>
      <trkpt lat="46.15737" lon="-1.14932">
        <ele>4.8</ele>
        <time>2025-07-01T11:27:04Z</time>
      </trkpt>
      <trkpt lat="46.15739" lon="-1.14934">
        <ele>4.8</ele>
        <time>2025-07-01T11:27:06Z</time>
      </trkpt>
      <trkpt lat="46.15742" lon="-1.14934">
        <ele>4.8</ele>
        <time>2025-07-01T11:27:09Z</time>
      </trkpt>
      <trkpt lat="46.15748" lon="-1.14936">
        <ele>4.8</ele>
        <time>2025-07-01T11:27:13Z</time>
      </trkpt>
      <trkpt lat="46.1575" lon="-1.1494">
        <ele>5</ele>
        <time>2025-07-01T11:27:15Z</time>
      </trkpt>
      <trkpt lat="46.15752" lon="-1.14942">
        <ele>5.2</ele>
        <time>2025-07-01T11:27:17Z</time>
      </trkpt>
      <trkpt lat="46.15753" lon="-1.14944">
        <ele>5.2</ele>
        <time>2025-07-01T11:27:18Z</time>
      </trkpt>
      <trkpt lat="46.15753" lon="-1.14946">
        <ele>5.2</ele>
        <time>2025-07-01T11:27:19Z</time>
      </trkpt>
      <trkpt lat="46.15755" lon="-1.14947">
        <ele>4.8</ele>
        <time>2025-07-01T11:27:21Z</time>
      </trkpt>
      <trkpt lat="46.15757" lon="-1.14948">
        <ele>4.8</ele>
        <time>2025-07-01T11:27:23Z</time>
      </trkpt>
      <trkpt lat="46.15759" lon="-1.1495">
        <ele>4.6</ele>
        <time>2025-07-01T11:27:25Z</time>
      </trkpt>
      <trkpt lat="46.15762" lon="-1.14951">
        <ele>4.6</ele>
        <time>2025-07-01T11:27:27Z</time>
      </trkpt>
      <trkpt lat="46.15763" lon="-1.14952">
        <ele>4.6</ele>
        <time>2025-07-01T11:27:28Z</time>
      </trkpt>
      <trkpt lat="46.15774" lon="-1.14955">
        <ele>4.6</ele>
        <time>2025-07-01T11:27:36Z</time>
      </trkpt>
      <trkpt lat="46.15777" lon="-1.14959">
        <ele>4.8</ele>
        <time>2025-07-01T11:27:39Z</time>
      </trkpt>
      <trkpt lat="46.15778" lon="-1.1496">
        <ele>4.8</ele>
        <time>2025-07-01T11:27:41Z</time>
      </trkpt>
      <trkpt lat="46.15785" lon="-1.14962">
        <ele>4.8</ele>
        <time>2025-07-01T11:27:46Z</time>
      </trkpt>
      <trkpt lat="46.15791" lon="-1.14965">
        <ele>4.4</ele>
        <time>2025-07-01T11:27:51Z</time>
      </trkpt>
      <trkpt lat="46.15792" lon="-1.14967">
        <ele>4.4</ele>
        <time>2025-07-01T11:27:53Z</time>
      </trkpt>
      <trkpt lat="46.15796" lon="-1.1497">
        <ele>4.4</ele>
        <time>2025-07-01T11:27:58Z</time>
      </trkpt>
      <trkpt lat="46.15802" lon="-1.14974">
        <ele>4.6</ele>
        <time>2025-07-01T11:28:03Z</time>
      </trkpt>
      <trkpt lat="46.15803" lon="-1.14976">
        <ele>4.6</ele>
        <time>2025-07-01T11:28:04Z</time>
      </trkpt>
      <trkpt lat="46.15808" lon="-1.14982">
        <ele>4.6</ele>
        <time>2025-07-01T11:28:10Z</time>
      </trkpt>
      <trkpt lat="46.1581" lon="-1.14984">
        <ele>4.6</ele>
        <time>2025-07-01T11:28:12Z</time>
      </trkpt>
      <trkpt lat="46.15819" lon="-1.14986">
        <ele>4.4</ele>
        <time>2025-07-01T11:28:18Z</time>
      </trkpt>
      <trkpt lat="46.1582" lon="-1.14987">
        <ele>4.4</ele>
        <time>2025-07-01T11:28:19Z</time>
      </trkpt>
      <trkpt lat="46.15824" lon="-1.14989">
        <ele>4.4</ele>
        <time>2025-07-01T11:28:22Z</time>
      </trkpt>
      <trkpt lat="46.15828" lon="-1.14993">
        <ele>4.8</ele>
        <time>2025-07-01T11:28:26Z</time>
      </trkpt>
      <trkpt lat="46.15829" lon="-1.14994">
        <ele>4.8</ele>
        <time>2025-07-01T11:28:27Z</time>
      </trkpt>
      <trkpt lat="46.15834" lon="-1.14999">
        <ele>4.6</ele>
        <time>2025-07-01T11:28:33Z</time>
      </trkpt>
      <trkpt lat="46.1584" lon="-1.15011">
        <ele>4.4</ele>
        <time>2025-07-01T11:28:41Z</time>
      </trkpt>
      <trkpt lat="46.15846" lon="-1.15018">
        <ele>4.4</ele>
        <time>2025-07-01T11:28:49Z</time>
      </trkpt>
      <trkpt lat="46.15847" lon="-1.15021">
        <ele>4.6</ele>
        <time>2025-07-01T11:28:51Z</time>
      </trkpt>
      <trkpt lat="46.15852" lon="-1.15029">
        <ele>4.8</ele>
        <time>2025-07-01T11:29:00Z</time>
      </trkpt>
      <trkpt lat="46.15852" lon="-1.15038">
        <ele>5</ele>
        <time>2025-07-01T11:29:08Z</time>
      </trkpt>
      <trkpt lat="46.15854" lon="-1.15041">
        <ele>5.2</ele>
        <time>2025-07-01T11:29:15Z</time>
      </trkpt>
      <trkpt lat="46.15858" lon="-1.15046">
        <ele>5.8</ele>
        <time>2025-07-01T11:29:24Z</time>
      </trkpt>
      <trkpt lat="46.15859" lon="-1.1505">
        <ele>6</ele>
        <time>2025-07-01T11:29:30Z</time>
      </trkpt>
      <trkpt lat="46.1586" lon="-1.15051">
        <ele>5.8</ele>
        <time>2025-07-01T11:29:33Z</time>
      </trkpt>
      <trkpt lat="46.15859" lon="-1.15051">
        <ele>5.6</ele>
        <time>2025-07-01T11:29:58Z</time>
      </trkpt>
      <trkpt lat="46.15859" lon="-1.15051">
        <ele>5.6</ele>
        <time>2025-07-01T11:29:59Z</time>
      </trkpt>
      <trkpt lat="46.15859" lon="-1.15052">
        <ele>5</ele>
        <time>2025-07-01T11:30:05Z</time>
      </trkpt>
      <trkpt lat="46.15859" lon="-1.15052">
        <ele>5</ele>
        <time>2025-07-01T11:30:06Z</time>
      </trkpt>
      <trkpt lat="46.15859" lon="-1.15052">
        <ele>5</ele>
        <time>2025-07-01T11:30:08Z</time>
      </trkpt>
      <trkpt lat="46.1586" lon="-1.15056">
        <ele>4.6</ele>
        <time>2025-07-01T11:30:17Z</time>
      </trkpt>
      <trkpt lat="46.15861" lon="-1.15059">
        <ele>4.2</ele>
        <time>2025-07-01T11:30:20Z</time>
      </trkpt>
      <trkpt lat="46.15864" lon="-1.15062">
        <ele>4.2</ele>
        <time>2025-07-01T11:30:22Z</time>
      </trkpt>
      <trkpt lat="46.15868" lon="-1.15067">
        <ele>4.4</ele>
        <time>2025-07-01T11:30:26Z</time>
      </trkpt>
      <trkpt lat="46.15871" lon="-1.15071">
        <ele>4.4</ele>
        <time>2025-07-01T11:30:30Z</time>
      </trkpt>
      <trkpt lat="46.15872" lon="-1.15072">
        <ele>4.4</ele>
        <time>2025-07-01T11:30:31Z</time>
      </trkpt>
      <trkpt lat="46.15875" lon="-1.1508">
        <ele>4.4</ele>
        <time>2025-07-01T11:30:37Z</time>
      </trkpt>
      <trkpt lat="46.15874" lon="-1.15088">
        <ele>4.8</ele>
        <time>2025-07-01T11:30:43Z</time>
      </trkpt>
      <trkpt lat="46.15873" lon="-1.15098">
        <ele>5</ele>
        <time>2025-07-01T11:30:50Z</time>
      </trkpt>
      <trkpt lat="46.15874" lon="-1.15103">
        <ele>5</ele>
        <time>2025-07-01T11:30:53Z</time>
      </trkpt>
      <trkpt lat="46.15875" lon="-1.15105">
        <ele>5</ele>
        <time>2025-07-01T11:30:55Z</time>
      </trkpt>
      <trkpt lat="46.15876" lon="-1.15108">
        <ele>4.8</ele>
        <time>2025-07-01T11:30:57Z</time>
      </trkpt>
      <trkpt lat="46.15877" lon="-1.1511">
        <ele>4.8</ele>
        <time>2025-07-01T11:30:59Z</time>
      </trkpt>
      <trkpt lat="46.15878" lon="-1.15114">
        <ele>4.6</ele>
        <time>2025-07-01T11:31:01Z</time>
      </trkpt>
      <trkpt lat="46.15883" lon="-1.1512">
        <ele>4.6</ele>
        <time>2025-07-01T11:31:07Z</time>
      </trkpt>
      <trkpt lat="46.15884" lon="-1.15122">
        <ele>4.6</ele>
        <time>2025-07-01T11:31:09Z</time>
      </trkpt>
      <trkpt lat="46.15885" lon="-1.15123">
        <ele>4.6</ele>
        <time>2025-07-01T11:31:11Z</time>
      </trkpt>
      <trkpt lat="46.15888" lon="-1.15124">
        <ele>4.8</ele>
        <time>2025-07-01T11:31:16Z</time>
      </trkpt>
      <trkpt lat="46.15888" lon="-1.15123">
        <ele>4.8</ele>
        <time>2025-07-01T11:31:17Z</time>
      </trkpt>
      <trkpt lat="46.15888" lon="-1.1512">
        <ele>4.8</ele>
        <time>2025-07-01T11:31:19Z</time>
      </trkpt>
      <trkpt lat="46.1589" lon="-1.1512">
        <ele>4.8</ele>
        <time>2025-07-01T11:31:20Z</time>
      </trkpt>
      <trkpt lat="46.15893" lon="-1.15121">
        <ele>4.8</ele>
        <time>2025-07-01T11:31:22Z</time>
      </trkpt>
      <trkpt lat="46.15895" lon="-1.15114">
        <ele>5</ele>
        <time>2025-07-01T11:31:27Z</time>
      </trkpt>
      <trkpt lat="46.15896" lon="-1.15113">
        <ele>5</ele>
        <time>2025-07-01T11:31:28Z</time>
      </trkpt>
      <trkpt lat="46.15897" lon="-1.15111">
        <ele>5</ele>
        <time>2025-07-01T11:31:30Z</time>
      </trkpt>
      <trkpt lat="46.159" lon="-1.15106">
        <ele>5</ele>
        <time>2025-07-01T11:31:34Z</time>
      </trkpt>
      <trkpt lat="46.159" lon="-1.15105">
        <ele>5</ele>
        <time>2025-07-01T11:31:35Z</time>
      </trkpt>
      <trkpt lat="46.15902" lon="-1.15103">
        <ele>5</ele>
        <time>2025-07-01T11:31:38Z</time>
      </trkpt>
      <trkpt lat="46.15904" lon="-1.151">
        <ele>5</ele>
        <time>2025-07-01T11:31:40Z</time>
      </trkpt>
      <trkpt lat="46.15905" lon="-1.15098">
        <ele>5.2</ele>
        <time>2025-07-01T11:31:42Z</time>
      </trkpt>
      <trkpt lat="46.15906" lon="-1.15097">
        <ele>5.2</ele>
        <time>2025-07-01T11:31:43Z</time>
      </trkpt>
      <trkpt lat="46.15907" lon="-1.15095">
        <ele>5.2</ele>
        <time>2025-07-01T11:31:44Z</time>
      </trkpt>
      <trkpt lat="46.15907" lon="-1.1509">
        <ele>5.4</ele>
        <time>2025-07-01T11:31:47Z</time>
      </trkpt>
      <trkpt lat="46.15909" lon="-1.15089">
        <ele>5.4</ele>
        <time>2025-07-01T11:31:50Z</time>
      </trkpt>
      <trkpt lat="46.15912" lon="-1.15089">
        <ele>5.4</ele>
        <time>2025-07-01T11:31:52Z</time>
      </trkpt>
      <trkpt lat="46.15913" lon="-1.15088">
        <ele>5.4</ele>
        <time>2025-07-01T11:31:53Z</time>
      </trkpt>
      <trkpt lat="46.15915" lon="-1.15087">
        <ele>5.2</ele>
        <time>2025-07-01T11:31:56Z</time>
      </trkpt>
      <trkpt lat="46.15917" lon="-1.15086">
        <ele>5</ele>
        <time>2025-07-01T11:31:58Z</time>
      </trkpt>
      <trkpt lat="46.15919" lon="-1.15082">
        <ele>5</ele>
        <time>2025-07-01T11:32:01Z</time>
      </trkpt>
      <trkpt lat="46.1592" lon="-1.15081">
        <ele>5</ele>
        <time>2025-07-01T11:32:02Z</time>
      </trkpt>
      <trkpt lat="46.15921" lon="-1.1508">
        <ele>5</ele>
        <time>2025-07-01T11:32:03Z</time>
      </trkpt>
      <trkpt lat="46.15925" lon="-1.15078">
        <ele>5.2</ele>
        <time>2025-07-01T11:32:06Z</time>
      </trkpt>
      <trkpt lat="46.15928" lon="-1.15078">
        <ele>5</ele>
        <time>2025-07-01T11:32:08Z</time>
      </trkpt>
      <trkpt lat="46.1593" lon="-1.15075">
        <ele>5</ele>
        <time>2025-07-01T11:32:11Z</time>
      </trkpt>
      <trkpt lat="46.15931" lon="-1.15075">
        <ele>5</ele>
        <time>2025-07-01T11:32:12Z</time>
      </trkpt>
      <trkpt lat="46.15933" lon="-1.15071">
        <ele>5.2</ele>
        <time>2025-07-01T11:32:15Z</time>
      </trkpt>
      <trkpt lat="46.15934" lon="-1.1507">
        <ele>5.2</ele>
        <time>2025-07-01T11:32:16Z</time>
      </trkpt>
      <trkpt lat="46.15936" lon="-1.15068">
        <ele>5.4</ele>
        <time>2025-07-01T11:32:18Z</time>
      </trkpt>
      <trkpt lat="46.15937" lon="-1.15067">
        <ele>5.4</ele>
        <time>2025-07-01T11:32:19Z</time>
      </trkpt>
      <trkpt lat="46.15937" lon="-1.15065">
        <ele>5.4</ele>
        <time>2025-07-01T11:32:20Z</time>
      </trkpt>
      <trkpt lat="46.15939" lon="-1.1506">
        <ele>5.2</ele>
        <time>2025-07-01T11:32:23Z</time>
      </trkpt>
      <trkpt lat="46.15942" lon="-1.15055">
        <ele>5.2</ele>
        <time>2025-07-01T11:32:26Z</time>
      </trkpt>
      <trkpt lat="46.15945" lon="-1.15055">
        <ele>5</ele>
        <time>2025-07-01T11:32:28Z</time>
      </trkpt>
      <trkpt lat="46.15948" lon="-1.15055">
        <ele>5</ele>
        <time>2025-07-01T11:32:31Z</time>
      </trkpt>
      <trkpt lat="46.15949" lon="-1.15053">
        <ele>5</ele>
        <time>2025-07-01T11:32:33Z</time>
      </trkpt>
      <trkpt lat="46.15951" lon="-1.15052">
        <ele>4.8</ele>
        <time>2025-07-01T11:32:35Z</time>
      </trkpt>
      <trkpt lat="46.15953" lon="-1.15049">
        <ele>4.8</ele>
        <time>2025-07-01T11:32:37Z</time>
      </trkpt>
      <trkpt lat="46.15954" lon="-1.15049">
        <ele>4.8</ele>
        <time>2025-07-01T11:32:38Z</time>
      </trkpt>
      <trkpt lat="46.15956" lon="-1.15048">
        <ele>5</ele>
        <time>2025-07-01T11:32:40Z</time>
      </trkpt>
      <trkpt lat="46.15957" lon="-1.15044">
        <ele>5</ele>
        <time>2025-07-01T11:32:43Z</time>
      </trkpt>
      <trkpt lat="46.15955" lon="-1.15035">
        <ele>4.8</ele>
        <time>2025-07-01T11:32:49Z</time>
      </trkpt>
      <trkpt lat="46.15955" lon="-1.15033">
        <ele>4.8</ele>
        <time>2025-07-01T11:32:50Z</time>
      </trkpt>
      <trkpt lat="46.15954" lon="-1.15021">
        <ele>5</ele>
        <time>2025-07-01T11:32:58Z</time>
      </trkpt>
      <trkpt lat="46.15956" lon="-1.15019">
        <ele>5</ele>
        <time>2025-07-01T11:33:00Z</time>
      </trkpt>
      <trkpt lat="46.15957" lon="-1.15017">
        <ele>4.8</ele>
        <time>2025-07-01T11:33:02Z</time>
      </trkpt>
      <trkpt lat="46.15958" lon="-1.15017">
        <ele>4.6</ele>
        <time>2025-07-01T11:33:03Z</time>
      </trkpt>
      <trkpt lat="46.15963" lon="-1.15016">
        <ele>4.8</ele>
        <time>2025-07-01T11:33:08Z</time>
      </trkpt>
      <trkpt lat="46.15964" lon="-1.15014">
        <ele>4.8</ele>
        <time>2025-07-01T11:33:10Z</time>
      </trkpt>
      <trkpt lat="46.15968" lon="-1.15009">
        <ele>4.8</ele>
        <time>2025-07-01T11:33:16Z</time>
      </trkpt>
      <trkpt lat="46.15969" lon="-1.15007">
        <ele>4.6</ele>
        <time>2025-07-01T11:33:17Z</time>
      </trkpt>
      <trkpt lat="46.1597" lon="-1.15006">
        <ele>4.6</ele>
        <time>2025-07-01T11:33:19Z</time>
      </trkpt>
      <trkpt lat="46.15974" lon="-1.15007">
        <ele>4.6</ele>
        <time>2025-07-01T11:33:23Z</time>
      </trkpt>
      <trkpt lat="46.15977" lon="-1.15009">
        <ele>4.6</ele>
        <time>2025-07-01T11:33:25Z</time>
      </trkpt>
      <trkpt lat="46.15988" lon="-1.14991">
        <ele>6.4</ele>
        <time>2025-07-01T11:34:30Z</time>
      </trkpt>
      <trkpt lat="46.15981" lon="-1.1497">
        <ele>6.4</ele>
        <time>2025-07-01T11:34:33Z</time>
      </trkpt>
      <trkpt lat="46.15983" lon="-1.14975">
        <ele>6.4</ele>
        <time>2025-07-01T11:34:36Z</time>
      </trkpt>
      <trkpt lat="46.15985" lon="-1.14981">
        <ele>6.2</ele>
        <time>2025-07-01T11:34:39Z</time>
      </trkpt>
      <trkpt lat="46.1598" lon="-1.14978">
        <ele>6.2</ele>
        <time>2025-07-01T11:34:43Z</time>
      </trkpt>
      <trkpt lat="46.15973" lon="-1.14979">
        <ele>6.2</ele>
        <time>2025-07-01T11:34:46Z</time>
      </trkpt>
      <trkpt lat="46.15976" lon="-1.14982">
        <ele>6.2</ele>
        <time>2025-07-01T11:34:49Z</time>
      </trkpt>
      <trkpt lat="46.15976" lon="-1.1498">
        <ele>6.2</ele>
        <time>2025-07-01T11:34:51Z</time>
      </trkpt>
      <trkpt lat="46.15977" lon="-1.14981">
        <ele>6.2</ele>
        <time>2025-07-01T11:34:57Z</time>
      </trkpt>
      <trkpt lat="46.1598" lon="-1.14982">
        <ele>6.2</ele>
        <time>2025-07-01T11:35:00Z</time>
      </trkpt>
      <trkpt lat="46.15981" lon="-1.14982">
        <ele>6.2</ele>
        <time>2025-07-01T11:35:03Z</time>
      </trkpt>
      <trkpt lat="46.15974" lon="-1.1498">
        <ele>6.2</ele>
        <time>2025-07-01T11:35:08Z</time>
      </trkpt>
      <trkpt lat="46.15974" lon="-1.14974">
        <ele>6.2</ele>
        <time>2025-07-01T11:35:16Z</time>
      </trkpt>
      <trkpt lat="46.15975" lon="-1.14977">
        <ele>6.2</ele>
        <time>2025-07-01T11:35:24Z</time>
      </trkpt>
      <trkpt lat="46.15976" lon="-1.14976">
        <ele>6.4</ele>
        <time>2025-07-01T11:35:29Z</time>
      </trkpt>
      <trkpt lat="46.15976" lon="-1.14978">
        <ele>6.4</ele>
        <time>2025-07-01T11:35:30Z</time>
      </trkpt>
      <trkpt lat="46.1598" lon="-1.14983">
        <ele>6.4</ele>
        <time>2025-07-01T11:35:36Z</time>
      </trkpt>
      <trkpt lat="46.15979" lon="-1.14983">
        <ele>6.4</ele>
        <time>2025-07-01T11:35:40Z</time>
      </trkpt>
      <trkpt lat="46.15978" lon="-1.1498">
        <ele>6.6</ele>
        <time>2025-07-01T11:35:46Z</time>
      </trkpt>
      <trkpt lat="46.15976" lon="-1.14982">
        <ele>6.2</ele>
        <time>2025-07-01T11:35:51Z</time>
      </trkpt>
      <trkpt lat="46.15968" lon="-1.14981">
        <ele>6.2</ele>
        <time>2025-07-01T11:36:00Z</time>
      </trkpt>
      <trkpt lat="46.15967" lon="-1.14984">
        <ele>6.2</ele>
        <time>2025-07-01T11:36:01Z</time>
      </trkpt>
      <trkpt lat="46.15969" lon="-1.1499">
        <ele>6.4</ele>
        <time>2025-07-01T11:36:04Z</time>
      </trkpt>
      <trkpt lat="46.15972" lon="-1.1499">
        <ele>6.6</ele>
        <time>2025-07-01T11:36:06Z</time>
      </trkpt>
      <trkpt lat="46.15975" lon="-1.14989">
        <ele>6.6</ele>
        <time>2025-07-01T11:36:08Z</time>
      </trkpt>
      <trkpt lat="46.15979" lon="-1.14988">
        <ele>6.4</ele>
        <time>2025-07-01T11:36:10Z</time>
      </trkpt>
      <trkpt lat="46.1598" lon="-1.14988">
        <ele>6.4</ele>
        <time>2025-07-01T11:36:11Z</time>
      </trkpt>
      <trkpt lat="46.15989" lon="-1.14987">
        <ele>5.8</ele>
        <time>2025-07-01T11:36:16Z</time>
      </trkpt>
      <trkpt lat="46.16" lon="-1.14985">
        <ele>6</ele>
        <time>2025-07-01T11:36:25Z</time>
      </trkpt>
      <trkpt lat="46.16001" lon="-1.14985">
        <ele>6</ele>
        <time>2025-07-01T11:36:26Z</time>
      </trkpt>
      <trkpt lat="46.16004" lon="-1.14988">
        <ele>6</ele>
        <time>2025-07-01T11:36:30Z</time>
      </trkpt>
      <trkpt lat="46.16003" lon="-1.14993">
        <ele>5.8</ele>
        <time>2025-07-01T11:36:32Z</time>
      </trkpt>
      <trkpt lat="46.16003" lon="-1.14998">
        <ele>5.8</ele>
        <time>2025-07-01T11:36:35Z</time>
      </trkpt>
      <trkpt lat="46.16006" lon="-1.15">
        <ele>5.8</ele>
        <time>2025-07-01T11:36:39Z</time>
      </trkpt>
      <trkpt lat="46.16013" lon="-1.15001">
        <ele>5.6</ele>
        <time>2025-07-01T11:36:43Z</time>
      </trkpt>
      <trkpt lat="46.16019" lon="-1.15001">
        <ele>5.8</ele>
        <time>2025-07-01T11:36:46Z</time>
      </trkpt>
      <trkpt lat="46.1602" lon="-1.15003">
        <ele>5.8</ele>
        <time>2025-07-01T11:36:47Z</time>
      </trkpt>
      <trkpt lat="46.16021" lon="-1.15007">
        <ele>6.2</ele>
        <time>2025-07-01T11:36:49Z</time>
      </trkpt>
      <trkpt lat="46.16021" lon="-1.15012">
        <ele>6.4</ele>
        <time>2025-07-01T11:36:51Z</time>
      </trkpt>
      <trkpt lat="46.16021" lon="-1.15014">
        <ele>6.4</ele>
        <time>2025-07-01T11:36:52Z</time>
      </trkpt>
      <trkpt lat="46.1602" lon="-1.15015">
        <ele>6.4</ele>
        <time>2025-07-01T11:36:54Z</time>
      </trkpt>
      <trkpt lat="46.16019" lon="-1.15016">
        <ele>6.4</ele>
        <time>2025-07-01T11:36:56Z</time>
      </trkpt>
      <trkpt lat="46.16018" lon="-1.15017">
        <ele>6.4</ele>
        <time>2025-07-01T11:36:58Z</time>
      </trkpt>
      <trkpt lat="46.16017" lon="-1.1502">
        <ele>6.4</ele>
        <time>2025-07-01T11:37:02Z</time>
      </trkpt>
      <trkpt lat="46.16017" lon="-1.15021">
        <ele>6.4</ele>
        <time>2025-07-01T11:37:04Z</time>
      </trkpt>
      <trkpt lat="46.16012" lon="-1.15031">
        <ele>5.6</ele>
        <time>2025-07-01T11:38:03Z</time>
      </trkpt>
      <trkpt lat="46.16012" lon="-1.15031">
        <ele>5.6</ele>
        <time>2025-07-01T11:38:04Z</time>
      </trkpt>
      <trkpt lat="46.16011" lon="-1.15032">
        <ele>5.6</ele>
        <time>2025-07-01T11:38:08Z</time>
      </trkpt>
      <trkpt lat="46.16006" lon="-1.15035">
        <ele>5.4</ele>
        <time>2025-07-01T11:38:12Z</time>
      </trkpt>
      <trkpt lat="46.15997" lon="-1.15043">
        <ele>5.8</ele>
        <time>2025-07-01T11:38:18Z</time>
      </trkpt>
      <trkpt lat="46.15996" lon="-1.15047">
        <ele>5.8</ele>
        <time>2025-07-01T11:38:21Z</time>
      </trkpt>
      <trkpt lat="46.15995" lon="-1.1505">
        <ele>5.8</ele>
        <time>2025-07-01T11:38:23Z</time>
      </trkpt>
      <trkpt lat="46.15994" lon="-1.15051">
        <ele>6.2</ele>
        <time>2025-07-01T11:38:25Z</time>
      </trkpt>
      <trkpt lat="46.15993" lon="-1.15053">
        <ele>6.4</ele>
        <time>2025-07-01T11:38:27Z</time>
      </trkpt>
      <trkpt lat="46.15988" lon="-1.15054">
        <ele>5.8</ele>
        <time>2025-07-01T11:38:32Z</time>
      </trkpt>
      <trkpt lat="46.15986" lon="-1.15053">
        <ele>5.8</ele>
        <time>2025-07-01T11:38:35Z</time>
      </trkpt>
      <trkpt lat="46.15982" lon="-1.15057">
        <ele>6</ele>
        <time>2025-07-01T11:38:39Z</time>
      </trkpt>
      <trkpt lat="46.15979" lon="-1.15062">
        <ele>6.6</ele>
        <time>2025-07-01T11:38:45Z</time>
      </trkpt>
      <trkpt lat="46.15978" lon="-1.15062">
        <ele>6.8</ele>
        <time>2025-07-01T11:38:46Z</time>
      </trkpt>
      <trkpt lat="46.15973" lon="-1.15063">
        <ele>6.6</ele>
        <time>2025-07-01T11:38:49Z</time>
      </trkpt>
      <trkpt lat="46.15972" lon="-1.15064">
        <ele>6.6</ele>
        <time>2025-07-01T11:38:50Z</time>
      </trkpt>
      <trkpt lat="46.15967" lon="-1.15067">
        <ele>6.2</ele>
        <time>2025-07-01T11:38:55Z</time>
      </trkpt>
      <trkpt lat="46.15967" lon="-1.15069">
        <ele>6.4</ele>
        <time>2025-07-01T11:38:57Z</time>
      </trkpt>
      <trkpt lat="46.15967" lon="-1.1507">
        <ele>6.4</ele>
        <time>2025-07-01T11:38:58Z</time>
      </trkpt>
      <trkpt lat="46.15964" lon="-1.15078">
        <ele>6.2</ele>
        <time>2025-07-01T11:39:04Z</time>
      </trkpt>
      <trkpt lat="46.15962" lon="-1.15081">
        <ele>6.4</ele>
        <time>2025-07-01T11:39:07Z</time>
      </trkpt>
      <trkpt lat="46.1596" lon="-1.15082">
        <ele>6.4</ele>
        <time>2025-07-01T11:39:09Z</time>
      </trkpt>
      <trkpt lat="46.15957" lon="-1.15084">
        <ele>6.4</ele>
        <time>2025-07-01T11:39:11Z</time>
      </trkpt>
      <trkpt lat="46.15954" lon="-1.15087">
        <ele>6.4</ele>
        <time>2025-07-01T11:39:14Z</time>
      </trkpt>
      <trkpt lat="46.15975" lon="-1.15097">
        <ele>5.6</ele>
        <time>2025-07-01T11:39:49Z</time>
      </trkpt>
      <trkpt lat="46.15966" lon="-1.15099">
        <ele>5.6</ele>
        <time>2025-07-01T11:39:51Z</time>
      </trkpt>
      <trkpt lat="46.15963" lon="-1.15098">
        <ele>5.6</ele>
        <time>2025-07-01T11:39:52Z</time>
      </trkpt>
      <trkpt lat="46.15961" lon="-1.15099">
        <ele>5.6</ele>
        <time>2025-07-01T11:39:53Z</time>
      </trkpt>
      <trkpt lat="46.1596" lon="-1.15101">
        <ele>5.8</ele>
        <time>2025-07-01T11:39:55Z</time>
      </trkpt>
      <trkpt lat="46.15959" lon="-1.15105">
        <ele>5.8</ele>
        <time>2025-07-01T11:39:57Z</time>
      </trkpt>
      <trkpt lat="46.15957" lon="-1.15109">
        <ele>6</ele>
        <time>2025-07-01T11:39:59Z</time>
      </trkpt>
      <trkpt lat="46.15957" lon="-1.15111">
        <ele>6.2</ele>
        <time>2025-07-01T11:40:00Z</time>
      </trkpt>
      <trkpt lat="46.15955" lon="-1.15112">
        <ele>6</ele>
        <time>2025-07-01T11:40:02Z</time>
      </trkpt>
      <trkpt lat="46.15952" lon="-1.15113">
        <ele>6</ele>
        <time>2025-07-01T11:40:04Z</time>
      </trkpt>
      <trkpt lat="46.15948" lon="-1.15114">
        <ele>6</ele>
        <time>2025-07-01T11:40:07Z</time>
      </trkpt>
      <trkpt lat="46.15946" lon="-1.15114">
        <ele>6.2</ele>
        <time>2025-07-01T11:40:08Z</time>
      </trkpt>
      <trkpt lat="46.15943" lon="-1.15115">
        <ele>6.4</ele>
        <time>2025-07-01T11:40:11Z</time>
      </trkpt>
      <trkpt lat="46.15943" lon="-1.15117">
        <ele>6.4</ele>
        <time>2025-07-01T11:40:13Z</time>
      </trkpt>
      <trkpt lat="46.15942" lon="-1.15118">
        <ele>6.4</ele>
        <time>2025-07-01T11:40:14Z</time>
      </trkpt>
      <trkpt lat="46.15942" lon="-1.15121">
        <ele>6.4</ele>
        <time>2025-07-01T11:40:15Z</time>
      </trkpt>
      <trkpt lat="46.15941" lon="-1.15123">
        <ele>6.4</ele>
        <time>2025-07-01T11:40:17Z</time>
      </trkpt>
      <trkpt lat="46.15938" lon="-1.15125">
        <ele>6.8</ele>
        <time>2025-07-01T11:40:20Z</time>
      </trkpt>
      <trkpt lat="46.15935" lon="-1.15127">
        <ele>7</ele>
        <time>2025-07-01T11:40:23Z</time>
      </trkpt>
      <trkpt lat="46.15927" lon="-1.15132">
        <ele>6.8</ele>
        <time>2025-07-01T11:40:30Z</time>
      </trkpt>
      <trkpt lat="46.15927" lon="-1.15133">
        <ele>6.8</ele>
        <time>2025-07-01T11:40:31Z</time>
      </trkpt>
      <trkpt lat="46.15925" lon="-1.15132">
        <ele>6.6</ele>
        <time>2025-07-01T11:40:34Z</time>
      </trkpt>
      <trkpt lat="46.15927" lon="-1.15133">
        <ele>6.4</ele>
        <time>2025-07-01T11:41:08Z</time>
      </trkpt>
      <trkpt lat="46.15927" lon="-1.15134">
        <ele>6.4</ele>
        <time>2025-07-01T11:41:09Z</time>
      </trkpt>
      <trkpt lat="46.15924" lon="-1.15138">
        <ele>6.6</ele>
        <time>2025-07-01T11:41:12Z</time>
      </trkpt>
      <trkpt lat="46.15918" lon="-1.15149">
        <ele>6.4</ele>
        <time>2025-07-01T11:41:18Z</time>
      </trkpt>
      <trkpt lat="46.15913" lon="-1.1516">
        <ele>6.6</ele>
        <time>2025-07-01T11:41:26Z</time>
      </trkpt>
      <trkpt lat="46.15912" lon="-1.15164">
        <ele>6.4</ele>
        <time>2025-07-01T11:41:29Z</time>
      </trkpt>
      <trkpt lat="46.15909" lon="-1.15167">
        <ele>6.4</ele>
        <time>2025-07-01T11:41:31Z</time>
      </trkpt>
      <trkpt lat="46.15908" lon="-1.15168">
        <ele>6.6</ele>
        <time>2025-07-01T11:41:32Z</time>
      </trkpt>
      <trkpt lat="46.15905" lon="-1.1517">
        <ele>6.6</ele>
        <time>2025-07-01T11:41:34Z</time>
      </trkpt>
      <trkpt lat="46.15904" lon="-1.15171">
        <ele>6.6</ele>
        <time>2025-07-01T11:41:36Z</time>
      </trkpt>
      <trkpt lat="46.15904" lon="-1.15173">
        <ele>6.6</ele>
        <time>2025-07-01T11:41:38Z</time>
      </trkpt>
      <trkpt lat="46.15907" lon="-1.15175">
        <ele>6.6</ele>
        <time>2025-07-01T11:41:43Z</time>
      </trkpt>
      <trkpt lat="46.15915" lon="-1.1517">
        <ele>6.4</ele>
        <time>2025-07-01T11:41:51Z</time>
      </trkpt>
      <trkpt lat="46.15919" lon="-1.15167">
        <ele>6.4</ele>
        <time>2025-07-01T11:41:56Z</time>
      </trkpt>
      <trkpt lat="46.15929" lon="-1.15167">
        <ele>6.6</ele>
        <time>2025-07-01T11:42:02Z</time>
      </trkpt>
      <trkpt lat="46.15929" lon="-1.15166">
        <ele>6.8</ele>
        <time>2025-07-01T11:42:03Z</time>
      </trkpt>
      <trkpt lat="46.15931" lon="-1.15165">
        <ele>6.8</ele>
        <time>2025-07-01T11:42:05Z</time>
      </trkpt>
      <trkpt lat="46.15937" lon="-1.15164">
        <ele>6.6</ele>
        <time>2025-07-01T11:42:11Z</time>
      </trkpt>
      <trkpt lat="46.15936" lon="-1.15163">
        <ele>6.4</ele>
        <time>2025-07-01T11:42:12Z</time>
      </trkpt>
      <trkpt lat="46.15937" lon="-1.15162">
        <ele>6.4</ele>
        <time>2025-07-01T11:42:13Z</time>
      </trkpt>
      <trkpt lat="46.1594" lon="-1.15163">
        <ele>6.4</ele>
        <time>2025-07-01T11:42:16Z</time>
      </trkpt>
      <trkpt lat="46.15946" lon="-1.15161">
        <ele>6.4</ele>
        <time>2025-07-01T11:42:20Z</time>
      </trkpt>
      <trkpt lat="46.15949" lon="-1.1516">
        <ele>6.4</ele>
        <time>2025-07-01T11:42:22Z</time>
      </trkpt>
      <trkpt lat="46.15951" lon="-1.15158">
        <ele>6.6</ele>
        <time>2025-07-01T11:42:24Z</time>
      </trkpt>
      <trkpt lat="46.15953" lon="-1.15158">
        <ele>6.6</ele>
        <time>2025-07-01T11:42:25Z</time>
      </trkpt>
      <trkpt lat="46.15956" lon="-1.15158">
        <ele>6.8</ele>
        <time>2025-07-01T11:42:28Z</time>
      </trkpt>
      <trkpt lat="46.15961" lon="-1.15159">
        <ele>6.8</ele>
        <time>2025-07-01T11:42:31Z</time>
      </trkpt>
      <trkpt lat="46.15968" lon="-1.15164">
        <ele>6.8</ele>
        <time>2025-07-01T11:42:34Z</time>
      </trkpt>
      <trkpt lat="46.15974" lon="-1.15171">
        <ele>6.8</ele>
        <time>2025-07-01T11:42:40Z</time>
      </trkpt>
      <trkpt lat="46.15975" lon="-1.15171">
        <ele>7</ele>
        <time>2025-07-01T11:42:44Z</time>
      </trkpt>
      <trkpt lat="46.15978" lon="-1.1517">
        <ele>7.2</ele>
        <time>2025-07-01T11:42:47Z</time>
      </trkpt>
      <trkpt lat="46.15988" lon="-1.15164">
        <ele>5.6</ele>
        <time>2025-07-01T11:44:30Z</time>
      </trkpt>
      <trkpt lat="46.15988" lon="-1.15164">
        <ele>7.2</ele>
        <time>2025-07-01T11:44:31Z</time>
      </trkpt>
      <trkpt lat="46.15985" lon="-1.15158">
        <ele>7.4</ele>
        <time>2025-07-01T11:44:40Z</time>
      </trkpt>
      <trkpt lat="46.15979" lon="-1.15151">
        <ele>7.2</ele>
        <time>2025-07-01T11:44:45Z</time>
      </trkpt>
      <trkpt lat="46.15978" lon="-1.15148">
        <ele>6.8</ele>
        <time>2025-07-01T11:44:48Z</time>
      </trkpt>
      <trkpt lat="46.15975" lon="-1.15145">
        <ele>6.8</ele>
        <time>2025-07-01T11:44:51Z</time>
      </trkpt>
      <trkpt lat="46.15974" lon="-1.15144">
        <ele>6.8</ele>
        <time>2025-07-01T11:44:53Z</time>
      </trkpt>
      <trkpt lat="46.15974" lon="-1.15144">
        <ele>6.6</ele>
        <time>2025-07-01T11:44:56Z</time>
      </trkpt>
      <trkpt lat="46.15975" lon="-1.15144">
        <ele>6.6</ele>
        <time>2025-07-01T11:44:57Z</time>
      </trkpt>
      <trkpt lat="46.15975" lon="-1.15144">
        <ele>6.8</ele>
        <time>2025-07-01T11:44:58Z</time>
      </trkpt>
      <trkpt lat="46.15977" lon="-1.15141">
        <ele>7</ele>
        <time>2025-07-01T11:45:03Z</time>
      </trkpt>
      <trkpt lat="46.15975" lon="-1.15141">
        <ele>6.6</ele>
        <time>2025-07-01T11:45:10Z</time>
      </trkpt>
      <trkpt lat="46.15973" lon="-1.15144">
        <ele>6.4</ele>
        <time>2025-07-01T11:45:15Z</time>
      </trkpt>
      <trkpt lat="46.15972" lon="-1.15145">
        <ele>6.4</ele>
        <time>2025-07-01T11:45:17Z</time>
      </trkpt>
      <trkpt lat="46.15971" lon="-1.15145">
        <ele>6.4</ele>
        <time>2025-07-01T11:45:19Z</time>
      </trkpt>
      <trkpt lat="46.15966" lon="-1.1514">
        <ele>6.4</ele>
        <time>2025-07-01T11:46:32Z</time>
      </trkpt>
      <trkpt lat="46.15966" lon="-1.1514">
        <ele>6.4</ele>
        <time>2025-07-01T11:46:34Z</time>
      </trkpt>
      <trkpt lat="46.15967" lon="-1.1514">
        <ele>6.4</ele>
        <time>2025-07-01T11:46:36Z</time>
      </trkpt>
      <trkpt lat="46.15975" lon="-1.15143">
        <ele>6.2</ele>
        <time>2025-07-01T11:46:46Z</time>
      </trkpt>
      <trkpt lat="46.15986" lon="-1.15144">
        <ele>6.2</ele>
        <time>2025-07-01T11:46:51Z</time>
      </trkpt>
      <trkpt lat="46.1599" lon="-1.15142">
        <ele>6.2</ele>
        <time>2025-07-01T11:46:54Z</time>
      </trkpt>
      <trkpt lat="46.1599" lon="-1.1514">
        <ele>6.2</ele>
        <time>2025-07-01T11:46:55Z</time>
      </trkpt>
      <trkpt lat="46.15989" lon="-1.15139">
        <ele>6.2</ele>
        <time>2025-07-01T11:46:56Z</time>
      </trkpt>
      <trkpt lat="46.15987" lon="-1.15134">
        <ele>6.2</ele>
        <time>2025-07-01T11:46:59Z</time>
      </trkpt>
      <trkpt lat="46.15987" lon="-1.15132">
        <ele>6.2</ele>
        <time>2025-07-01T11:47:00Z</time>
      </trkpt>
      <trkpt lat="46.15988" lon="-1.1513">
        <ele>6.2</ele>
        <time>2025-07-01T11:47:01Z</time>
      </trkpt>
      <trkpt lat="46.1599" lon="-1.15126">
        <ele>6.2</ele>
        <time>2025-07-01T11:47:03Z</time>
      </trkpt>
      <trkpt lat="46.15989" lon="-1.15122">
        <ele>5.8</ele>
        <time>2025-07-01T11:47:06Z</time>
      </trkpt>
      <trkpt lat="46.15984" lon="-1.15112">
        <ele>6.2</ele>
        <time>2025-07-01T11:47:13Z</time>
      </trkpt>
      <trkpt lat="46.15983" lon="-1.15109">
        <ele>6</ele>
        <time>2025-07-01T11:47:15Z</time>
      </trkpt>
      <trkpt lat="46.15982" lon="-1.15106">
        <ele>5.6</ele>
        <time>2025-07-01T11:47:17Z</time>
      </trkpt>
      <trkpt lat="46.15981" lon="-1.15104">
        <ele>5.6</ele>
        <time>2025-07-01T11:47:18Z</time>
      </trkpt>
      <trkpt lat="46.15981" lon="-1.15101">
        <ele>5.4</ele>
        <time>2025-07-01T11:47:20Z</time>
      </trkpt>
      <trkpt lat="46.15981" lon="-1.15099">
        <ele>5.4</ele>
        <time>2025-07-01T11:47:23Z</time>
      </trkpt>
      <trkpt lat="46.15977" lon="-1.15093">
        <ele>5.4</ele>
        <time>2025-07-01T11:47:28Z</time>
      </trkpt>
      <trkpt lat="46.15977" lon="-1.15092">
        <ele>5.4</ele>
        <time>2025-07-01T11:47:29Z</time>
      </trkpt>
      <trkpt lat="46.15975" lon="-1.15089">
        <ele>5.6</ele>
        <time>2025-07-01T11:47:32Z</time>
      </trkpt>
      <trkpt lat="46.15974" lon="-1.15087">
        <ele>5.6</ele>
        <time>2025-07-01T11:47:33Z</time>
      </trkpt>
      <trkpt lat="46.15973" lon="-1.15085">
        <ele>5.6</ele>
        <time>2025-07-01T11:47:35Z</time>
      </trkpt>
      <trkpt lat="46.15972" lon="-1.15081">
        <ele>5.4</ele>
        <time>2025-07-01T11:47:37Z</time>
      </trkpt>
      <trkpt lat="46.15971" lon="-1.1508">
        <ele>5.4</ele>
        <time>2025-07-01T11:47:38Z</time>
      </trkpt>
      <trkpt lat="46.15971" lon="-1.15079">
        <ele>5.2</ele>
        <time>2025-07-01T11:47:39Z</time>
      </trkpt>
      <trkpt lat="46.15971" lon="-1.15077">
        <ele>5.2</ele>
        <time>2025-07-01T11:47:41Z</time>
      </trkpt>
      <trkpt lat="46.15971" lon="-1.15076">
        <ele>5</ele>
        <time>2025-07-01T11:47:42Z</time>
      </trkpt>
      <trkpt lat="46.15972" lon="-1.15075">
        <ele>5</ele>
        <time>2025-07-01T11:47:43Z</time>
      </trkpt>
      <trkpt lat="46.15975" lon="-1.15073">
        <ele>5</ele>
        <time>2025-07-01T11:47:46Z</time>
      </trkpt>
      <trkpt lat="46.15985" lon="-1.15071">
        <ele>4.8</ele>
        <time>2025-07-01T11:47:54Z</time>
      </trkpt>
      <trkpt lat="46.15985" lon="-1.15071">
        <ele>4.8</ele>
        <time>2025-07-01T11:47:55Z</time>
      </trkpt>
      <trkpt lat="46.15986" lon="-1.15072">
        <ele>5</ele>
        <time>2025-07-01T11:47:56Z</time>
      </trkpt>
      <trkpt lat="46.15986" lon="-1.15071">
        <ele>5</ele>
        <time>2025-07-01T11:47:57Z</time>
      </trkpt>
      <trkpt lat="46.15987" lon="-1.15068">
        <ele>4.8</ele>
        <time>2025-07-01T11:48:01Z</time>
      </trkpt>
      <trkpt lat="46.15987" lon="-1.15066">
        <ele>4.8</ele>
        <time>2025-07-01T11:48:03Z</time>
      </trkpt>
      <trkpt lat="46.1599" lon="-1.15058">
        <ele>5.8</ele>
        <time>2025-07-01T11:48:07Z</time>
      </trkpt>
      <trkpt lat="46.15996" lon="-1.15054">
        <ele>6</ele>
        <time>2025-07-01T11:48:11Z</time>
      </trkpt>
      <trkpt lat="46.15996" lon="-1.15054">
        <ele>6</ele>
        <time>2025-07-01T11:48:12Z</time>
      </trkpt>
      <trkpt lat="46.15995" lon="-1.15053">
        <ele>6</ele>
        <time>2025-07-01T11:48:15Z</time>
      </trkpt>
      <trkpt lat="46.15995" lon="-1.15053">
        <ele>6</ele>
        <time>2025-07-01T11:48:16Z</time>
      </trkpt>
      <trkpt lat="46.16002" lon="-1.15054">
        <ele>6.2</ele>
        <time>2025-07-01T11:48:19Z</time>
      </trkpt>
      <trkpt lat="46.15996" lon="-1.15057">
        <ele>6</ele>
        <time>2025-07-01T11:48:23Z</time>
      </trkpt>
      <trkpt lat="46.15996" lon="-1.15055">
        <ele>6.2</ele>
        <time>2025-07-01T11:48:27Z</time>
      </trkpt>
      <trkpt lat="46.16" lon="-1.15055">
        <ele>6.4</ele>
        <time>2025-07-01T11:48:31Z</time>
      </trkpt>
      <trkpt lat="46.16013" lon="-1.1505">
        <ele>6.4</ele>
        <time>2025-07-01T11:48:36Z</time>
      </trkpt>
      <trkpt lat="46.16019" lon="-1.15049">
        <ele>6.4</ele>
        <time>2025-07-01T11:48:38Z</time>
      </trkpt>
      <trkpt lat="46.16027" lon="-1.15046">
        <ele>6.2</ele>
        <time>2025-07-01T11:48:42Z</time>
      </trkpt>
      <trkpt lat="46.16028" lon="-1.15044">
        <ele>6.2</ele>
        <time>2025-07-01T11:48:43Z</time>
      </trkpt>
      <trkpt lat="46.16032" lon="-1.15037">
        <ele>6.2</ele>
        <time>2025-07-01T11:48:46Z</time>
      </trkpt>
      <trkpt lat="46.16034" lon="-1.15034">
        <ele>6.2</ele>
        <time>2025-07-01T11:48:48Z</time>
      </trkpt>
      <trkpt lat="46.16036" lon="-1.15031">
        <ele>6.4</ele>
        <time>2025-07-01T11:48:49Z</time>
      </trkpt>
      <trkpt lat="46.16037" lon="-1.1503">
        <ele>6.4</ele>
        <time>2025-07-01T11:48:50Z</time>
      </trkpt>
      <trkpt lat="46.16044" lon="-1.15029">
        <ele>6.4</ele>
        <time>2025-07-01T11:48:54Z</time>
      </trkpt>
      <trkpt lat="46.16049" lon="-1.15028">
        <ele>6.6</ele>
        <time>2025-07-01T11:48:58Z</time>
      </trkpt>
      <trkpt lat="46.16045" lon="-1.15027">
        <ele>6.6</ele>
        <time>2025-07-01T11:49:00Z</time>
      </trkpt>
      <trkpt lat="46.16045" lon="-1.15022">
        <ele>6.6</ele>
        <time>2025-07-01T11:49:03Z</time>
      </trkpt>
      <trkpt lat="46.16054" lon="-1.15013">
        <ele>6.8</ele>
        <time>2025-07-01T11:49:10Z</time>
      </trkpt>
      <trkpt lat="46.16057" lon="-1.15014">
        <ele>7</ele>
        <time>2025-07-01T11:49:13Z</time>
      </trkpt>
      <trkpt lat="46.16061" lon="-1.15016">
        <ele>7</ele>
        <time>2025-07-01T11:49:15Z</time>
      </trkpt>
      <trkpt lat="46.16062" lon="-1.15018">
        <ele>7</ele>
        <time>2025-07-01T11:49:18Z</time>
      </trkpt>
      <trkpt lat="46.16062" lon="-1.15018">
        <ele>7.2</ele>
        <time>2025-07-01T11:49:19Z</time>
      </trkpt>
      <trkpt lat="46.16061" lon="-1.15017">
        <ele>7.2</ele>
        <time>2025-07-01T11:49:20Z</time>
      </trkpt>
      <trkpt lat="46.16063" lon="-1.15014">
        <ele>7.8</ele>
        <time>2025-07-01T11:49:23Z</time>
      </trkpt>
      <trkpt lat="46.16065" lon="-1.15014">
        <ele>7.8</ele>
        <time>2025-07-01T11:49:24Z</time>
      </trkpt>
      <trkpt lat="46.16067" lon="-1.15014">
        <ele>7.8</ele>
        <time>2025-07-01T11:49:26Z</time>
      </trkpt>
      <trkpt lat="46.16068" lon="-1.15014">
        <ele>8</ele>
        <time>2025-07-01T11:49:27Z</time>
      </trkpt>
      <trkpt lat="46.16067" lon="-1.15015">
        <ele>7.8</ele>
        <time>2025-07-01T11:49:28Z</time>
      </trkpt>
      <trkpt lat="46.16067" lon="-1.15017">
        <ele>7.8</ele>
        <time>2025-07-01T11:49:29Z</time>
      </trkpt>
      <trkpt lat="46.16066" lon="-1.15019">
        <ele>7.6</ele>
        <time>2025-07-01T11:49:31Z</time>
      </trkpt>
      <trkpt lat="46.16071" lon="-1.15017">
        <ele>7.6</ele>
        <time>2025-07-01T11:49:35Z</time>
      </trkpt>
      <trkpt lat="46.16072" lon="-1.15012">
        <ele>7.6</ele>
        <time>2025-07-01T11:49:37Z</time>
      </trkpt>
      <trkpt lat="46.16071" lon="-1.1501">
        <ele>7.8</ele>
        <time>2025-07-01T11:49:43Z</time>
      </trkpt>
      <trkpt lat="46.16069" lon="-1.15011">
        <ele>7.8</ele>
        <time>2025-07-01T11:49:44Z</time>
      </trkpt>
      <trkpt lat="46.16064" lon="-1.15018">
        <ele>8</ele>
        <time>2025-07-01T11:49:48Z</time>
      </trkpt>
      <trkpt lat="46.16059" lon="-1.15032">
        <ele>8</ele>
        <time>2025-07-01T11:49:53Z</time>
      </trkpt>
      <trkpt lat="46.16067" lon="-1.15029">
        <ele>8.2</ele>
        <time>2025-07-01T11:49:57Z</time>
      </trkpt>
      <trkpt lat="46.16066" lon="-1.1503">
        <ele>8.2</ele>
        <time>2025-07-01T11:49:58Z</time>
      </trkpt>
      <trkpt lat="46.16077" lon="-1.15024">
        <ele>8.2</ele>
        <time>2025-07-01T11:50:01Z</time>
      </trkpt>
      <trkpt lat="46.16084" lon="-1.15021">
        <ele>8.2</ele>
        <time>2025-07-01T11:50:02Z</time>
      </trkpt>
      <trkpt lat="46.16094" lon="-1.15015">
        <ele>8.2</ele>
        <time>2025-07-01T11:50:04Z</time>
      </trkpt>
      <trkpt lat="46.16096" lon="-1.15012">
        <ele>8.2</ele>
        <time>2025-07-01T11:50:05Z</time>
      </trkpt>
      <trkpt lat="46.16101" lon="-1.15008">
        <ele>8.2</ele>
        <time>2025-07-01T11:50:07Z</time>
      </trkpt>
      <trkpt lat="46.16109" lon="-1.15002">
        <ele>8.8</ele>
        <time>2025-07-01T11:50:09Z</time>
      </trkpt>
      <trkpt lat="46.16117" lon="-1.14995">
        <ele>9</ele>
        <time>2025-07-01T11:50:14Z</time>
      </trkpt>
      <trkpt lat="46.16119" lon="-1.14994">
        <ele>8.8</ele>
        <time>2025-07-01T11:50:15Z</time>
      </trkpt>
      <trkpt lat="46.16125" lon="-1.14992">
        <ele>8.6</ele>
        <time>2025-07-01T11:50:20Z</time>
      </trkpt>
      <trkpt lat="46.16128" lon="-1.14989">
        <ele>8.4</ele>
        <time>2025-07-01T11:50:24Z</time>
      </trkpt>
      <trkpt lat="46.16129" lon="-1.14988">
        <ele>8.4</ele>
        <time>2025-07-01T11:50:25Z</time>
      </trkpt>
      <trkpt lat="46.16135" lon="-1.14986">
        <ele>8.6</ele>
        <time>2025-07-01T11:50:28Z</time>
      </trkpt>
      <trkpt lat="46.16139" lon="-1.14981">
        <ele>8.6</ele>
        <time>2025-07-01T11:50:31Z</time>
      </trkpt>
      <trkpt lat="46.16141" lon="-1.14982">
        <ele>8.6</ele>
        <time>2025-07-01T11:50:34Z</time>
      </trkpt>
      <trkpt lat="46.16145" lon="-1.14979">
        <ele>8.8</ele>
        <time>2025-07-01T11:50:37Z</time>
      </trkpt>
      <trkpt lat="46.16149" lon="-1.14976">
        <ele>9</ele>
        <time>2025-07-01T11:50:40Z</time>
      </trkpt>
      <trkpt lat="46.16157" lon="-1.14967">
        <ele>9</ele>
        <time>2025-07-01T11:50:46Z</time>
      </trkpt>
      <trkpt lat="46.16159" lon="-1.14966">
        <ele>9.2</ele>
        <time>2025-07-01T11:50:47Z</time>
      </trkpt>
      <trkpt lat="46.16161" lon="-1.14964">
        <ele>9.2</ele>
        <time>2025-07-01T11:50:49Z</time>
      </trkpt>
      <trkpt lat="46.16167" lon="-1.1496">
        <ele>9.2</ele>
        <time>2025-07-01T11:50:53Z</time>
      </trkpt>
      <trkpt lat="46.16169" lon="-1.14959">
        <ele>9.2</ele>
        <time>2025-07-01T11:50:55Z</time>
      </trkpt>
      <trkpt lat="46.16171" lon="-1.14962">
        <ele>9.2</ele>
        <time>2025-07-01T11:50:56Z</time>
      </trkpt>
      <trkpt lat="46.16174" lon="-1.1497">
        <ele>9.2</ele>
        <time>2025-07-01T11:51:00Z</time>
      </trkpt>
      <trkpt lat="46.16175" lon="-1.14975">
        <ele>9.2</ele>
        <time>2025-07-01T11:51:03Z</time>
      </trkpt>
      <trkpt lat="46.16175" lon="-1.1498">
        <ele>9.2</ele>
        <time>2025-07-01T11:51:05Z</time>
      </trkpt>
      <trkpt lat="46.1618" lon="-1.14987">
        <ele>9.2</ele>
        <time>2025-07-01T11:51:11Z</time>
      </trkpt>
      <trkpt lat="46.16183" lon="-1.14984">
        <ele>9.4</ele>
        <time>2025-07-01T11:51:18Z</time>
      </trkpt>
      <trkpt lat="46.16184" lon="-1.14983">
        <ele>9.4</ele>
        <time>2025-07-01T11:51:20Z</time>
      </trkpt>
      <trkpt lat="46.16188" lon="-1.14983">
        <ele>9.4</ele>
        <time>2025-07-01T11:51:24Z</time>
      </trkpt>
      <trkpt lat="46.16193" lon="-1.1498">
        <ele>9.2</ele>
        <time>2025-07-01T11:51:29Z</time>
      </trkpt>
      <trkpt lat="46.16196" lon="-1.14979">
        <ele>9.2</ele>
        <time>2025-07-01T11:51:31Z</time>
      </trkpt>
      <trkpt lat="46.16198" lon="-1.14979">
        <ele>9.2</ele>
        <time>2025-07-01T11:51:32Z</time>
      </trkpt>
      <trkpt lat="46.16202" lon="-1.14976">
        <ele>9.4</ele>
        <time>2025-07-01T11:51:37Z</time>
      </trkpt>
      <trkpt lat="46.16203" lon="-1.14975">
        <ele>9.4</ele>
        <time>2025-07-01T11:51:38Z</time>
      </trkpt>
      <trkpt lat="46.16204" lon="-1.14974">
        <ele>9.4</ele>
        <time>2025-07-01T11:51:40Z</time>
      </trkpt>
      <trkpt lat="46.16206" lon="-1.14973">
        <ele>9.4</ele>
        <time>2025-07-01T11:51:42Z</time>
      </trkpt>
      <trkpt lat="46.16208" lon="-1.14971">
        <ele>9.4</ele>
        <time>2025-07-01T11:51:44Z</time>
      </trkpt>
      <trkpt lat="46.16211" lon="-1.14969">
        <ele>9.6</ele>
        <time>2025-07-01T11:51:47Z</time>
      </trkpt>
      <trkpt lat="46.16213" lon="-1.14965">
        <ele>9.6</ele>
        <time>2025-07-01T11:51:50Z</time>
      </trkpt>
      <trkpt lat="46.16214" lon="-1.14963">
        <ele>9.6</ele>
        <time>2025-07-01T11:51:51Z</time>
      </trkpt>
      <trkpt lat="46.16217" lon="-1.14959">
        <ele>9.4</ele>
        <time>2025-07-01T11:51:55Z</time>
      </trkpt>
      <trkpt lat="46.16218" lon="-1.14958">
        <ele>9.4</ele>
        <time>2025-07-01T11:51:56Z</time>
      </trkpt>
      <trkpt lat="46.16219" lon="-1.14956">
        <ele>9.6</ele>
        <time>2025-07-01T11:52:01Z</time>
      </trkpt>
      <trkpt lat="46.16219" lon="-1.14956">
        <ele>9.6</ele>
        <time>2025-07-01T11:52:02Z</time>
      </trkpt>
      <trkpt lat="46.1622" lon="-1.14952">
        <ele>9.4</ele>
        <time>2025-07-01T11:52:06Z</time>
      </trkpt>
      <trkpt lat="46.16223" lon="-1.1495">
        <ele>9.4</ele>
        <time>2025-07-01T11:52:10Z</time>
      </trkpt>
      <trkpt lat="46.16229" lon="-1.14948">
        <ele>9.4</ele>
        <time>2025-07-01T11:52:13Z</time>
      </trkpt>
      <trkpt lat="46.16232" lon="-1.14945">
        <ele>9.4</ele>
        <time>2025-07-01T11:52:16Z</time>
      </trkpt>
      <trkpt lat="46.16241" lon="-1.14943">
        <ele>9.6</ele>
        <time>2025-07-01T11:52:21Z</time>
      </trkpt>
      <trkpt lat="46.16244" lon="-1.14942">
        <ele>9.6</ele>
        <time>2025-07-01T11:52:23Z</time>
      </trkpt>
      <trkpt lat="46.16245" lon="-1.14941">
        <ele>9.4</ele>
        <time>2025-07-01T11:52:25Z</time>
      </trkpt>
      <trkpt lat="46.16247" lon="-1.1494">
        <ele>9.4</ele>
        <time>2025-07-01T11:52:26Z</time>
      </trkpt>
      <trkpt lat="46.16251" lon="-1.14935">
        <ele>9.4</ele>
        <time>2025-07-01T11:52:31Z</time>
      </trkpt>
      <trkpt lat="46.16252" lon="-1.14931">
        <ele>9.2</ele>
        <time>2025-07-01T11:52:36Z</time>
      </trkpt>
      <trkpt lat="46.16251" lon="-1.14926">
        <ele>9.2</ele>
        <time>2025-07-01T11:52:40Z</time>
      </trkpt>
      <trkpt lat="46.16247" lon="-1.14918">
        <ele>9</ele>
        <time>2025-07-01T11:52:46Z</time>
      </trkpt>
      <trkpt lat="46.16247" lon="-1.14917">
        <ele>9</ele>
        <time>2025-07-01T11:52:47Z</time>
      </trkpt>
      <trkpt lat="46.16246" lon="-1.14912">
        <ele>9</ele>
        <time>2025-07-01T11:52:50Z</time>
      </trkpt>
      <trkpt lat="46.16245" lon="-1.14911">
        <ele>9</ele>
        <time>2025-07-01T11:52:51Z</time>
      </trkpt>
      <trkpt lat="46.16243" lon="-1.14908">
        <ele>9.2</ele>
        <time>2025-07-01T11:52:54Z</time>
      </trkpt>
      <trkpt lat="46.16244" lon="-1.14905">
        <ele>9.2</ele>
        <time>2025-07-01T11:52:56Z</time>
      </trkpt>
      <trkpt lat="46.16246" lon="-1.14897">
        <ele>9.2</ele>
        <time>2025-07-01T11:53:00Z</time>
      </trkpt>
      <trkpt lat="46.16245" lon="-1.14892">
        <ele>8.8</ele>
        <time>2025-07-01T11:53:03Z</time>
      </trkpt>
      <trkpt lat="46.16245" lon="-1.14888">
        <ele>8.8</ele>
        <time>2025-07-01T11:53:05Z</time>
      </trkpt>
      <trkpt lat="46.16245" lon="-1.14885">
        <ele>8.8</ele>
        <time>2025-07-01T11:53:07Z</time>
      </trkpt>
      <trkpt lat="46.16248" lon="-1.14881">
        <ele>8.8</ele>
        <time>2025-07-01T11:53:10Z</time>
      </trkpt>
      <trkpt lat="46.1625" lon="-1.14879">
        <ele>8.8</ele>
        <time>2025-07-01T11:53:13Z</time>
      </trkpt>
      <trkpt lat="46.16251" lon="-1.14878">
        <ele>8.8</ele>
        <time>2025-07-01T11:53:14Z</time>
      </trkpt>
      <trkpt lat="46.16258" lon="-1.1487">
        <ele>8.6</ele>
        <time>2025-07-01T11:53:21Z</time>
      </trkpt>
      <trkpt lat="46.16257" lon="-1.14867">
        <ele>8.6</ele>
        <time>2025-07-01T11:53:23Z</time>
      </trkpt>
      <trkpt lat="46.16258" lon="-1.14861">
        <ele>8.6</ele>
        <time>2025-07-01T11:53:26Z</time>
      </trkpt>
      <trkpt lat="46.16261" lon="-1.14857">
        <ele>8.6</ele>
        <time>2025-07-01T11:53:29Z</time>
      </trkpt>
      <trkpt lat="46.16263" lon="-1.14856">
        <ele>9</ele>
        <time>2025-07-01T11:53:30Z</time>
      </trkpt>
      <trkpt lat="46.16263" lon="-1.14855">
        <ele>9.2</ele>
        <time>2025-07-01T11:53:32Z</time>
      </trkpt>
      <trkpt lat="46.16263" lon="-1.14852">
        <ele>9</ele>
        <time>2025-07-01T11:53:35Z</time>
      </trkpt>
      <trkpt lat="46.16262" lon="-1.1485">
        <ele>8.8</ele>
        <time>2025-07-01T11:53:36Z</time>
      </trkpt>
      <trkpt lat="46.16264" lon="-1.14847">
        <ele>8.8</ele>
        <time>2025-07-01T11:53:39Z</time>
      </trkpt>
      <trkpt lat="46.16268" lon="-1.14845">
        <ele>9</ele>
        <time>2025-07-01T11:53:41Z</time>
      </trkpt>
      <trkpt lat="46.16274" lon="-1.14842">
        <ele>9.4</ele>
        <time>2025-07-01T11:53:47Z</time>
      </trkpt>
      <trkpt lat="46.16275" lon="-1.14842">
        <ele>9.4</ele>
        <time>2025-07-01T11:53:48Z</time>
      </trkpt>
      <trkpt lat="46.16282" lon="-1.14838">
        <ele>9.4</ele>
        <time>2025-07-01T11:53:55Z</time>
      </trkpt>
      <trkpt lat="46.16288" lon="-1.14836">
        <ele>9.4</ele>
        <time>2025-07-01T11:54:00Z</time>
      </trkpt>
      <trkpt lat="46.16292" lon="-1.14835">
        <ele>9.4</ele>
        <time>2025-07-01T11:54:02Z</time>
      </trkpt>
      <trkpt lat="46.16297" lon="-1.14833">
        <ele>9.4</ele>
        <time>2025-07-01T11:54:06Z</time>
      </trkpt>
      <trkpt lat="46.16297" lon="-1.14832">
        <ele>9.6</ele>
        <time>2025-07-01T11:54:08Z</time>
      </trkpt>
      <trkpt lat="46.16297" lon="-1.14831">
        <ele>9.6</ele>
        <time>2025-07-01T11:54:09Z</time>
      </trkpt>
      <trkpt lat="46.16297" lon="-1.14824">
        <ele>9.8</ele>
        <time>2025-07-01T11:54:13Z</time>
      </trkpt>
      <trkpt lat="46.16298" lon="-1.14815">
        <ele>10</ele>
        <time>2025-07-01T11:54:18Z</time>
      </trkpt>
      <trkpt lat="46.16299" lon="-1.14813">
        <ele>10</ele>
        <time>2025-07-01T11:54:19Z</time>
      </trkpt>
      <trkpt lat="46.163" lon="-1.14811">
        <ele>10</ele>
        <time>2025-07-01T11:54:20Z</time>
      </trkpt>
      <trkpt lat="46.16302" lon="-1.14807">
        <ele>10</ele>
        <time>2025-07-01T11:54:22Z</time>
      </trkpt>
      <trkpt lat="46.16303" lon="-1.14804">
        <ele>10</ele>
        <time>2025-07-01T11:54:24Z</time>
      </trkpt>
      <trkpt lat="46.16302" lon="-1.148">
        <ele>10</ele>
        <time>2025-07-01T11:54:26Z</time>
      </trkpt>
      <trkpt lat="46.16306" lon="-1.14795">
        <ele>10</ele>
        <time>2025-07-01T11:54:29Z</time>
      </trkpt>
      <trkpt lat="46.16305" lon="-1.14794">
        <ele>10</ele>
        <time>2025-07-01T11:54:30Z</time>
      </trkpt>
      <trkpt lat="46.16304" lon="-1.14789">
        <ele>10.2</ele>
        <time>2025-07-01T11:54:33Z</time>
      </trkpt>
      <trkpt lat="46.16306" lon="-1.14784">
        <ele>10.4</ele>
        <time>2025-07-01T11:54:36Z</time>
      </trkpt>
      <trkpt lat="46.16306" lon="-1.14783">
        <ele>10.4</ele>
        <time>2025-07-01T11:54:37Z</time>
      </trkpt>
      <trkpt lat="46.16307" lon="-1.14782">
        <ele>10.4</ele>
        <time>2025-07-01T11:54:38Z</time>
      </trkpt>
      <trkpt lat="46.16308" lon="-1.14776">
        <ele>10.6</ele>
        <time>2025-07-01T11:54:42Z</time>
      </trkpt>
      <trkpt lat="46.16307" lon="-1.14773">
        <ele>10.6</ele>
        <time>2025-07-01T11:54:44Z</time>
      </trkpt>
      <trkpt lat="46.1631" lon="-1.14768">
        <ele>10.8</ele>
        <time>2025-07-01T11:54:48Z</time>
      </trkpt>
      <trkpt lat="46.16314" lon="-1.14763">
        <ele>10.8</ele>
        <time>2025-07-01T11:54:53Z</time>
      </trkpt>
      <trkpt lat="46.16313" lon="-1.14761">
        <ele>10.8</ele>
        <time>2025-07-01T11:54:54Z</time>
      </trkpt>
      <trkpt lat="46.16311" lon="-1.14755">
        <ele>10.8</ele>
        <time>2025-07-01T11:54:57Z</time>
      </trkpt>
      <trkpt lat="46.1631" lon="-1.14749">
        <ele>10.8</ele>
        <time>2025-07-01T11:55:00Z</time>
      </trkpt>
      <trkpt lat="46.16309" lon="-1.14748">
        <ele>10.8</ele>
        <time>2025-07-01T11:55:01Z</time>
      </trkpt>
      <trkpt lat="46.16309" lon="-1.14746">
        <ele>10.8</ele>
        <time>2025-07-01T11:55:02Z</time>
      </trkpt>
      <trkpt lat="46.16307" lon="-1.14738">
        <ele>10.8</ele>
        <time>2025-07-01T11:55:07Z</time>
      </trkpt>
      <trkpt lat="46.16307" lon="-1.14734">
        <ele>10.8</ele>
        <time>2025-07-01T11:55:09Z</time>
      </trkpt>
      <trkpt lat="46.16304" lon="-1.14729">
        <ele>11</ele>
        <time>2025-07-01T11:55:12Z</time>
      </trkpt>
      <trkpt lat="46.16303" lon="-1.14724">
        <ele>11.2</ele>
        <time>2025-07-01T11:55:15Z</time>
      </trkpt>
      <trkpt lat="46.16302" lon="-1.14717">
        <ele>11.2</ele>
        <time>2025-07-01T11:55:18Z</time>
      </trkpt>
      <trkpt lat="46.16301" lon="-1.14714">
        <ele>11.4</ele>
        <time>2025-07-01T11:55:20Z</time>
      </trkpt>
      <trkpt lat="46.163" lon="-1.14712">
        <ele>11.4</ele>
        <time>2025-07-01T11:55:21Z</time>
      </trkpt>
      <trkpt lat="46.16299" lon="-1.14709">
        <ele>11.4</ele>
        <time>2025-07-01T11:55:23Z</time>
      </trkpt>
      <trkpt lat="46.16297" lon="-1.14707">
        <ele>11.4</ele>
        <time>2025-07-01T11:55:24Z</time>
      </trkpt>
      <trkpt lat="46.16292" lon="-1.14701">
        <ele>11.6</ele>
        <time>2025-07-01T11:55:29Z</time>
      </trkpt>
      <trkpt lat="46.16292" lon="-1.14696">
        <ele>11.8</ele>
        <time>2025-07-01T11:55:32Z</time>
      </trkpt>
      <trkpt lat="46.16289" lon="-1.14692">
        <ele>12</ele>
        <time>2025-07-01T11:55:35Z</time>
      </trkpt>
      <trkpt lat="46.16288" lon="-1.1469">
        <ele>12</ele>
        <time>2025-07-01T11:55:36Z</time>
      </trkpt>
      <trkpt lat="46.1629" lon="-1.14685">
        <ele>12</ele>
        <time>2025-07-01T11:55:39Z</time>
      </trkpt>
      <trkpt lat="46.16291" lon="-1.14683">
        <ele>12</ele>
        <time>2025-07-01T11:55:40Z</time>
      </trkpt>
      <trkpt lat="46.16296" lon="-1.14674">
        <ele>12</ele>
        <time>2025-07-01T11:55:47Z</time>
      </trkpt>
      <trkpt lat="46.163" lon="-1.14669">
        <ele>12.2</ele>
        <time>2025-07-01T11:55:50Z</time>
      </trkpt>
      <trkpt lat="46.163" lon="-1.14666">
        <ele>12.2</ele>
        <time>2025-07-01T11:55:52Z</time>
      </trkpt>
      <trkpt lat="46.16301" lon="-1.14665">
        <ele>12.2</ele>
        <time>2025-07-01T11:55:53Z</time>
      </trkpt>
      <trkpt lat="46.16302" lon="-1.14661">
        <ele>12.4</ele>
        <time>2025-07-01T11:55:55Z</time>
      </trkpt>
      <trkpt lat="46.16306" lon="-1.14653">
        <ele>12.4</ele>
        <time>2025-07-01T11:56:01Z</time>
      </trkpt>
      <trkpt lat="46.16306" lon="-1.14651">
        <ele>12.6</ele>
        <time>2025-07-01T11:56:03Z</time>
      </trkpt>
      <trkpt lat="46.16308" lon="-1.14647">
        <ele>12.6</ele>
        <time>2025-07-01T11:56:06Z</time>
      </trkpt>
      <trkpt lat="46.16311" lon="-1.14649">
        <ele>12.8</ele>
        <time>2025-07-01T11:56:09Z</time>
      </trkpt>
      <trkpt lat="46.16312" lon="-1.14648">
        <ele>12.8</ele>
        <time>2025-07-01T11:56:10Z</time>
      </trkpt>
      <trkpt lat="46.16317" lon="-1.14647">
        <ele>13</ele>
        <time>2025-07-01T11:56:13Z</time>
      </trkpt>
      <trkpt lat="46.1632" lon="-1.14646">
        <ele>13</ele>
        <time>2025-07-01T11:56:15Z</time>
      </trkpt>
      <trkpt lat="46.16321" lon="-1.14645">
        <ele>13.2</ele>
        <time>2025-07-01T11:56:16Z</time>
      </trkpt>
      <trkpt lat="46.16323" lon="-1.14643">
        <ele>13.4</ele>
        <time>2025-07-01T11:56:18Z</time>
      </trkpt>
      <trkpt lat="46.16326" lon="-1.14641">
        <ele>13.4</ele>
        <time>2025-07-01T11:56:20Z</time>
      </trkpt>
      <trkpt lat="46.16329" lon="-1.14638">
        <ele>13.4</ele>
        <time>2025-07-01T11:56:22Z</time>
      </trkpt>
      <trkpt lat="46.1633" lon="-1.14637">
        <ele>13.4</ele>
        <time>2025-07-01T11:56:23Z</time>
      </trkpt>
      <trkpt lat="46.16329" lon="-1.14635">
        <ele>13.6</ele>
        <time>2025-07-01T11:56:25Z</time>
      </trkpt>
      <trkpt lat="46.16329" lon="-1.14634">
        <ele>13.6</ele>
        <time>2025-07-01T11:56:26Z</time>
      </trkpt>
      <trkpt lat="46.16329" lon="-1.14633">
        <ele>13.6</ele>
        <time>2025-07-01T11:56:27Z</time>
      </trkpt>
      <trkpt lat="46.16332" lon="-1.14632">
        <ele>13.8</ele>
        <time>2025-07-01T11:56:29Z</time>
      </trkpt>
      <trkpt lat="46.16335" lon="-1.14629">
        <ele>13.8</ele>
        <time>2025-07-01T11:56:31Z</time>
      </trkpt>
      <trkpt lat="46.16336" lon="-1.14627">
        <ele>13.8</ele>
        <time>2025-07-01T11:56:34Z</time>
      </trkpt>
      <trkpt lat="46.16336" lon="-1.14626">
        <ele>14</ele>
        <time>2025-07-01T11:56:35Z</time>
      </trkpt>
      <trkpt lat="46.16341" lon="-1.14626">
        <ele>14</ele>
        <time>2025-07-01T11:56:39Z</time>
      </trkpt>
      <trkpt lat="46.16342" lon="-1.14627">
        <ele>14.2</ele>
        <time>2025-07-01T11:56:40Z</time>
      </trkpt>
      <trkpt lat="46.16343" lon="-1.14628">
        <ele>14.2</ele>
        <time>2025-07-01T11:56:41Z</time>
      </trkpt>
      <trkpt lat="46.16344" lon="-1.1463">
        <ele>14.2</ele>
        <time>2025-07-01T11:56:43Z</time>
      </trkpt>
      <trkpt lat="46.16344" lon="-1.14631">
        <ele>14.4</ele>
        <time>2025-07-01T11:56:44Z</time>
      </trkpt>
      <trkpt lat="46.16345" lon="-1.14632">
        <ele>14.4</ele>
        <time>2025-07-01T11:56:45Z</time>
      </trkpt>
      <trkpt lat="46.16346" lon="-1.14635">
        <ele>14.6</ele>
        <time>2025-07-01T11:56:48Z</time>
      </trkpt>
      <trkpt lat="46.16348" lon="-1.14636">
        <ele>14.6</ele>
        <time>2025-07-01T11:56:50Z</time>
      </trkpt>
      <trkpt lat="46.16349" lon="-1.14637">
        <ele>14.6</ele>
        <time>2025-07-01T11:56:51Z</time>
      </trkpt>
      <trkpt lat="46.16351" lon="-1.14639">
        <ele>14.8</ele>
        <time>2025-07-01T11:56:54Z</time>
      </trkpt>
      <trkpt lat="46.16353" lon="-1.14639">
        <ele>14.8</ele>
        <time>2025-07-01T11:56:55Z</time>
      </trkpt>
      <trkpt lat="46.16355" lon="-1.14639">
        <ele>14.8</ele>
        <time>2025-07-01T11:56:57Z</time>
      </trkpt>
      <trkpt lat="46.16359" lon="-1.1464">
        <ele>14.8</ele>
        <time>2025-07-01T11:56:59Z</time>
      </trkpt>
      <trkpt lat="46.16361" lon="-1.14642">
        <ele>14.8</ele>
        <time>2025-07-01T11:57:01Z</time>
      </trkpt>
      <trkpt lat="46.16368" lon="-1.14645">
        <ele>14.8</ele>
        <time>2025-07-01T11:57:07Z</time>
      </trkpt>
      <trkpt lat="46.16369" lon="-1.14648">
        <ele>14.8</ele>
        <time>2025-07-01T11:57:09Z</time>
      </trkpt>
      <trkpt lat="46.16372" lon="-1.14657">
        <ele>15</ele>
        <time>2025-07-01T11:57:14Z</time>
      </trkpt>
      <trkpt lat="46.16374" lon="-1.14661">
        <ele>15</ele>
        <time>2025-07-01T11:57:17Z</time>
      </trkpt>
      <trkpt lat="46.16376" lon="-1.14665">
        <ele>14.8</ele>
        <time>2025-07-01T11:57:21Z</time>
      </trkpt>
      <trkpt lat="46.16377" lon="-1.14676">
        <ele>14.8</ele>
        <time>2025-07-01T11:57:28Z</time>
      </trkpt>
      <trkpt lat="46.16377" lon="-1.14687">
        <ele>15</ele>
        <time>2025-07-01T11:57:36Z</time>
      </trkpt>
      <trkpt lat="46.16379" lon="-1.14706">
        <ele>15</ele>
        <time>2025-07-01T11:57:44Z</time>
      </trkpt>
      <trkpt lat="46.16382" lon="-1.14715">
        <ele>14.8</ele>
        <time>2025-07-01T11:57:50Z</time>
      </trkpt>
      <trkpt lat="46.16384" lon="-1.14717">
        <ele>14.6</ele>
        <time>2025-07-01T11:57:52Z</time>
      </trkpt>
      <trkpt lat="46.16387" lon="-1.14724">
        <ele>14.4</ele>
        <time>2025-07-01T11:57:57Z</time>
      </trkpt>
      <trkpt lat="46.16387" lon="-1.14728">
        <ele>14.4</ele>
        <time>2025-07-01T11:57:59Z</time>
      </trkpt>
      <trkpt lat="46.16392" lon="-1.14737">
        <ele>14.4</ele>
        <time>2025-07-01T11:58:05Z</time>
      </trkpt>
      <trkpt lat="46.16394" lon="-1.14739">
        <ele>14.4</ele>
        <time>2025-07-01T11:58:07Z</time>
      </trkpt>
      <trkpt lat="46.16396" lon="-1.14741">
        <ele>15</ele>
        <time>2025-07-01T11:58:09Z</time>
      </trkpt>
      <trkpt lat="46.16397" lon="-1.14745">
        <ele>15.4</ele>
        <time>2025-07-01T11:58:11Z</time>
      </trkpt>
      <trkpt lat="46.16398" lon="-1.14748">
        <ele>15.4</ele>
        <time>2025-07-01T11:58:13Z</time>
      </trkpt>
      <trkpt lat="46.16399" lon="-1.14749">
        <ele>15.2</ele>
        <time>2025-07-01T11:58:14Z</time>
      </trkpt>
      <trkpt lat="46.164" lon="-1.14751">
        <ele>15</ele>
        <time>2025-07-01T11:58:15Z</time>
      </trkpt>
      <trkpt lat="46.164" lon="-1.14755">
        <ele>14.8</ele>
        <time>2025-07-01T11:58:17Z</time>
      </trkpt>
      <trkpt lat="46.16401" lon="-1.14756">
        <ele>14.8</ele>
        <time>2025-07-01T11:58:18Z</time>
      </trkpt>
      <trkpt lat="46.16402" lon="-1.14761">
        <ele>14.6</ele>
        <time>2025-07-01T11:58:21Z</time>
      </trkpt>
      <trkpt lat="46.16402" lon="-1.14764">
        <ele>14.6</ele>
        <time>2025-07-01T11:58:23Z</time>
      </trkpt>
      <trkpt lat="46.16403" lon="-1.14766">
        <ele>14.6</ele>
        <time>2025-07-01T11:58:24Z</time>
      </trkpt>
      <trkpt lat="46.16405" lon="-1.14769">
        <ele>14.6</ele>
        <time>2025-07-01T11:58:27Z</time>
      </trkpt>
      <trkpt lat="46.16404" lon="-1.14778">
        <ele>14.4</ele>
        <time>2025-07-01T11:58:31Z</time>
      </trkpt>
      <trkpt lat="46.16403" lon="-1.1478">
        <ele>14.4</ele>
        <time>2025-07-01T11:58:32Z</time>
      </trkpt>
      <trkpt lat="46.16406" lon="-1.14784">
        <ele>14.6</ele>
        <time>2025-07-01T11:58:35Z</time>
      </trkpt>
      <trkpt lat="46.16407" lon="-1.14785">
        <ele>14.8</ele>
        <time>2025-07-01T11:58:36Z</time>
      </trkpt>
      <trkpt lat="46.16409" lon="-1.14789">
        <ele>14.8</ele>
        <time>2025-07-01T11:58:39Z</time>
      </trkpt>
      <trkpt lat="46.16412" lon="-1.14795">
        <ele>14.8</ele>
        <time>2025-07-01T11:58:43Z</time>
      </trkpt>
      <trkpt lat="46.16413" lon="-1.14796">
        <ele>14.8</ele>
        <time>2025-07-01T11:58:44Z</time>
      </trkpt>
      <trkpt lat="46.16412" lon="-1.148">
        <ele>14.6</ele>
        <time>2025-07-01T11:58:46Z</time>
      </trkpt>
      <trkpt lat="46.16412" lon="-1.14802">
        <ele>14.4</ele>
        <time>2025-07-01T11:58:47Z</time>
      </trkpt>
      <trkpt lat="46.16412" lon="-1.14805">
        <ele>14.4</ele>
        <time>2025-07-01T11:58:48Z</time>
      </trkpt>
      <trkpt lat="46.16412" lon="-1.14808">
        <ele>14.4</ele>
        <time>2025-07-01T11:58:50Z</time>
      </trkpt>
      <trkpt lat="46.16411" lon="-1.14814">
        <ele>14.4</ele>
        <time>2025-07-01T11:58:53Z</time>
      </trkpt>
      <trkpt lat="46.16411" lon="-1.14819">
        <ele>14.6</ele>
        <time>2025-07-01T11:58:55Z</time>
      </trkpt>
      <trkpt lat="46.16411" lon="-1.14823">
        <ele>14.6</ele>
        <time>2025-07-01T11:58:57Z</time>
      </trkpt>
      <trkpt lat="46.16413" lon="-1.14826">
        <ele>14.6</ele>
        <time>2025-07-01T11:58:59Z</time>
      </trkpt>
      <trkpt lat="46.16414" lon="-1.14827">
        <ele>14.4</ele>
        <time>2025-07-01T11:59:00Z</time>
      </trkpt>
      <trkpt lat="46.16415" lon="-1.14844">
        <ele>14.6</ele>
        <time>2025-07-01T11:59:08Z</time>
      </trkpt>
      <trkpt lat="46.16416" lon="-1.14849">
        <ele>14.6</ele>
        <time>2025-07-01T11:59:11Z</time>
      </trkpt>
      <trkpt lat="46.16415" lon="-1.14856">
        <ele>14.4</ele>
        <time>2025-07-01T11:59:15Z</time>
      </trkpt>
      <trkpt lat="46.16419" lon="-1.14868">
        <ele>14.4</ele>
        <time>2025-07-01T11:59:23Z</time>
      </trkpt>
      <trkpt lat="46.16419" lon="-1.14876">
        <ele>14.4</ele>
        <time>2025-07-01T11:59:28Z</time>
      </trkpt>
      <trkpt lat="46.16421" lon="-1.14877">
        <ele>14.4</ele>
        <time>2025-07-01T11:59:29Z</time>
      </trkpt>
      <trkpt lat="46.16424" lon="-1.14883">
        <ele>14.6</ele>
        <time>2025-07-01T11:59:33Z</time>
      </trkpt>
      <trkpt lat="46.16423" lon="-1.14887">
        <ele>14.8</ele>
        <time>2025-07-01T11:59:35Z</time>
      </trkpt>
      <trkpt lat="46.16423" lon="-1.14888">
        <ele>14.8</ele>
        <time>2025-07-01T11:59:36Z</time>
      </trkpt>
      <trkpt lat="46.16425" lon="-1.14892">
        <ele>15</ele>
        <time>2025-07-01T11:59:39Z</time>
      </trkpt>
      <trkpt lat="46.16427" lon="-1.14895">
        <ele>15</ele>
        <time>2025-07-01T11:59:41Z</time>
      </trkpt>
      <trkpt lat="46.16428" lon="-1.14896">
        <ele>15</ele>
        <time>2025-07-01T11:59:42Z</time>
      </trkpt>
      <trkpt lat="46.16428" lon="-1.149">
        <ele>15</ele>
        <time>2025-07-01T11:59:44Z</time>
      </trkpt>
      <trkpt lat="46.16428" lon="-1.14902">
        <ele>15</ele>
        <time>2025-07-01T11:59:45Z</time>
      </trkpt>
      <trkpt lat="46.16427" lon="-1.14909">
        <ele>15.2</ele>
        <time>2025-07-01T11:59:48Z</time>
      </trkpt>
      <trkpt lat="46.16427" lon="-1.14912">
        <ele>15</ele>
        <time>2025-07-01T11:59:50Z</time>
      </trkpt>
      <trkpt lat="46.16428" lon="-1.1492">
        <ele>15.2</ele>
        <time>2025-07-01T11:59:54Z</time>
      </trkpt>
      <trkpt lat="46.1643" lon="-1.14922">
        <ele>15.4</ele>
        <time>2025-07-01T11:59:56Z</time>
      </trkpt>
      <trkpt lat="46.1643" lon="-1.14925">
        <ele>15.4</ele>
        <time>2025-07-01T11:59:57Z</time>
      </trkpt>
      <trkpt lat="46.16429" lon="-1.14928">
        <ele>15.4</ele>
        <time>2025-07-01T11:59:59Z</time>
      </trkpt>
      <trkpt lat="46.16428" lon="-1.14934">
        <ele>15.6</ele>
        <time>2025-07-01T12:00:02Z</time>
      </trkpt>
      <trkpt lat="46.16429" lon="-1.14939">
        <ele>15.8</ele>
        <time>2025-07-01T12:00:05Z</time>
      </trkpt>
      <trkpt lat="46.16433" lon="-1.14943">
        <ele>15.8</ele>
        <time>2025-07-01T12:00:08Z</time>
      </trkpt>
      <trkpt lat="46.16434" lon="-1.14945">
        <ele>15.8</ele>
        <time>2025-07-01T12:00:09Z</time>
      </trkpt>
      <trkpt lat="46.16434" lon="-1.14948">
        <ele>16</ele>
        <time>2025-07-01T12:00:11Z</time>
      </trkpt>
      <trkpt lat="46.16436" lon="-1.1495">
        <ele>16</ele>
        <time>2025-07-01T12:00:13Z</time>
      </trkpt>
      <trkpt lat="46.16436" lon="-1.14957">
        <ele>16.2</ele>
        <time>2025-07-01T12:00:17Z</time>
      </trkpt>
      <trkpt lat="46.16438" lon="-1.14959">
        <ele>16.4</ele>
        <time>2025-07-01T12:00:19Z</time>
      </trkpt>
      <trkpt lat="46.16438" lon="-1.14961">
        <ele>16.4</ele>
        <time>2025-07-01T12:00:20Z</time>
      </trkpt>
      <trkpt lat="46.16438" lon="-1.14963">
        <ele>16.6</ele>
        <time>2025-07-01T12:00:21Z</time>
      </trkpt>
      <trkpt lat="46.16439" lon="-1.14967">
        <ele>16.6</ele>
        <time>2025-07-01T12:00:24Z</time>
      </trkpt>
      <trkpt lat="46.16443" lon="-1.1498">
        <ele>17</ele>
        <time>2025-07-01T12:00:32Z</time>
      </trkpt>
      <trkpt lat="46.16445" lon="-1.14985">
        <ele>17</ele>
        <time>2025-07-01T12:00:35Z</time>
      </trkpt>
      <trkpt lat="46.16445" lon="-1.1499">
        <ele>17</ele>
        <time>2025-07-01T12:00:38Z</time>
      </trkpt>
      <trkpt lat="46.16446" lon="-1.14992">
        <ele>17</ele>
        <time>2025-07-01T12:00:39Z</time>
      </trkpt>
      <trkpt lat="46.16446" lon="-1.14996">
        <ele>17.2</ele>
        <time>2025-07-01T12:00:42Z</time>
      </trkpt>
      <trkpt lat="46.16446" lon="-1.15">
        <ele>17.4</ele>
        <time>2025-07-01T12:00:44Z</time>
      </trkpt>
      <trkpt lat="46.16445" lon="-1.15004">
        <ele>17.6</ele>
        <time>2025-07-01T12:00:46Z</time>
      </trkpt>
      <trkpt lat="46.16445" lon="-1.15009">
        <ele>17.8</ele>
        <time>2025-07-01T12:00:49Z</time>
      </trkpt>
      <trkpt lat="46.16446" lon="-1.15011">
        <ele>17.8</ele>
        <time>2025-07-01T12:00:50Z</time>
      </trkpt>
      <trkpt lat="46.16449" lon="-1.15022">
        <ele>17.4</ele>
        <time>2025-07-01T12:00:57Z</time>
      </trkpt>
      <trkpt lat="46.16449" lon="-1.15024">
        <ele>17.4</ele>
        <time>2025-07-01T12:00:58Z</time>
      </trkpt>
      <trkpt lat="46.16453" lon="-1.15029">
        <ele>17.8</ele>
        <time>2025-07-01T12:01:03Z</time>
      </trkpt>
      <trkpt lat="46.16456" lon="-1.15041">
        <ele>18</ele>
        <time>2025-07-01T12:01:11Z</time>
      </trkpt>
      <trkpt lat="46.16456" lon="-1.15042">
        <ele>18</ele>
        <time>2025-07-01T12:01:12Z</time>
      </trkpt>
      <trkpt lat="46.16457" lon="-1.15043">
        <ele>18</ele>
        <time>2025-07-01T12:01:15Z</time>
      </trkpt>
      <trkpt lat="46.16458" lon="-1.15043">
        <ele>18</ele>
        <time>2025-07-01T12:01:16Z</time>
      </trkpt>
      <trkpt lat="46.1646" lon="-1.15042">
        <ele>18</ele>
        <time>2025-07-01T12:01:18Z</time>
      </trkpt>
      <trkpt lat="46.16463" lon="-1.15041">
        <ele>18.2</ele>
        <time>2025-07-01T12:01:22Z</time>
      </trkpt>
      <trkpt lat="46.16465" lon="-1.1504">
        <ele>18.2</ele>
        <time>2025-07-01T12:01:25Z</time>
      </trkpt>
      <trkpt lat="46.1647" lon="-1.15037">
        <ele>18</ele>
        <time>2025-07-01T12:01:29Z</time>
      </trkpt>
      <trkpt lat="46.16473" lon="-1.15036">
        <ele>18</ele>
        <time>2025-07-01T12:01:31Z</time>
      </trkpt>
      <trkpt lat="46.16476" lon="-1.15035">
        <ele>18</ele>
        <time>2025-07-01T12:01:34Z</time>
      </trkpt>
      <trkpt lat="46.16479" lon="-1.15033">
        <ele>18</ele>
        <time>2025-07-01T12:01:36Z</time>
      </trkpt>
      <trkpt lat="46.16483" lon="-1.15031">
        <ele>17.8</ele>
        <time>2025-07-01T12:01:39Z</time>
      </trkpt>
      <trkpt lat="46.16484" lon="-1.15029">
        <ele>17.8</ele>
        <time>2025-07-01T12:01:40Z</time>
      </trkpt>
      <trkpt lat="46.16486" lon="-1.15022">
        <ele>17.6</ele>
        <time>2025-07-01T12:01:45Z</time>
      </trkpt>
      <trkpt lat="46.16485" lon="-1.1502">
        <ele>17.6</ele>
        <time>2025-07-01T12:01:46Z</time>
      </trkpt>
      <trkpt lat="46.16485" lon="-1.1502">
        <ele>17.6</ele>
        <time>2025-07-01T12:01:47Z</time>
      </trkpt>
      <trkpt lat="46.16486" lon="-1.15017">
        <ele>17.4</ele>
        <time>2025-07-01T12:01:50Z</time>
      </trkpt>
      <trkpt lat="46.16487" lon="-1.15015">
        <ele>17.4</ele>
        <time>2025-07-01T12:01:51Z</time>
      </trkpt>
      <trkpt lat="46.16486" lon="-1.15008">
        <ele>17.4</ele>
        <time>2025-07-01T12:01:57Z</time>
      </trkpt>
      <trkpt lat="46.16486" lon="-1.14999">
        <ele>17.6</ele>
        <time>2025-07-01T12:02:03Z</time>
      </trkpt>
      <trkpt lat="46.16484" lon="-1.1499">
        <ele>17.6</ele>
        <time>2025-07-01T12:02:08Z</time>
      </trkpt>
      <trkpt lat="46.16483" lon="-1.14989">
        <ele>17.6</ele>
        <time>2025-07-01T12:02:09Z</time>
      </trkpt>
      <trkpt lat="46.16482" lon="-1.14987">
        <ele>17.6</ele>
        <time>2025-07-01T12:02:11Z</time>
      </trkpt>
      <trkpt lat="46.1648" lon="-1.14981">
        <ele>17.8</ele>
        <time>2025-07-01T12:02:16Z</time>
      </trkpt>
      <trkpt lat="46.16477" lon="-1.1498">
        <ele>18</ele>
        <time>2025-07-01T12:02:21Z</time>
      </trkpt>
      <trkpt lat="46.16473" lon="-1.14978">
        <ele>18</ele>
        <time>2025-07-01T12:02:27Z</time>
      </trkpt>
      <trkpt lat="46.16473" lon="-1.14972">
        <ele>18</ele>
        <time>2025-07-01T12:02:32Z</time>
      </trkpt>
      <trkpt lat="46.16474" lon="-1.1497">
        <ele>18</ele>
        <time>2025-07-01T12:02:33Z</time>
      </trkpt>
      <trkpt lat="46.16475" lon="-1.14965">
        <ele>18.2</ele>
        <time>2025-07-01T12:02:36Z</time>
      </trkpt>
      <trkpt lat="46.16474" lon="-1.14962">
        <ele>18.4</ele>
        <time>2025-07-01T12:02:38Z</time>
      </trkpt>
      <trkpt lat="46.16472" lon="-1.14958">
        <ele>18.6</ele>
        <time>2025-07-01T12:02:42Z</time>
      </trkpt>
      <trkpt lat="46.16473" lon="-1.14956">
        <ele>18.6</ele>
        <time>2025-07-01T12:02:44Z</time>
      </trkpt>
      <trkpt lat="46.16473" lon="-1.14954">
        <ele>18.6</ele>
        <time>2025-07-01T12:02:45Z</time>
      </trkpt>
      <trkpt lat="46.16473" lon="-1.14952">
        <ele>18.8</ele>
        <time>2025-07-01T12:02:47Z</time>
      </trkpt>
      <trkpt lat="46.16475" lon="-1.14949">
        <ele>19.2</ele>
        <time>2025-07-01T12:02:54Z</time>
      </trkpt>
      <trkpt lat="46.1648" lon="-1.14953">
        <ele>19.2</ele>
        <time>2025-07-01T12:03:01Z</time>
      </trkpt>
      <trkpt lat="46.16485" lon="-1.14952">
        <ele>19.2</ele>
        <time>2025-07-01T12:03:06Z</time>
      </trkpt>
      <trkpt lat="46.16489" lon="-1.14956">
        <ele>18.6</ele>
        <time>2025-07-01T12:03:11Z</time>
      </trkpt>
      <trkpt lat="46.16492" lon="-1.14963">
        <ele>18.2</ele>
        <time>2025-07-01T12:03:16Z</time>
      </trkpt>
      <trkpt lat="46.16493" lon="-1.14966">
        <ele>17.8</ele>
        <time>2025-07-01T12:03:21Z</time>
      </trkpt>
      <trkpt lat="46.16495" lon="-1.1497">
        <ele>17.8</ele>
        <time>2025-07-01T12:03:24Z</time>
      </trkpt>
      <trkpt lat="46.16495" lon="-1.14975">
        <ele>17.8</ele>
        <time>2025-07-01T12:03:27Z</time>
      </trkpt>
      <trkpt lat="46.16497" lon="-1.14976">
        <ele>17.8</ele>
        <time>2025-07-01T12:03:28Z</time>
      </trkpt>
      <trkpt lat="46.16498" lon="-1.14979">
        <ele>17.8</ele>
        <time>2025-07-01T12:03:30Z</time>
      </trkpt>
      <trkpt lat="46.16498" lon="-1.14981">
        <ele>17.8</ele>
        <time>2025-07-01T12:03:31Z</time>
      </trkpt>
      <trkpt lat="46.16499" lon="-1.14982">
        <ele>17.8</ele>
        <time>2025-07-01T12:03:32Z</time>
      </trkpt>
      <trkpt lat="46.16499" lon="-1.14983">
        <ele>17.6</ele>
        <time>2025-07-01T12:03:35Z</time>
      </trkpt>
      <trkpt lat="46.16499" lon="-1.14984">
        <ele>17.6</ele>
        <time>2025-07-01T12:03:36Z</time>
      </trkpt>
      <trkpt lat="46.16498" lon="-1.14984">
        <ele>17.6</ele>
        <time>2025-07-01T12:03:37Z</time>
      </trkpt>
      <trkpt lat="46.16498" lon="-1.14984">
        <ele>17.6</ele>
        <time>2025-07-01T12:03:38Z</time>
      </trkpt>
      <trkpt lat="46.16497" lon="-1.14984">
        <ele>17.6</ele>
        <time>2025-07-01T12:03:39Z</time>
      </trkpt>
      <trkpt lat="46.16498" lon="-1.14986">
        <ele>17.8</ele>
        <time>2025-07-01T12:03:42Z</time>
      </trkpt>
      <trkpt lat="46.16497" lon="-1.1499">
        <ele>18</ele>
        <time>2025-07-01T12:03:50Z</time>
      </trkpt>
      <trkpt lat="46.16501" lon="-1.14997">
        <ele>17.2</ele>
        <time>2025-07-01T12:03:55Z</time>
      </trkpt>
      <trkpt lat="46.16503" lon="-1.15001">
        <ele>17.4</ele>
        <time>2025-07-01T12:03:58Z</time>
      </trkpt>
      <trkpt lat="46.16505" lon="-1.15005">
        <ele>17.6</ele>
        <time>2025-07-01T12:04:02Z</time>
      </trkpt>
      <trkpt lat="46.16506" lon="-1.15005">
        <ele>17.6</ele>
        <time>2025-07-01T12:04:03Z</time>
      </trkpt>
      <trkpt lat="46.16511" lon="-1.15002">
        <ele>17.8</ele>
        <time>2025-07-01T12:04:07Z</time>
      </trkpt>
      <trkpt lat="46.16512" lon="-1.15002">
        <ele>17.8</ele>
        <time>2025-07-01T12:04:08Z</time>
      </trkpt>
      <trkpt lat="46.16514" lon="-1.15006">
        <ele>17.8</ele>
        <time>2025-07-01T12:04:11Z</time>
      </trkpt>
      <trkpt lat="46.16516" lon="-1.15012">
        <ele>18</ele>
        <time>2025-07-01T12:04:15Z</time>
      </trkpt>
      <trkpt lat="46.16519" lon="-1.15016">
        <ele>18.2</ele>
        <time>2025-07-01T12:04:18Z</time>
      </trkpt>
      <trkpt lat="46.16526" lon="-1.15027">
        <ele>17.8</ele>
        <time>2025-07-01T12:04:26Z</time>
      </trkpt>
      <trkpt lat="46.1653" lon="-1.15033">
        <ele>17.6</ele>
        <time>2025-07-01T12:04:30Z</time>
      </trkpt>
      <trkpt lat="46.1653" lon="-1.15036">
        <ele>17.4</ele>
        <time>2025-07-01T12:04:32Z</time>
      </trkpt>
      <trkpt lat="46.16529" lon="-1.1504">
        <ele>17.4</ele>
        <time>2025-07-01T12:04:33Z</time>
      </trkpt>
      <trkpt lat="46.16529" lon="-1.15045">
        <ele>17.6</ele>
        <time>2025-07-01T12:04:36Z</time>
      </trkpt>
      <trkpt lat="46.1653" lon="-1.15046">
        <ele>17.6</ele>
        <time>2025-07-01T12:04:37Z</time>
      </trkpt>
      <trkpt lat="46.16533" lon="-1.15057">
        <ele>17.4</ele>
        <time>2025-07-01T12:04:43Z</time>
      </trkpt>
      <trkpt lat="46.16532" lon="-1.15059">
        <ele>17.4</ele>
        <time>2025-07-01T12:04:44Z</time>
      </trkpt>
      <trkpt lat="46.16533" lon="-1.15063">
        <ele>17</ele>
        <time>2025-07-01T12:04:47Z</time>
      </trkpt>
      <trkpt lat="46.16535" lon="-1.15068">
        <ele>17</ele>
        <time>2025-07-01T12:04:50Z</time>
      </trkpt>
      <trkpt lat="46.16537" lon="-1.15073">
        <ele>17</ele>
        <time>2025-07-01T12:04:53Z</time>
      </trkpt>
      <trkpt lat="46.16537" lon="-1.15077">
        <ele>16.8</ele>
        <time>2025-07-01T12:04:55Z</time>
      </trkpt>
      <trkpt lat="46.16538" lon="-1.15085">
        <ele>16.6</ele>
        <time>2025-07-01T12:04:59Z</time>
      </trkpt>
      <trkpt lat="46.16539" lon="-1.15091">
        <ele>16.8</ele>
        <time>2025-07-01T12:05:03Z</time>
      </trkpt>
      <trkpt lat="46.16539" lon="-1.15093">
        <ele>16.8</ele>
        <time>2025-07-01T12:05:04Z</time>
      </trkpt>
      <trkpt lat="46.16542" lon="-1.151">
        <ele>17</ele>
        <time>2025-07-01T12:05:09Z</time>
      </trkpt>
      <trkpt lat="46.16542" lon="-1.15102">
        <ele>17</ele>
        <time>2025-07-01T12:05:10Z</time>
      </trkpt>
      <trkpt lat="46.16542" lon="-1.1511">
        <ele>17</ele>
        <time>2025-07-01T12:05:14Z</time>
      </trkpt>
      <trkpt lat="46.16544" lon="-1.15118">
        <ele>16.8</ele>
        <time>2025-07-01T12:05:19Z</time>
      </trkpt>
      <trkpt lat="46.16545" lon="-1.15122">
        <ele>16.2</ele>
        <time>2025-07-01T12:05:24Z</time>
      </trkpt>
      <trkpt lat="46.16543" lon="-1.15124">
        <ele>16.2</ele>
        <time>2025-07-01T12:05:26Z</time>
      </trkpt>
      <trkpt lat="46.16539" lon="-1.15127">
        <ele>16</ele>
        <time>2025-07-01T12:05:29Z</time>
      </trkpt>
      <trkpt lat="46.16536" lon="-1.15125">
        <ele>16.2</ele>
        <time>2025-07-01T12:05:32Z</time>
      </trkpt>
      <trkpt lat="46.16534" lon="-1.15125">
        <ele>16.2</ele>
        <time>2025-07-01T12:05:34Z</time>
      </trkpt>
      <trkpt lat="46.16533" lon="-1.15126">
        <ele>16</ele>
        <time>2025-07-01T12:05:36Z</time>
      </trkpt>
      <trkpt lat="46.16531" lon="-1.15127">
        <ele>16</ele>
        <time>2025-07-01T12:05:37Z</time>
      </trkpt>
      <trkpt lat="46.16528" lon="-1.15131">
        <ele>16.2</ele>
        <time>2025-07-01T12:05:40Z</time>
      </trkpt>
      <trkpt lat="46.16527" lon="-1.15132">
        <ele>16.2</ele>
        <time>2025-07-01T12:05:41Z</time>
      </trkpt>
      <trkpt lat="46.16522" lon="-1.15133">
        <ele>16.4</ele>
        <time>2025-07-01T12:05:48Z</time>
      </trkpt>
      <trkpt lat="46.16517" lon="-1.15137">
        <ele>16.4</ele>
        <time>2025-07-01T12:05:54Z</time>
      </trkpt>
      <trkpt lat="46.16512" lon="-1.15138">
        <ele>16.4</ele>
        <time>2025-07-01T12:05:59Z</time>
      </trkpt>
      <trkpt lat="46.16509" lon="-1.15142">
        <ele>16.6</ele>
        <time>2025-07-01T12:06:02Z</time>
      </trkpt>
      <trkpt lat="46.16504" lon="-1.15146">
        <ele>16.6</ele>
        <time>2025-07-01T12:06:05Z</time>
      </trkpt>
      <trkpt lat="46.16502" lon="-1.15148">
        <ele>16.4</ele>
        <time>2025-07-01T12:06:06Z</time>
      </trkpt>
      <trkpt lat="46.16498" lon="-1.15151">
        <ele>16.4</ele>
        <time>2025-07-01T12:06:10Z</time>
      </trkpt>
      <trkpt lat="46.16494" lon="-1.15149">
        <ele>16</ele>
        <time>2025-07-01T12:06:14Z</time>
      </trkpt>
      <trkpt lat="46.16492" lon="-1.15149">
        <ele>15.8</ele>
        <time>2025-07-01T12:06:15Z</time>
      </trkpt>
      <trkpt lat="46.16491" lon="-1.1515">
        <ele>15.8</ele>
        <time>2025-07-01T12:06:16Z</time>
      </trkpt>
      <trkpt lat="46.16488" lon="-1.15151">
        <ele>15.6</ele>
        <time>2025-07-01T12:06:19Z</time>
      </trkpt>
      <trkpt lat="46.16487" lon="-1.15152">
        <ele>15.6</ele>
        <time>2025-07-01T12:06:21Z</time>
      </trkpt>
      <trkpt lat="46.16484" lon="-1.15152">
        <ele>15.6</ele>
        <time>2025-07-01T12:06:23Z</time>
      </trkpt>
      <trkpt lat="46.16477" lon="-1.15153">
        <ele>15.6</ele>
        <time>2025-07-01T12:06:26Z</time>
      </trkpt>
      <trkpt lat="46.16474" lon="-1.15155">
        <ele>15.6</ele>
        <time>2025-07-01T12:06:30Z</time>
      </trkpt>
      <trkpt lat="46.16472" lon="-1.15157">
        <ele>15.6</ele>
        <time>2025-07-01T12:06:35Z</time>
      </trkpt>
      <trkpt lat="46.16467" lon="-1.15155">
        <ele>15.6</ele>
        <time>2025-07-01T12:06:39Z</time>
      </trkpt>
      <trkpt lat="46.16467" lon="-1.15155">
        <ele>15.2</ele>
        <time>2025-07-01T12:06:43Z</time>
      </trkpt>
      <trkpt lat="46.16466" lon="-1.15157">
        <ele>15</ele>
        <time>2025-07-01T12:06:47Z</time>
      </trkpt>
      <trkpt lat="46.16456" lon="-1.15162">
        <ele>15</ele>
        <time>2025-07-01T12:06:56Z</time>
      </trkpt>
      <trkpt lat="46.16451" lon="-1.15166">
        <ele>14.8</ele>
        <time>2025-07-01T12:06:59Z</time>
      </trkpt>
      <trkpt lat="46.16449" lon="-1.15166">
        <ele>14.6</ele>
        <time>2025-07-01T12:07:01Z</time>
      </trkpt>
      <trkpt lat="46.16448" lon="-1.15165">
        <ele>14.6</ele>
        <time>2025-07-01T12:07:02Z</time>
      </trkpt>
      <trkpt lat="46.16443" lon="-1.15171">
        <ele>14.4</ele>
        <time>2025-07-01T12:07:05Z</time>
      </trkpt>
      <trkpt lat="46.16437" lon="-1.15176">
        <ele>14.2</ele>
        <time>2025-07-01T12:07:08Z</time>
      </trkpt>
      <trkpt lat="46.16432" lon="-1.15179">
        <ele>14.2</ele>
        <time>2025-07-01T12:07:10Z</time>
      </trkpt>
      <trkpt lat="46.1643" lon="-1.15181">
        <ele>14.2</ele>
        <time>2025-07-01T12:07:11Z</time>
      </trkpt>
      <trkpt lat="46.16423" lon="-1.15183">
        <ele>14</ele>
        <time>2025-07-01T12:07:15Z</time>
      </trkpt>
      <trkpt lat="46.1642" lon="-1.15182">
        <ele>14</ele>
        <time>2025-07-01T12:07:18Z</time>
      </trkpt>
      <trkpt lat="46.16419" lon="-1.15183">
        <ele>14</ele>
        <time>2025-07-01T12:07:19Z</time>
      </trkpt>
      <trkpt lat="46.16416" lon="-1.15185">
        <ele>13.8</ele>
        <time>2025-07-01T12:07:21Z</time>
      </trkpt>
      <trkpt lat="46.16413" lon="-1.15187">
        <ele>13.8</ele>
        <time>2025-07-01T12:07:24Z</time>
      </trkpt>
      <trkpt lat="46.16411" lon="-1.15185">
        <ele>13.4</ele>
        <time>2025-07-01T12:07:28Z</time>
      </trkpt>
      <trkpt lat="46.16411" lon="-1.15186">
        <ele>13.2</ele>
        <time>2025-07-01T12:07:31Z</time>
      </trkpt>
      <trkpt lat="46.16409" lon="-1.15187">
        <ele>13.2</ele>
        <time>2025-07-01T12:07:32Z</time>
      </trkpt>
      <trkpt lat="46.16407" lon="-1.15187">
        <ele>13.2</ele>
        <time>2025-07-01T12:07:34Z</time>
      </trkpt>
      <trkpt lat="46.16406" lon="-1.15186">
        <ele>13.2</ele>
        <time>2025-07-01T12:07:35Z</time>
      </trkpt>
      <trkpt lat="46.16405" lon="-1.15182">
        <ele>13.2</ele>
        <time>2025-07-01T12:07:38Z</time>
      </trkpt>
      <trkpt lat="46.16401" lon="-1.15182">
        <ele>13.2</ele>
        <time>2025-07-01T12:07:40Z</time>
      </trkpt>
      <trkpt lat="46.16394" lon="-1.15182">
        <ele>13.2</ele>
        <time>2025-07-01T12:07:43Z</time>
      </trkpt>
      <trkpt lat="46.16391" lon="-1.15183">
        <ele>13</ele>
        <time>2025-07-01T12:07:44Z</time>
      </trkpt>
      <trkpt lat="46.16382" lon="-1.15187">
        <ele>12.6</ele>
        <time>2025-07-01T12:07:48Z</time>
      </trkpt>
      <trkpt lat="46.16373" lon="-1.15203">
        <ele>12.6</ele>
        <time>2025-07-01T12:07:54Z</time>
      </trkpt>
      <trkpt lat="46.16374" lon="-1.15202">
        <ele>12.8</ele>
        <time>2025-07-01T12:07:56Z</time>
      </trkpt>
      <trkpt lat="46.16373" lon="-1.15196">
        <ele>12.8</ele>
        <time>2025-07-01T12:07:58Z</time>
      </trkpt>
      <trkpt lat="46.1637" lon="-1.15194">
        <ele>13</ele>
        <time>2025-07-01T12:08:00Z</time>
      </trkpt>
      <trkpt lat="46.16368" lon="-1.15194">
        <ele>13</ele>
        <time>2025-07-01T12:08:02Z</time>
      </trkpt>
      <trkpt lat="46.16366" lon="-1.15195">
        <ele>12.8</ele>
        <time>2025-07-01T12:08:05Z</time>
      </trkpt>
      <trkpt lat="46.16363" lon="-1.15197">
        <ele>12.8</ele>
        <time>2025-07-01T12:08:08Z</time>
      </trkpt>
      <trkpt lat="46.16361" lon="-1.15196">
        <ele>12.6</ele>
        <time>2025-07-01T12:08:10Z</time>
      </trkpt>
      <trkpt lat="46.16359" lon="-1.15199">
        <ele>12.6</ele>
        <time>2025-07-01T12:08:13Z</time>
      </trkpt>
      <trkpt lat="46.16359" lon="-1.152">
        <ele>12.6</ele>
        <time>2025-07-01T12:08:17Z</time>
      </trkpt>
      <trkpt lat="46.16358" lon="-1.15201">
        <ele>12.6</ele>
        <time>2025-07-01T12:08:18Z</time>
      </trkpt>
      <trkpt lat="46.16353" lon="-1.15205">
        <ele>12.8</ele>
        <time>2025-07-01T12:08:24Z</time>
      </trkpt>
      <trkpt lat="46.16353" lon="-1.15193">
        <ele>12.6</ele>
        <time>2025-07-01T12:08:27Z</time>
      </trkpt>
      <trkpt lat="46.16352" lon="-1.15188">
        <ele>12.6</ele>
        <time>2025-07-01T12:08:30Z</time>
      </trkpt>
      <trkpt lat="46.16351" lon="-1.15188">
        <ele>12.4</ele>
        <time>2025-07-01T12:08:32Z</time>
      </trkpt>
      <trkpt lat="46.16345" lon="-1.1519">
        <ele>12.4</ele>
        <time>2025-07-01T12:08:35Z</time>
      </trkpt>
      <trkpt lat="46.16341" lon="-1.15196">
        <ele>12.4</ele>
        <time>2025-07-01T12:08:36Z</time>
      </trkpt>
      <trkpt lat="46.16323" lon="-1.15216">
        <ele>12</ele>
        <time>2025-07-01T12:08:43Z</time>
      </trkpt>
      <trkpt lat="46.1632" lon="-1.15221">
        <ele>12.2</ele>
        <time>2025-07-01T12:08:44Z</time>
      </trkpt>
      <trkpt lat="46.16308" lon="-1.15233">
        <ele>12.4</ele>
        <time>2025-07-01T12:08:54Z</time>
      </trkpt>
      <trkpt lat="46.16308" lon="-1.15232">
        <ele>12.4</ele>
        <time>2025-07-01T12:08:55Z</time>
      </trkpt>
      <trkpt lat="46.16317" lon="-1.15221">
        <ele>12.2</ele>
        <time>2025-07-01T12:08:59Z</time>
      </trkpt>
      <trkpt lat="46.16318" lon="-1.1522">
        <ele>12.4</ele>
        <time>2025-07-01T12:09:01Z</time>
      </trkpt>
      <trkpt lat="46.16316" lon="-1.15222">
        <ele>12.4</ele>
        <time>2025-07-01T12:09:02Z</time>
      </trkpt>
      <trkpt lat="46.16248" lon="-1.15289">
        <ele>12.4</ele>
        <time>2025-07-01T12:09:23Z</time>
      </trkpt>
      <trkpt lat="46.16251" lon="-1.15286">
        <ele>12.4</ele>
        <time>2025-07-01T12:09:25Z</time>
      </trkpt>
      <trkpt lat="46.16267" lon="-1.15278">
        <ele>12.6</ele>
        <time>2025-07-01T12:09:27Z</time>
      </trkpt>
      <trkpt lat="46.16264" lon="-1.15276">
        <ele>12.8</ele>
        <time>2025-07-01T12:09:29Z</time>
      </trkpt>
      <trkpt lat="46.16265" lon="-1.15271">
        <ele>12.8</ele>
        <time>2025-07-01T12:09:32Z</time>
      </trkpt>
      <trkpt lat="46.16268" lon="-1.15266">
        <ele>13</ele>
        <time>2025-07-01T12:09:34Z</time>
      </trkpt>
      <trkpt lat="46.16265" lon="-1.15269">
        <ele>12.8</ele>
        <time>2025-07-01T12:09:38Z</time>
      </trkpt>
      <trkpt lat="46.16262" lon="-1.15269">
        <ele>12.8</ele>
        <time>2025-07-01T12:09:39Z</time>
      </trkpt>
      <trkpt lat="46.1626" lon="-1.1527">
        <ele>12.6</ele>
        <time>2025-07-01T12:09:41Z</time>
      </trkpt>
      <trkpt lat="46.16258" lon="-1.15269">
        <ele>12.8</ele>
        <time>2025-07-01T12:09:42Z</time>
      </trkpt>
      <trkpt lat="46.16251" lon="-1.15273">
        <ele>12.8</ele>
        <time>2025-07-01T12:09:47Z</time>
      </trkpt>
      <trkpt lat="46.16247" lon="-1.15268">
        <ele>12.8</ele>
        <time>2025-07-01T12:09:55Z</time>
      </trkpt>
      <trkpt lat="46.16237" lon="-1.15275">
        <ele>13.4</ele>
        <time>2025-07-01T12:10:05Z</time>
      </trkpt>
      <trkpt lat="46.16235" lon="-1.15275">
        <ele>13.6</ele>
        <time>2025-07-01T12:10:06Z</time>
      </trkpt>
      <trkpt lat="46.16236" lon="-1.15275">
        <ele>13.4</ele>
        <time>2025-07-01T12:10:07Z</time>
      </trkpt>
      <trkpt lat="46.16233" lon="-1.15276">
        <ele>12.8</ele>
        <time>2025-07-01T12:10:11Z</time>
      </trkpt>
      <trkpt lat="46.16225" lon="-1.15282">
        <ele>12.6</ele>
        <time>2025-07-01T12:10:19Z</time>
      </trkpt>
      <trkpt lat="46.16224" lon="-1.15283">
        <ele>12.6</ele>
        <time>2025-07-01T12:10:20Z</time>
      </trkpt>
      <trkpt lat="46.16223" lon="-1.15286">
        <ele>12.6</ele>
        <time>2025-07-01T12:10:22Z</time>
      </trkpt>
      <trkpt lat="46.16223" lon="-1.15286">
        <ele>12.6</ele>
        <time>2025-07-01T12:10:24Z</time>
      </trkpt>
      <trkpt lat="46.1622" lon="-1.15289">
        <ele>12.4</ele>
        <time>2025-07-01T12:10:29Z</time>
      </trkpt>
      <trkpt lat="46.16218" lon="-1.1529">
        <ele>12.4</ele>
        <time>2025-07-01T12:10:31Z</time>
      </trkpt>
      <trkpt lat="46.16214" lon="-1.15292">
        <ele>12.4</ele>
        <time>2025-07-01T12:10:35Z</time>
      </trkpt>
      <trkpt lat="46.16211" lon="-1.15294">
        <ele>12</ele>
        <time>2025-07-01T12:10:38Z</time>
      </trkpt>
      <trkpt lat="46.16201" lon="-1.15301">
        <ele>11.8</ele>
        <time>2025-07-01T12:10:46Z</time>
      </trkpt>
      <trkpt lat="46.16197" lon="-1.15303">
        <ele>11.8</ele>
        <time>2025-07-01T12:10:50Z</time>
      </trkpt>
      <trkpt lat="46.16195" lon="-1.15304">
        <ele>11.8</ele>
        <time>2025-07-01T12:10:51Z</time>
      </trkpt>
      <trkpt lat="46.16188" lon="-1.15307">
        <ele>11.6</ele>
        <time>2025-07-01T12:10:56Z</time>
      </trkpt>
      <trkpt lat="46.16184" lon="-1.15308">
        <ele>11.8</ele>
        <time>2025-07-01T12:11:02Z</time>
      </trkpt>
      <trkpt lat="46.16183" lon="-1.15309">
        <ele>11.8</ele>
        <time>2025-07-01T12:11:04Z</time>
      </trkpt>
      <trkpt lat="46.16182" lon="-1.15308">
        <ele>11.8</ele>
        <time>2025-07-01T12:11:06Z</time>
      </trkpt>
      <trkpt lat="46.1618" lon="-1.15303">
        <ele>12</ele>
        <time>2025-07-01T12:11:11Z</time>
      </trkpt>
      <trkpt lat="46.16179" lon="-1.153">
        <ele>12.2</ele>
        <time>2025-07-01T12:11:13Z</time>
      </trkpt>
      <trkpt lat="46.16178" lon="-1.15299">
        <ele>12</ele>
        <time>2025-07-01T12:11:14Z</time>
      </trkpt>
      <trkpt lat="46.16177" lon="-1.15296">
        <ele>11.8</ele>
        <time>2025-07-01T12:11:16Z</time>
      </trkpt>
      <trkpt lat="46.16177" lon="-1.15294">
        <ele>11.8</ele>
        <time>2025-07-01T12:11:17Z</time>
      </trkpt>
      <trkpt lat="46.16175" lon="-1.15291">
        <ele>11.6</ele>
        <time>2025-07-01T12:11:20Z</time>
      </trkpt>
      <trkpt lat="46.16172" lon="-1.15291">
        <ele>11.6</ele>
        <time>2025-07-01T12:11:22Z</time>
      </trkpt>
      <trkpt lat="46.16164" lon="-1.15289">
        <ele>12.2</ele>
        <time>2025-07-01T12:11:28Z</time>
      </trkpt>
      <trkpt lat="46.16163" lon="-1.1529">
        <ele>12</ele>
        <time>2025-07-01T12:11:29Z</time>
      </trkpt>
      <trkpt lat="46.16158" lon="-1.15292">
        <ele>12</ele>
        <time>2025-07-01T12:11:32Z</time>
      </trkpt>
      <trkpt lat="46.16156" lon="-1.15293">
        <ele>12</ele>
        <time>2025-07-01T12:11:34Z</time>
      </trkpt>
      <trkpt lat="46.16152" lon="-1.15294">
        <ele>11.8</ele>
        <time>2025-07-01T12:11:37Z</time>
      </trkpt>
      <trkpt lat="46.1615" lon="-1.15294">
        <ele>11.6</ele>
        <time>2025-07-01T12:11:39Z</time>
      </trkpt>
      <trkpt lat="46.16149" lon="-1.15294">
        <ele>11.6</ele>
        <time>2025-07-01T12:11:40Z</time>
      </trkpt>
      <trkpt lat="46.16147" lon="-1.15295">
        <ele>11.4</ele>
        <time>2025-07-01T12:11:41Z</time>
      </trkpt>
      <trkpt lat="46.1614" lon="-1.15296">
        <ele>11.2</ele>
        <time>2025-07-01T12:11:47Z</time>
      </trkpt>
      <trkpt lat="46.16132" lon="-1.15295">
        <ele>11</ele>
        <time>2025-07-01T12:11:53Z</time>
      </trkpt>
      <trkpt lat="46.1613" lon="-1.15295">
        <ele>11</ele>
        <time>2025-07-01T12:11:55Z</time>
      </trkpt>
      <trkpt lat="46.16128" lon="-1.15295">
        <ele>11.2</ele>
        <time>2025-07-01T12:11:56Z</time>
      </trkpt>
      <trkpt lat="46.16126" lon="-1.15296">
        <ele>11.2</ele>
        <time>2025-07-01T12:11:59Z</time>
      </trkpt>
      <trkpt lat="46.16126" lon="-1.15297">
        <ele>11.2</ele>
        <time>2025-07-01T12:12:00Z</time>
      </trkpt>
      <trkpt lat="46.16123" lon="-1.153">
        <ele>11</ele>
        <time>2025-07-01T12:12:02Z</time>
      </trkpt>
      <trkpt lat="46.1612" lon="-1.15305">
        <ele>10.6</ele>
        <time>2025-07-01T12:12:06Z</time>
      </trkpt>
      <trkpt lat="46.16119" lon="-1.15304">
        <ele>10.4</ele>
        <time>2025-07-01T12:12:07Z</time>
      </trkpt>
      <trkpt lat="46.16111" lon="-1.15305">
        <ele>10.2</ele>
        <time>2025-07-01T12:12:12Z</time>
      </trkpt>
      <trkpt lat="46.16108" lon="-1.15307">
        <ele>10.2</ele>
        <time>2025-07-01T12:12:14Z</time>
      </trkpt>
      <trkpt lat="46.16106" lon="-1.1531">
        <ele>10</ele>
        <time>2025-07-01T12:12:17Z</time>
      </trkpt>
      <trkpt lat="46.16105" lon="-1.1531">
        <ele>10</ele>
        <time>2025-07-01T12:12:18Z</time>
      </trkpt>
      <trkpt lat="46.16103" lon="-1.15312">
        <ele>10</ele>
        <time>2025-07-01T12:12:21Z</time>
      </trkpt>
      <trkpt lat="46.16094" lon="-1.15319">
        <ele>9.8</ele>
        <time>2025-07-01T12:12:27Z</time>
      </trkpt>
      <trkpt lat="46.16088" lon="-1.15324">
        <ele>10</ele>
        <time>2025-07-01T12:12:33Z</time>
      </trkpt>
      <trkpt lat="46.16086" lon="-1.15327">
        <ele>9.8</ele>
        <time>2025-07-01T12:12:34Z</time>
      </trkpt>
      <trkpt lat="46.16085" lon="-1.15328">
        <ele>9.8</ele>
        <time>2025-07-01T12:12:35Z</time>
      </trkpt>
      <trkpt lat="46.16084" lon="-1.15328">
        <ele>9.6</ele>
        <time>2025-07-01T12:12:38Z</time>
      </trkpt>
      <trkpt lat="46.16082" lon="-1.15331">
        <ele>9.6</ele>
        <time>2025-07-01T12:12:40Z</time>
      </trkpt>
      <trkpt lat="46.16078" lon="-1.15333">
        <ele>9.8</ele>
        <time>2025-07-01T12:12:43Z</time>
      </trkpt>
      <trkpt lat="46.16072" lon="-1.15336">
        <ele>9.4</ele>
        <time>2025-07-01T12:12:48Z</time>
      </trkpt>
      <trkpt lat="46.16069" lon="-1.15342">
        <ele>9.2</ele>
        <time>2025-07-01T12:12:51Z</time>
      </trkpt>
      <trkpt lat="46.16067" lon="-1.15347">
        <ele>9.2</ele>
        <time>2025-07-01T12:12:54Z</time>
      </trkpt>
      <trkpt lat="46.16068" lon="-1.15349">
        <ele>9.2</ele>
        <time>2025-07-01T12:12:55Z</time>
      </trkpt>
      <trkpt lat="46.16068" lon="-1.1535">
        <ele>9</ele>
        <time>2025-07-01T12:12:56Z</time>
      </trkpt>
      <trkpt lat="46.16067" lon="-1.15356">
        <ele>8.8</ele>
        <time>2025-07-01T12:12:59Z</time>
      </trkpt>
      <trkpt lat="46.16068" lon="-1.15359">
        <ele>8.8</ele>
        <time>2025-07-01T12:13:01Z</time>
      </trkpt>
      <trkpt lat="46.16068" lon="-1.15361">
        <ele>8.8</ele>
        <time>2025-07-01T12:13:02Z</time>
      </trkpt>
      <trkpt lat="46.1607" lon="-1.15364">
        <ele>9</ele>
        <time>2025-07-01T12:13:04Z</time>
      </trkpt>
      <trkpt lat="46.16071" lon="-1.15366">
        <ele>9</ele>
        <time>2025-07-01T12:13:05Z</time>
      </trkpt>
      <trkpt lat="46.16073" lon="-1.15369">
        <ele>9</ele>
        <time>2025-07-01T12:13:08Z</time>
      </trkpt>
      <trkpt lat="46.16074" lon="-1.15373">
        <ele>9</ele>
        <time>2025-07-01T12:13:10Z</time>
      </trkpt>
      <trkpt lat="46.16075" lon="-1.15378">
        <ele>9</ele>
        <time>2025-07-01T12:13:13Z</time>
      </trkpt>
      <trkpt lat="46.16076" lon="-1.15383">
        <ele>9</ele>
        <time>2025-07-01T12:13:16Z</time>
      </trkpt>
      <trkpt lat="46.16077" lon="-1.15388">
        <ele>9</ele>
        <time>2025-07-01T12:13:19Z</time>
      </trkpt>
      <trkpt lat="46.16078" lon="-1.1539">
        <ele>8.8</ele>
        <time>2025-07-01T12:13:21Z</time>
      </trkpt>
      <trkpt lat="46.16077" lon="-1.15398">
        <ele>8.6</ele>
        <time>2025-07-01T12:13:25Z</time>
      </trkpt>
      <trkpt lat="46.16078" lon="-1.15403">
        <ele>8.2</ele>
        <time>2025-07-01T12:13:28Z</time>
      </trkpt>
      <trkpt lat="46.1608" lon="-1.15405">
        <ele>8</ele>
        <time>2025-07-01T12:13:30Z</time>
      </trkpt>
      <trkpt lat="46.16081" lon="-1.15407">
        <ele>7.8</ele>
        <time>2025-07-01T12:13:31Z</time>
      </trkpt>
      <trkpt lat="46.16087" lon="-1.15411">
        <ele>7.6</ele>
        <time>2025-07-01T12:13:35Z</time>
      </trkpt>
      <trkpt lat="46.16087" lon="-1.15413">
        <ele>7.6</ele>
        <time>2025-07-01T12:13:36Z</time>
      </trkpt>
      <trkpt lat="46.16084" lon="-1.15421">
        <ele>7.6</ele>
        <time>2025-07-01T12:13:40Z</time>
      </trkpt>
      <trkpt lat="46.16084" lon="-1.15423">
        <ele>7.6</ele>
        <time>2025-07-01T12:13:41Z</time>
      </trkpt>
      <trkpt lat="46.16082" lon="-1.15426">
        <ele>7.6</ele>
        <time>2025-07-01T12:13:42Z</time>
      </trkpt>
      <trkpt lat="46.1608" lon="-1.15433">
        <ele>7.6</ele>
        <time>2025-07-01T12:13:45Z</time>
      </trkpt>
      <trkpt lat="46.16081" lon="-1.15438">
        <ele>8</ele>
        <time>2025-07-01T12:13:48Z</time>
      </trkpt>
      <trkpt lat="46.16081" lon="-1.1544">
        <ele>8</ele>
        <time>2025-07-01T12:13:49Z</time>
      </trkpt>
      <trkpt lat="46.16079" lon="-1.15446">
        <ele>7.6</ele>
        <time>2025-07-01T12:13:52Z</time>
      </trkpt>
      <trkpt lat="46.16076" lon="-1.15449">
        <ele>7.4</ele>
        <time>2025-07-01T12:13:54Z</time>
      </trkpt>
      <trkpt lat="46.16074" lon="-1.15452">
        <ele>7.4</ele>
        <time>2025-07-01T12:13:56Z</time>
      </trkpt>
      <trkpt lat="46.16071" lon="-1.15454">
        <ele>7.6</ele>
        <time>2025-07-01T12:13:58Z</time>
      </trkpt>
      <trkpt lat="46.16071" lon="-1.15453">
        <ele>7.6</ele>
        <time>2025-07-01T12:13:59Z</time>
      </trkpt>
      <trkpt lat="46.16073" lon="-1.15451">
        <ele>7.6</ele>
        <time>2025-07-01T12:14:02Z</time>
      </trkpt>
      <trkpt lat="46.16073" lon="-1.15454">
        <ele>7.8</ele>
        <time>2025-07-01T12:14:07Z</time>
      </trkpt>
      <trkpt lat="46.16071" lon="-1.15455">
        <ele>7.8</ele>
        <time>2025-07-01T12:14:08Z</time>
      </trkpt>
      <trkpt lat="46.16069" lon="-1.15455">
        <ele>7.8</ele>
        <time>2025-07-01T12:14:10Z</time>
      </trkpt>
      <trkpt lat="46.16071" lon="-1.15453">
        <ele>7.8</ele>
        <time>2025-07-01T12:14:12Z</time>
      </trkpt>
      <trkpt lat="46.1607" lon="-1.15452">
        <ele>7.8</ele>
        <time>2025-07-01T12:14:14Z</time>
      </trkpt>
      <trkpt lat="46.16067" lon="-1.15452">
        <ele>7.6</ele>
        <time>2025-07-01T12:14:18Z</time>
      </trkpt>
      <trkpt lat="46.16064" lon="-1.15454">
        <ele>7.6</ele>
        <time>2025-07-01T12:14:20Z</time>
      </trkpt>
      <trkpt lat="46.16056" lon="-1.15459">
        <ele>7.6</ele>
        <time>2025-07-01T12:14:23Z</time>
      </trkpt>
      <trkpt lat="46.16055" lon="-1.15459">
        <ele>7.8</ele>
        <time>2025-07-01T12:14:24Z</time>
      </trkpt>
      <trkpt lat="46.16054" lon="-1.15458">
        <ele>7.8</ele>
        <time>2025-07-01T12:14:25Z</time>
      </trkpt>
      <trkpt lat="46.16048" lon="-1.15459">
        <ele>7.6</ele>
        <time>2025-07-01T12:14:28Z</time>
      </trkpt>
      <trkpt lat="46.16047" lon="-1.15459">
        <ele>7.6</ele>
        <time>2025-07-01T12:14:29Z</time>
      </trkpt>
      <trkpt lat="46.16042" lon="-1.15461">
        <ele>7.6</ele>
        <time>2025-07-01T12:14:31Z</time>
      </trkpt>
      <trkpt lat="46.16037" lon="-1.15464">
        <ele>7.6</ele>
        <time>2025-07-01T12:14:34Z</time>
      </trkpt>
      <trkpt lat="46.16037" lon="-1.15463">
        <ele>7.8</ele>
        <time>2025-07-01T12:14:35Z</time>
      </trkpt>
      <trkpt lat="46.16037" lon="-1.15461">
        <ele>8</ele>
        <time>2025-07-01T12:14:37Z</time>
      </trkpt>
      <trkpt lat="46.16034" lon="-1.15462">
        <ele>8</ele>
        <time>2025-07-01T12:14:40Z</time>
      </trkpt>
      <trkpt lat="46.16032" lon="-1.15464">
        <ele>8</ele>
        <time>2025-07-01T12:14:42Z</time>
      </trkpt>
      <trkpt lat="46.16032" lon="-1.15465">
        <ele>8.2</ele>
        <time>2025-07-01T12:14:46Z</time>
      </trkpt>
      <trkpt lat="46.16031" lon="-1.15466">
        <ele>8.2</ele>
        <time>2025-07-01T12:14:47Z</time>
      </trkpt>
      <trkpt lat="46.16029" lon="-1.15466">
        <ele>8.2</ele>
        <time>2025-07-01T12:14:48Z</time>
      </trkpt>
      <trkpt lat="46.16026" lon="-1.15467">
        <ele>8.2</ele>
        <time>2025-07-01T12:14:50Z</time>
      </trkpt>
      <trkpt lat="46.16023" lon="-1.15469">
        <ele>8.2</ele>
        <time>2025-07-01T12:14:52Z</time>
      </trkpt>
      <trkpt lat="46.16018" lon="-1.15472">
        <ele>8.2</ele>
        <time>2025-07-01T12:14:55Z</time>
      </trkpt>
      <trkpt lat="46.16013" lon="-1.15475">
        <ele>8.2</ele>
        <time>2025-07-01T12:15:00Z</time>
      </trkpt>
      <trkpt lat="46.16008" lon="-1.15479">
        <ele>8.2</ele>
        <time>2025-07-01T12:15:06Z</time>
      </trkpt>
      <trkpt lat="46.16008" lon="-1.15481">
        <ele>8.2</ele>
        <time>2025-07-01T12:15:10Z</time>
      </trkpt>
      <trkpt lat="46.16007" lon="-1.15481">
        <ele>8.2</ele>
        <time>2025-07-01T12:15:11Z</time>
      </trkpt>
      <trkpt lat="46.16005" lon="-1.15482">
        <ele>8.2</ele>
        <time>2025-07-01T12:15:13Z</time>
      </trkpt>
      <trkpt lat="46.16002" lon="-1.15485">
        <ele>8.2</ele>
        <time>2025-07-01T12:15:15Z</time>
      </trkpt>
      <trkpt lat="46.15998" lon="-1.15487">
        <ele>8.2</ele>
        <time>2025-07-01T12:15:17Z</time>
      </trkpt>
      <trkpt lat="46.15996" lon="-1.15489">
        <ele>8.2</ele>
        <time>2025-07-01T12:15:19Z</time>
      </trkpt>
      <trkpt lat="46.15994" lon="-1.15486">
        <ele>8</ele>
        <time>2025-07-01T12:15:22Z</time>
      </trkpt>
      <trkpt lat="46.1599" lon="-1.15486">
        <ele>8</ele>
        <time>2025-07-01T12:15:24Z</time>
      </trkpt>
      <trkpt lat="46.15988" lon="-1.15487">
        <ele>8</ele>
        <time>2025-07-01T12:15:25Z</time>
      </trkpt>
      <trkpt lat="46.15979" lon="-1.15493">
        <ele>7.8</ele>
        <time>2025-07-01T12:15:33Z</time>
      </trkpt>
      <trkpt lat="46.15979" lon="-1.15494">
        <ele>7.8</ele>
        <time>2025-07-01T12:15:34Z</time>
      </trkpt>
      <trkpt lat="46.1597" lon="-1.15497">
        <ele>7.6</ele>
        <time>2025-07-01T12:15:38Z</time>
      </trkpt>
      <trkpt lat="46.15966" lon="-1.15498">
        <ele>7.4</ele>
        <time>2025-07-01T12:15:40Z</time>
      </trkpt>
      <trkpt lat="46.15958" lon="-1.15502">
        <ele>7.4</ele>
        <time>2025-07-01T12:15:44Z</time>
      </trkpt>
      <trkpt lat="46.15951" lon="-1.15504">
        <ele>7.6</ele>
        <time>2025-07-01T12:15:48Z</time>
      </trkpt>
      <trkpt lat="46.15949" lon="-1.15506">
        <ele>7.6</ele>
        <time>2025-07-01T12:15:51Z</time>
      </trkpt>
      <trkpt lat="46.15948" lon="-1.15506">
        <ele>7.6</ele>
        <time>2025-07-01T12:15:52Z</time>
      </trkpt>
      <trkpt lat="46.15941" lon="-1.15506">
        <ele>7.4</ele>
        <time>2025-07-01T12:15:57Z</time>
      </trkpt>
      <trkpt lat="46.15938" lon="-1.15507">
        <ele>7.2</ele>
        <time>2025-07-01T12:15:59Z</time>
      </trkpt>
      <trkpt lat="46.15938" lon="-1.15507">
        <ele>7.2</ele>
        <time>2025-07-01T12:16:00Z</time>
      </trkpt>
      <trkpt lat="46.15932" lon="-1.15508">
        <ele>7.2</ele>
        <time>2025-07-01T12:16:06Z</time>
      </trkpt>
      <trkpt lat="46.15932" lon="-1.15507">
        <ele>7.2</ele>
        <time>2025-07-01T12:16:07Z</time>
      </trkpt>
      <trkpt lat="46.15932" lon="-1.15506">
        <ele>7.2</ele>
        <time>2025-07-01T12:16:08Z</time>
      </trkpt>
      <trkpt lat="46.15933" lon="-1.15503">
        <ele>7.2</ele>
        <time>2025-07-01T12:16:12Z</time>
      </trkpt>
      <trkpt lat="46.15937" lon="-1.15497">
        <ele>7.2</ele>
        <time>2025-07-01T12:16:16Z</time>
      </trkpt>
      <trkpt lat="46.1594" lon="-1.15495">
        <ele>7.2</ele>
        <time>2025-07-01T12:16:17Z</time>
      </trkpt>
      <trkpt lat="46.1594" lon="-1.15493">
        <ele>7.2</ele>
        <time>2025-07-01T12:16:18Z</time>
      </trkpt>
      <trkpt lat="46.15938" lon="-1.15491">
        <ele>7.4</ele>
        <time>2025-07-01T12:16:20Z</time>
      </trkpt>
      <trkpt lat="46.15935" lon="-1.15486">
        <ele>7.4</ele>
        <time>2025-07-01T12:16:24Z</time>
      </trkpt>
      <trkpt lat="46.15934" lon="-1.15485">
        <ele>7.2</ele>
        <time>2025-07-01T12:16:25Z</time>
      </trkpt>
      <trkpt lat="46.15934" lon="-1.15483">
        <ele>7.2</ele>
        <time>2025-07-01T12:16:26Z</time>
      </trkpt>
      <trkpt lat="46.15934" lon="-1.15479">
        <ele>7.2</ele>
        <time>2025-07-01T12:16:28Z</time>
      </trkpt>
      <trkpt lat="46.15935" lon="-1.15476">
        <ele>7.4</ele>
        <time>2025-07-01T12:16:29Z</time>
      </trkpt>
      <trkpt lat="46.15937" lon="-1.15474">
        <ele>7.4</ele>
        <time>2025-07-01T12:16:30Z</time>
      </trkpt>
      <trkpt lat="46.1594" lon="-1.15467">
        <ele>7.2</ele>
        <time>2025-07-01T12:16:33Z</time>
      </trkpt>
      <trkpt lat="46.1594" lon="-1.15458">
        <ele>7.2</ele>
        <time>2025-07-01T12:16:37Z</time>
      </trkpt>
      <trkpt lat="46.15938" lon="-1.15455">
        <ele>7.2</ele>
        <time>2025-07-01T12:16:40Z</time>
      </trkpt>
      <trkpt lat="46.15938" lon="-1.15451">
        <ele>7.2</ele>
        <time>2025-07-01T12:16:43Z</time>
      </trkpt>
      <trkpt lat="46.15939" lon="-1.15448">
        <ele>7.2</ele>
        <time>2025-07-01T12:16:44Z</time>
      </trkpt>
      <trkpt lat="46.15941" lon="-1.1544">
        <ele>7</ele>
        <time>2025-07-01T12:16:48Z</time>
      </trkpt>
      <trkpt lat="46.15943" lon="-1.15439">
        <ele>7</ele>
        <time>2025-07-01T12:16:49Z</time>
      </trkpt>
      <trkpt lat="46.15945" lon="-1.15437">
        <ele>7.4</ele>
        <time>2025-07-01T12:16:57Z</time>
      </trkpt>
      <trkpt lat="46.15941" lon="-1.15438">
        <ele>7.6</ele>
        <time>2025-07-01T12:17:01Z</time>
      </trkpt>
      <trkpt lat="46.15937" lon="-1.15438">
        <ele>7.4</ele>
        <time>2025-07-01T12:17:21Z</time>
      </trkpt>
      <trkpt lat="46.15939" lon="-1.15437">
        <ele>7.6</ele>
        <time>2025-07-01T12:17:26Z</time>
      </trkpt>
      <trkpt lat="46.15941" lon="-1.15436">
        <ele>7.8</ele>
        <time>2025-07-01T12:17:28Z</time>
      </trkpt>
      <trkpt lat="46.15942" lon="-1.15436">
        <ele>7.8</ele>
        <time>2025-07-01T12:17:29Z</time>
      </trkpt>
      <trkpt lat="46.15941" lon="-1.15438">
        <ele>7.8</ele>
        <time>2025-07-01T12:17:31Z</time>
      </trkpt>
      <trkpt lat="46.15943" lon="-1.15438">
        <ele>8</ele>
        <time>2025-07-01T12:17:33Z</time>
      </trkpt>
      <trkpt lat="46.15947" lon="-1.1544">
        <ele>7.8</ele>
        <time>2025-07-01T12:17:37Z</time>
      </trkpt>
      <trkpt lat="46.15948" lon="-1.1544">
        <ele>7.8</ele>
        <time>2025-07-01T12:17:39Z</time>
      </trkpt>
      <trkpt lat="46.15949" lon="-1.15438">
        <ele>7.6</ele>
        <time>2025-07-01T12:17:40Z</time>
      </trkpt>
      <trkpt lat="46.15952" lon="-1.15437">
        <ele>7.8</ele>
        <time>2025-07-01T12:17:42Z</time>
      </trkpt>
      <trkpt lat="46.15952" lon="-1.15437">
        <ele>7.8</ele>
        <time>2025-07-01T12:17:43Z</time>
      </trkpt>
      <trkpt lat="46.1596" lon="-1.15436">
        <ele>8</ele>
        <time>2025-07-01T12:17:49Z</time>
      </trkpt>
      <trkpt lat="46.15962" lon="-1.15435">
        <ele>8</ele>
        <time>2025-07-01T12:17:52Z</time>
      </trkpt>
      <trkpt lat="46.15964" lon="-1.15433">
        <ele>8.2</ele>
        <time>2025-07-01T12:17:55Z</time>
      </trkpt>
      <trkpt lat="46.15967" lon="-1.15434">
        <ele>8.2</ele>
        <time>2025-07-01T12:17:59Z</time>
      </trkpt>
      <trkpt lat="46.15967" lon="-1.15435">
        <ele>8.4</ele>
        <time>2025-07-01T12:18:00Z</time>
      </trkpt>
      <trkpt lat="46.15968" lon="-1.15435">
        <ele>8.4</ele>
        <time>2025-07-01T12:18:01Z</time>
      </trkpt>
      <trkpt lat="46.1597" lon="-1.15435">
        <ele>8.4</ele>
        <time>2025-07-01T12:18:03Z</time>
      </trkpt>
      <trkpt lat="46.15977" lon="-1.15435">
        <ele>8</ele>
        <time>2025-07-01T12:18:07Z</time>
      </trkpt>
      <trkpt lat="46.1598" lon="-1.15435">
        <ele>7.8</ele>
        <time>2025-07-01T12:18:09Z</time>
      </trkpt>
      <trkpt lat="46.15985" lon="-1.15438">
        <ele>7.8</ele>
        <time>2025-07-01T12:18:13Z</time>
      </trkpt>
      <trkpt lat="46.15988" lon="-1.15439">
        <ele>8.4</ele>
        <time>2025-07-01T12:18:17Z</time>
      </trkpt>
      <trkpt lat="46.15987" lon="-1.1544">
        <ele>8.8</ele>
        <time>2025-07-01T12:18:20Z</time>
      </trkpt>
      <trkpt lat="46.15986" lon="-1.15443">
        <ele>9</ele>
        <time>2025-07-01T12:18:22Z</time>
      </trkpt>
      <trkpt lat="46.15989" lon="-1.15443">
        <ele>9.2</ele>
        <time>2025-07-01T12:18:24Z</time>
      </trkpt>
      <trkpt lat="46.16002" lon="-1.15431">
        <ele>9</ele>
        <time>2025-07-01T12:18:29Z</time>
      </trkpt>
      <trkpt lat="46.16004" lon="-1.15428">
        <ele>9</ele>
        <time>2025-07-01T12:18:30Z</time>
      </trkpt>
      <trkpt lat="46.16003" lon="-1.1543">
        <ele>9</ele>
        <time>2025-07-01T12:18:31Z</time>
      </trkpt>
      <trkpt lat="46.16002" lon="-1.15432">
        <ele>9</ele>
        <time>2025-07-01T12:18:32Z</time>
      </trkpt>
      <trkpt lat="46.16002" lon="-1.15434">
        <ele>8.8</ele>
        <time>2025-07-01T12:18:33Z</time>
      </trkpt>
      <trkpt lat="46.16002" lon="-1.15438">
        <ele>9</ele>
        <time>2025-07-01T12:18:36Z</time>
      </trkpt>
      <trkpt lat="46.16005" lon="-1.15437">
        <ele>9</ele>
        <time>2025-07-01T12:18:39Z</time>
      </trkpt>
      <trkpt lat="46.16007" lon="-1.15434">
        <ele>9</ele>
        <time>2025-07-01T12:18:41Z</time>
      </trkpt>
      <trkpt lat="46.16009" lon="-1.15431">
        <ele>9</ele>
        <time>2025-07-01T12:18:43Z</time>
      </trkpt>
      <trkpt lat="46.16011" lon="-1.15423">
        <ele>9.2</ele>
        <time>2025-07-01T12:18:47Z</time>
      </trkpt>
      <trkpt lat="46.16011" lon="-1.1542">
        <ele>9.2</ele>
        <time>2025-07-01T12:18:48Z</time>
      </trkpt>
      <trkpt lat="46.16011" lon="-1.15418">
        <ele>9.4</ele>
        <time>2025-07-01T12:18:49Z</time>
      </trkpt>
      <trkpt lat="46.16016" lon="-1.15409">
        <ele>9.8</ele>
        <time>2025-07-01T12:18:52Z</time>
      </trkpt>
      <trkpt lat="46.16019" lon="-1.15403">
        <ele>9.6</ele>
        <time>2025-07-01T12:18:54Z</time>
      </trkpt>
      <trkpt lat="46.1602" lon="-1.154">
        <ele>9.8</ele>
        <time>2025-07-01T12:18:55Z</time>
      </trkpt>
      <trkpt lat="46.1602" lon="-1.15389">
        <ele>9.8</ele>
        <time>2025-07-01T12:18:58Z</time>
      </trkpt>
      <trkpt lat="46.1602" lon="-1.15384">
        <ele>9.8</ele>
        <time>2025-07-01T12:19:00Z</time>
      </trkpt>
      <trkpt lat="46.16021" lon="-1.15381">
        <ele>9.8</ele>
        <time>2025-07-01T12:19:02Z</time>
      </trkpt>
      <trkpt lat="46.16022" lon="-1.15378">
        <ele>9.8</ele>
        <time>2025-07-01T12:19:03Z</time>
      </trkpt>
      <trkpt lat="46.16027" lon="-1.15369">
        <ele>10</ele>
        <time>2025-07-01T12:19:06Z</time>
      </trkpt>
      <trkpt lat="46.16027" lon="-1.15367">
        <ele>10.2</ele>
        <time>2025-07-01T12:19:07Z</time>
      </trkpt>
      <trkpt lat="46.16027" lon="-1.15366">
        <ele>10.2</ele>
        <time>2025-07-01T12:19:08Z</time>
      </trkpt>
      <trkpt lat="46.16026" lon="-1.15358">
        <ele>10.4</ele>
        <time>2025-07-01T12:19:13Z</time>
      </trkpt>
      <trkpt lat="46.16028" lon="-1.15355">
        <ele>10.4</ele>
        <time>2025-07-01T12:19:14Z</time>
      </trkpt>
      <trkpt lat="46.16029" lon="-1.15352">
        <ele>10.4</ele>
        <time>2025-07-01T12:19:16Z</time>
      </trkpt>
      <trkpt lat="46.16027" lon="-1.1535">
        <ele>10.6</ele>
        <time>2025-07-01T12:19:18Z</time>
      </trkpt>
      <trkpt lat="46.16026" lon="-1.15349">
        <ele>10.6</ele>
        <time>2025-07-01T12:19:19Z</time>
      </trkpt>
      <trkpt lat="46.16028" lon="-1.15349">
        <ele>10.8</ele>
        <time>2025-07-01T12:19:27Z</time>
      </trkpt>
      <trkpt lat="46.16025" lon="-1.15346">
        <ele>10.8</ele>
        <time>2025-07-01T12:19:29Z</time>
      </trkpt>
      <trkpt lat="46.16023" lon="-1.15344">
        <ele>10.8</ele>
        <time>2025-07-01T12:19:31Z</time>
      </trkpt>
      <trkpt lat="46.1602" lon="-1.15345">
        <ele>10.8</ele>
        <time>2025-07-01T12:19:34Z</time>
      </trkpt>
      <trkpt lat="46.16015" lon="-1.15348">
        <ele>10.6</ele>
        <time>2025-07-01T12:19:38Z</time>
      </trkpt>
      <trkpt lat="46.16013" lon="-1.15346">
        <ele>10.6</ele>
        <time>2025-07-01T12:19:40Z</time>
      </trkpt>
      <trkpt lat="46.15953" lon="-1.1538">
        <ele>10</ele>
        <time>2025-07-01T12:20:30Z</time>
      </trkpt>
      <trkpt lat="46.15953" lon="-1.15376">
        <ele>10</ele>
        <time>2025-07-01T12:20:31Z</time>
      </trkpt>
      <trkpt lat="46.15953" lon="-1.15384">
        <ele>10</ele>
        <time>2025-07-01T12:20:32Z</time>
      </trkpt>
      <trkpt lat="46.15953" lon="-1.15389">
        <ele>10</ele>
        <time>2025-07-01T12:20:33Z</time>
      </trkpt>
      <trkpt lat="46.15944" lon="-1.15378">
        <ele>10.2</ele>
        <time>2025-07-01T12:20:39Z</time>
      </trkpt>
      <trkpt lat="46.15943" lon="-1.15378">
        <ele>10.2</ele>
        <time>2025-07-01T12:20:40Z</time>
      </trkpt>
      <trkpt lat="46.15937" lon="-1.1538">
        <ele>10.2</ele>
        <time>2025-07-01T12:20:44Z</time>
      </trkpt>
      <trkpt lat="46.15933" lon="-1.15383">
        <ele>10.2</ele>
        <time>2025-07-01T12:20:48Z</time>
      </trkpt>
      <trkpt lat="46.1593" lon="-1.15383">
        <ele>10.2</ele>
        <time>2025-07-01T12:20:50Z</time>
      </trkpt>
      <trkpt lat="46.15926" lon="-1.15385">
        <ele>10.2</ele>
        <time>2025-07-01T12:20:53Z</time>
      </trkpt>
      <trkpt lat="46.15927" lon="-1.1538">
        <ele>10.2</ele>
        <time>2025-07-01T12:21:00Z</time>
      </trkpt>
      <trkpt lat="46.15926" lon="-1.15381">
        <ele>10.4</ele>
        <time>2025-07-01T12:21:04Z</time>
      </trkpt>
      <trkpt lat="46.15924" lon="-1.1538">
        <ele>10.4</ele>
        <time>2025-07-01T12:21:05Z</time>
      </trkpt>
      <trkpt lat="46.15917" lon="-1.15378">
        <ele>14.6</ele>
        <time>2025-07-01T12:40:53Z</time>
      </trkpt>
      <trkpt lat="46.15921" lon="-1.15377">
        <ele>15.2</ele>
        <time>2025-07-01T12:40:58Z</time>
      </trkpt>
      <trkpt lat="46.15923" lon="-1.15377">
        <ele>15</ele>
        <time>2025-07-01T12:41:00Z</time>
      </trkpt>
      <trkpt lat="46.15921" lon="-1.15373">
        <ele>15</ele>
        <time>2025-07-01T12:41:02Z</time>
      </trkpt>
      <trkpt lat="46.15921" lon="-1.15279">
        <ele>14.6</ele>
        <time>2025-07-01T12:41:43Z</time>
      </trkpt>
      <trkpt lat="46.15922" lon="-1.15279">
        <ele>14.6</ele>
        <time>2025-07-01T12:41:44Z</time>
      </trkpt>
      <trkpt lat="46.15914" lon="-1.15288">
        <ele>15</ele>
        <time>2025-07-01T12:41:50Z</time>
      </trkpt>
      <trkpt lat="46.15912" lon="-1.15291">
        <ele>15</ele>
        <time>2025-07-01T12:41:51Z</time>
      </trkpt>
      <trkpt lat="46.15907" lon="-1.15293">
        <ele>14.8</ele>
        <time>2025-07-01T12:41:55Z</time>
      </trkpt>
      <trkpt lat="46.15906" lon="-1.15292">
        <ele>14.8</ele>
        <time>2025-07-01T12:41:56Z</time>
      </trkpt>
      <trkpt lat="46.15904" lon="-1.15292">
        <ele>14.8</ele>
        <time>2025-07-01T12:41:57Z</time>
      </trkpt>
      <trkpt lat="46.15903" lon="-1.15294">
        <ele>14.8</ele>
        <time>2025-07-01T12:41:59Z</time>
      </trkpt>
      <trkpt lat="46.15901" lon="-1.15291">
        <ele>14.6</ele>
        <time>2025-07-01T12:42:02Z</time>
      </trkpt>
      <trkpt lat="46.15901" lon="-1.15288">
        <ele>14.6</ele>
        <time>2025-07-01T12:42:03Z</time>
      </trkpt>
      <trkpt lat="46.15899" lon="-1.15287">
        <ele>14.4</ele>
        <time>2025-07-01T12:42:05Z</time>
      </trkpt>
      <trkpt lat="46.15896" lon="-1.1529">
        <ele>14</ele>
        <time>2025-07-01T12:42:08Z</time>
      </trkpt>
      <trkpt lat="46.15894" lon="-1.15291">
        <ele>13.8</ele>
        <time>2025-07-01T12:42:11Z</time>
      </trkpt>
      <trkpt lat="46.15894" lon="-1.1529">
        <ele>14</ele>
        <time>2025-07-01T12:42:15Z</time>
      </trkpt>
      <trkpt lat="46.15894" lon="-1.15286">
        <ele>13.6</ele>
        <time>2025-07-01T12:42:19Z</time>
      </trkpt>
      <trkpt lat="46.15894" lon="-1.15285">
        <ele>13.6</ele>
        <time>2025-07-01T12:42:20Z</time>
      </trkpt>
      <trkpt lat="46.15895" lon="-1.15283">
        <ele>13.6</ele>
        <time>2025-07-01T12:42:21Z</time>
      </trkpt>
      <trkpt lat="46.15893" lon="-1.15281">
        <ele>13.8</ele>
        <time>2025-07-01T12:42:24Z</time>
      </trkpt>
      <trkpt lat="46.15893" lon="-1.15279">
        <ele>13.8</ele>
        <time>2025-07-01T12:42:25Z</time>
      </trkpt>
      <trkpt lat="46.15893" lon="-1.15278">
        <ele>13.8</ele>
        <time>2025-07-01T12:42:26Z</time>
      </trkpt>
      <trkpt lat="46.15895" lon="-1.15275">
        <ele>13.4</ele>
        <time>2025-07-01T12:42:29Z</time>
      </trkpt>
      <trkpt lat="46.15895" lon="-1.15273">
        <ele>13.4</ele>
        <time>2025-07-01T12:42:30Z</time>
      </trkpt>
      <trkpt lat="46.15894" lon="-1.1527">
        <ele>13.8</ele>
        <time>2025-07-01T12:42:32Z</time>
      </trkpt>
      <trkpt lat="46.15892" lon="-1.15269">
        <ele>13.8</ele>
        <time>2025-07-01T12:42:35Z</time>
      </trkpt>
      <trkpt lat="46.1589" lon="-1.15269">
        <ele>13.8</ele>
        <time>2025-07-01T12:42:36Z</time>
      </trkpt>
      <trkpt lat="46.15889" lon="-1.15269">
        <ele>13.6</ele>
        <time>2025-07-01T12:42:38Z</time>
      </trkpt>
      <trkpt lat="46.15889" lon="-1.15267">
        <ele>13.6</ele>
        <time>2025-07-01T12:42:39Z</time>
      </trkpt>
      <trkpt lat="46.15888" lon="-1.15266">
        <ele>13.6</ele>
        <time>2025-07-01T12:42:40Z</time>
      </trkpt>
      <trkpt lat="46.15886" lon="-1.15267">
        <ele>13.6</ele>
        <time>2025-07-01T12:42:42Z</time>
      </trkpt>
      <trkpt lat="46.15884" lon="-1.15267">
        <ele>13.2</ele>
        <time>2025-07-01T12:42:43Z</time>
      </trkpt>
      <trkpt lat="46.1588" lon="-1.15266">
        <ele>13</ele>
        <time>2025-07-01T12:42:47Z</time>
      </trkpt>
      <trkpt lat="46.15879" lon="-1.15264">
        <ele>13</ele>
        <time>2025-07-01T12:42:49Z</time>
      </trkpt>
      <trkpt lat="46.15877" lon="-1.15264">
        <ele>13</ele>
        <time>2025-07-01T12:42:50Z</time>
      </trkpt>
      <trkpt lat="46.15876" lon="-1.15263">
        <ele>12.8</ele>
        <time>2025-07-01T12:42:52Z</time>
      </trkpt>
      <trkpt lat="46.15876" lon="-1.15261">
        <ele>12.6</ele>
        <time>2025-07-01T12:42:54Z</time>
      </trkpt>
      <trkpt lat="46.15879" lon="-1.15257">
        <ele>12.6</ele>
        <time>2025-07-01T12:42:57Z</time>
      </trkpt>
      <trkpt lat="46.15878" lon="-1.15257">
        <ele>12.6</ele>
        <time>2025-07-01T12:42:58Z</time>
      </trkpt>
      <trkpt lat="46.15879" lon="-1.15257">
        <ele>12.6</ele>
        <time>2025-07-01T12:43:01Z</time>
      </trkpt>
      <trkpt lat="46.15881" lon="-1.15256">
        <ele>12.6</ele>
        <time>2025-07-01T12:43:03Z</time>
      </trkpt>
      <trkpt lat="46.15879" lon="-1.15257">
        <ele>12.6</ele>
        <time>2025-07-01T12:43:05Z</time>
      </trkpt>
      <trkpt lat="46.15877" lon="-1.1526">
        <ele>12.6</ele>
        <time>2025-07-01T12:43:07Z</time>
      </trkpt>
      <trkpt lat="46.15879" lon="-1.15263">
        <ele>12.6</ele>
        <time>2025-07-01T12:43:09Z</time>
      </trkpt>
      <trkpt lat="46.15877" lon="-1.15275">
        <ele>12.4</ele>
        <time>2025-07-01T12:43:14Z</time>
      </trkpt>
      <trkpt lat="46.15876" lon="-1.15279">
        <ele>12.2</ele>
        <time>2025-07-01T12:43:16Z</time>
      </trkpt>
      <trkpt lat="46.15876" lon="-1.15281">
        <ele>12.2</ele>
        <time>2025-07-01T12:43:18Z</time>
      </trkpt>
      <trkpt lat="46.15875" lon="-1.15282">
        <ele>12.2</ele>
        <time>2025-07-01T12:43:19Z</time>
      </trkpt>
      <trkpt lat="46.15868" lon="-1.15294">
        <ele>12.2</ele>
        <time>2025-07-01T12:43:24Z</time>
      </trkpt>
      <trkpt lat="46.15865" lon="-1.15303">
        <ele>12.4</ele>
        <time>2025-07-01T12:43:28Z</time>
      </trkpt>
      <trkpt lat="46.15866" lon="-1.15305">
        <ele>12.2</ele>
        <time>2025-07-01T12:43:30Z</time>
      </trkpt>
      <trkpt lat="46.15865" lon="-1.15313">
        <ele>12</ele>
        <time>2025-07-01T12:43:35Z</time>
      </trkpt>
      <trkpt lat="46.15867" lon="-1.15313">
        <ele>12</ele>
        <time>2025-07-01T12:43:37Z</time>
      </trkpt>
      <trkpt lat="46.15866" lon="-1.15316">
        <ele>12</ele>
        <time>2025-07-01T12:43:40Z</time>
      </trkpt>
      <trkpt lat="46.15865" lon="-1.15321">
        <ele>12</ele>
        <time>2025-07-01T12:43:43Z</time>
      </trkpt>
      <trkpt lat="46.15862" lon="-1.15322">
        <ele>12.2</ele>
        <time>2025-07-01T12:43:45Z</time>
      </trkpt>
      <trkpt lat="46.15859" lon="-1.15327">
        <ele>11.8</ele>
        <time>2025-07-01T12:43:49Z</time>
      </trkpt>
      <trkpt lat="46.15858" lon="-1.15329">
        <ele>11.8</ele>
        <time>2025-07-01T12:43:50Z</time>
      </trkpt>
      <trkpt lat="46.15856" lon="-1.15331">
        <ele>12</ele>
        <time>2025-07-01T12:43:51Z</time>
      </trkpt>
      <trkpt lat="46.15858" lon="-1.15337">
        <ele>12</ele>
        <time>2025-07-01T12:43:54Z</time>
      </trkpt>
      <trkpt lat="46.15859" lon="-1.15342">
        <ele>11.8</ele>
        <time>2025-07-01T12:43:56Z</time>
      </trkpt>
      <trkpt lat="46.15856" lon="-1.15346">
        <ele>11.8</ele>
        <time>2025-07-01T12:43:59Z</time>
      </trkpt>
      <trkpt lat="46.15856" lon="-1.15348">
        <ele>11.6</ele>
        <time>2025-07-01T12:44:01Z</time>
      </trkpt>
      <trkpt lat="46.15855" lon="-1.15352">
        <ele>11.6</ele>
        <time>2025-07-01T12:44:04Z</time>
      </trkpt>
      <trkpt lat="46.15852" lon="-1.15362">
        <ele>11.8</ele>
        <time>2025-07-01T12:44:10Z</time>
      </trkpt>
      <trkpt lat="46.15852" lon="-1.15363">
        <ele>11.8</ele>
        <time>2025-07-01T12:44:11Z</time>
      </trkpt>
      <trkpt lat="46.1585" lon="-1.15371">
        <ele>12</ele>
        <time>2025-07-01T12:44:16Z</time>
      </trkpt>
      <trkpt lat="46.15849" lon="-1.15374">
        <ele>12.2</ele>
        <time>2025-07-01T12:44:19Z</time>
      </trkpt>
      <trkpt lat="46.15845" lon="-1.15378">
        <ele>12.2</ele>
        <time>2025-07-01T12:44:26Z</time>
      </trkpt>
      <trkpt lat="46.15844" lon="-1.15383">
        <ele>12</ele>
        <time>2025-07-01T12:44:34Z</time>
      </trkpt>
      <trkpt lat="46.15839" lon="-1.15391">
        <ele>12</ele>
        <time>2025-07-01T12:44:40Z</time>
      </trkpt>
      <trkpt lat="46.15839" lon="-1.15398">
        <ele>11.8</ele>
        <time>2025-07-01T12:44:44Z</time>
      </trkpt>
      <trkpt lat="46.15837" lon="-1.15403">
        <ele>12.2</ele>
        <time>2025-07-01T12:44:46Z</time>
      </trkpt>
      <trkpt lat="46.15836" lon="-1.15407">
        <ele>12.4</ele>
        <time>2025-07-01T12:44:49Z</time>
      </trkpt>
      <trkpt lat="46.15836" lon="-1.15407">
        <ele>12.4</ele>
        <time>2025-07-01T12:44:50Z</time>
      </trkpt>
      <trkpt lat="46.15834" lon="-1.15415">
        <ele>12.2</ele>
        <time>2025-07-01T12:44:57Z</time>
      </trkpt>
      <trkpt lat="46.15831" lon="-1.1542">
        <ele>12.2</ele>
        <time>2025-07-01T12:45:01Z</time>
      </trkpt>
      <trkpt lat="46.1583" lon="-1.15421">
        <ele>12.2</ele>
        <time>2025-07-01T12:45:02Z</time>
      </trkpt>
      <trkpt lat="46.1583" lon="-1.15422">
        <ele>12.2</ele>
        <time>2025-07-01T12:45:03Z</time>
      </trkpt>
      <trkpt lat="46.15833" lon="-1.15424">
        <ele>12.2</ele>
        <time>2025-07-01T12:45:06Z</time>
      </trkpt>
      <trkpt lat="46.15832" lon="-1.15426">
        <ele>12.2</ele>
        <time>2025-07-01T12:45:07Z</time>
      </trkpt>
      <trkpt lat="46.15831" lon="-1.15428">
        <ele>12.2</ele>
        <time>2025-07-01T12:45:08Z</time>
      </trkpt>
      <trkpt lat="46.15831" lon="-1.1543">
        <ele>12.2</ele>
        <time>2025-07-01T12:45:10Z</time>
      </trkpt>
      <trkpt lat="46.15829" lon="-1.15438">
        <ele>12</ele>
        <time>2025-07-01T12:45:14Z</time>
      </trkpt>
      <trkpt lat="46.15828" lon="-1.15441">
        <ele>12</ele>
        <time>2025-07-01T12:45:16Z</time>
      </trkpt>
      <trkpt lat="46.15823" lon="-1.15455">
        <ele>12</ele>
        <time>2025-07-01T12:45:23Z</time>
      </trkpt>
      <trkpt lat="46.15823" lon="-1.15461">
        <ele>11.8</ele>
        <time>2025-07-01T12:45:28Z</time>
      </trkpt>
      <trkpt lat="46.15826" lon="-1.15468">
        <ele>11.6</ele>
        <time>2025-07-01T12:45:33Z</time>
      </trkpt>
      <trkpt lat="46.15827" lon="-1.15469">
        <ele>11.4</ele>
        <time>2025-07-01T12:45:34Z</time>
      </trkpt>
      <trkpt lat="46.15827" lon="-1.15471">
        <ele>11.4</ele>
        <time>2025-07-01T12:45:35Z</time>
      </trkpt>
      <trkpt lat="46.15828" lon="-1.15471">
        <ele>11.4</ele>
        <time>2025-07-01T12:45:36Z</time>
      </trkpt>
      <trkpt lat="46.15829" lon="-1.15474">
        <ele>11.4</ele>
        <time>2025-07-01T12:45:38Z</time>
      </trkpt>
      <trkpt lat="46.15832" lon="-1.15475">
        <ele>11.4</ele>
        <time>2025-07-01T12:45:41Z</time>
      </trkpt>
      <trkpt lat="46.15829" lon="-1.15476">
        <ele>11.4</ele>
        <time>2025-07-01T12:45:45Z</time>
      </trkpt>
      <trkpt lat="46.15834" lon="-1.15479">
        <ele>11.4</ele>
        <time>2025-07-01T12:45:47Z</time>
      </trkpt>
      <trkpt lat="46.15838" lon="-1.15479">
        <ele>11.2</ele>
        <time>2025-07-01T12:45:48Z</time>
      </trkpt>
      <trkpt lat="46.15844" lon="-1.15481">
        <ele>11.2</ele>
        <time>2025-07-01T12:45:50Z</time>
      </trkpt>
      <trkpt lat="46.15851" lon="-1.15479">
        <ele>11.2</ele>
        <time>2025-07-01T12:45:52Z</time>
      </trkpt>
      <trkpt lat="46.15864" lon="-1.15485">
        <ele>11.2</ele>
        <time>2025-07-01T12:45:56Z</time>
      </trkpt>
      <trkpt lat="46.15864" lon="-1.15487">
        <ele>11.2</ele>
        <time>2025-07-01T12:45:57Z</time>
      </trkpt>
      <trkpt lat="46.15865" lon="-1.1549">
        <ele>11.2</ele>
        <time>2025-07-01T12:45:59Z</time>
      </trkpt>
      <trkpt lat="46.15865" lon="-1.15494">
        <ele>11.2</ele>
        <time>2025-07-01T12:46:01Z</time>
      </trkpt>
      <trkpt lat="46.15864" lon="-1.15499">
        <ele>11.2</ele>
        <time>2025-07-01T12:46:03Z</time>
      </trkpt>
      <trkpt lat="46.15862" lon="-1.1551">
        <ele>11.6</ele>
        <time>2025-07-01T12:46:07Z</time>
      </trkpt>
      <trkpt lat="46.1586" lon="-1.15514">
        <ele>11.6</ele>
        <time>2025-07-01T12:46:08Z</time>
      </trkpt>
      <trkpt lat="46.15859" lon="-1.15517">
        <ele>11.6</ele>
        <time>2025-07-01T12:46:09Z</time>
      </trkpt>
      <trkpt lat="46.15857" lon="-1.15526">
        <ele>11.6</ele>
        <time>2025-07-01T12:46:13Z</time>
      </trkpt>
      <trkpt lat="46.15854" lon="-1.15536">
        <ele>11.4</ele>
        <time>2025-07-01T12:46:16Z</time>
      </trkpt>
      <trkpt lat="46.1585" lon="-1.1555">
        <ele>11.2</ele>
        <time>2025-07-01T12:46:22Z</time>
      </trkpt>
      <trkpt lat="46.15851" lon="-1.15551">
        <ele>11.2</ele>
        <time>2025-07-01T12:46:23Z</time>
      </trkpt>
      <trkpt lat="46.15852" lon="-1.15556">
        <ele>11.2</ele>
        <time>2025-07-01T12:46:26Z</time>
      </trkpt>
      <trkpt lat="46.15852" lon="-1.15558">
        <ele>11.2</ele>
        <time>2025-07-01T12:46:27Z</time>
      </trkpt>
      <trkpt lat="46.15853" lon="-1.15563">
        <ele>11.2</ele>
        <time>2025-07-01T12:46:30Z</time>
      </trkpt>
      <trkpt lat="46.15853" lon="-1.15565">
        <ele>11.2</ele>
        <time>2025-07-01T12:46:31Z</time>
      </trkpt>
      <trkpt lat="46.15853" lon="-1.15567">
        <ele>11.2</ele>
        <time>2025-07-01T12:46:32Z</time>
      </trkpt>
      <trkpt lat="46.15854" lon="-1.15569">
        <ele>11.2</ele>
        <time>2025-07-01T12:46:33Z</time>
      </trkpt>
      <trkpt lat="46.15854" lon="-1.15571">
        <ele>11.2</ele>
        <time>2025-07-01T12:46:34Z</time>
      </trkpt>
      <trkpt lat="46.15855" lon="-1.15577">
        <ele>11.2</ele>
        <time>2025-07-01T12:46:37Z</time>
      </trkpt>
      <trkpt lat="46.15856" lon="-1.15579">
        <ele>11.2</ele>
        <time>2025-07-01T12:46:38Z</time>
      </trkpt>
      <trkpt lat="46.15857" lon="-1.15581">
        <ele>11.2</ele>
        <time>2025-07-01T12:46:39Z</time>
      </trkpt>
      <trkpt lat="46.15858" lon="-1.15593">
        <ele>10.6</ele>
        <time>2025-07-01T12:46:45Z</time>
      </trkpt>
      <trkpt lat="46.15858" lon="-1.15595">
        <ele>10.6</ele>
        <time>2025-07-01T12:46:46Z</time>
      </trkpt>
      <trkpt lat="46.15859" lon="-1.15596">
        <ele>10.6</ele>
        <time>2025-07-01T12:46:47Z</time>
      </trkpt>
      <trkpt lat="46.1586" lon="-1.15598">
        <ele>10.6</ele>
        <time>2025-07-01T12:46:49Z</time>
      </trkpt>
      <trkpt lat="46.1586" lon="-1.156">
        <ele>10.6</ele>
        <time>2025-07-01T12:46:50Z</time>
      </trkpt>
      <trkpt lat="46.15861" lon="-1.15602">
        <ele>10.6</ele>
        <time>2025-07-01T12:46:51Z</time>
      </trkpt>
      <trkpt lat="46.15861" lon="-1.15604">
        <ele>10.8</ele>
        <time>2025-07-01T12:46:52Z</time>
      </trkpt>
      <trkpt lat="46.15862" lon="-1.15612">
        <ele>10.8</ele>
        <time>2025-07-01T12:46:56Z</time>
      </trkpt>
      <trkpt lat="46.15863" lon="-1.15613">
        <ele>10.8</ele>
        <time>2025-07-01T12:46:57Z</time>
      </trkpt>
      <trkpt lat="46.15864" lon="-1.15616">
        <ele>10.8</ele>
        <time>2025-07-01T12:47:00Z</time>
      </trkpt>
      <trkpt lat="46.15868" lon="-1.15629">
        <ele>10.8</ele>
        <time>2025-07-01T12:47:08Z</time>
      </trkpt>
      <trkpt lat="46.15876" lon="-1.15629">
        <ele>10.6</ele>
        <time>2025-07-01T12:47:14Z</time>
      </trkpt>
      <trkpt lat="46.15882" lon="-1.1563">
        <ele>10.4</ele>
        <time>2025-07-01T12:47:19Z</time>
      </trkpt>
      <trkpt lat="46.15883" lon="-1.1563">
        <ele>10.4</ele>
        <time>2025-07-01T12:47:21Z</time>
      </trkpt>
      <trkpt lat="46.15883" lon="-1.15629">
        <ele>10.2</ele>
        <time>2025-07-01T12:47:22Z</time>
      </trkpt>
      <trkpt lat="46.15883" lon="-1.15628">
        <ele>10.2</ele>
        <time>2025-07-01T12:47:23Z</time>
      </trkpt>
      <trkpt lat="46.15886" lon="-1.15628">
        <ele>10</ele>
        <time>2025-07-01T12:47:26Z</time>
      </trkpt>
      <trkpt lat="46.15892" lon="-1.15627">
        <ele>10.4</ele>
        <time>2025-07-01T12:47:32Z</time>
      </trkpt>
      <trkpt lat="46.15901" lon="-1.15623">
        <ele>10</ele>
        <time>2025-07-01T12:47:38Z</time>
      </trkpt>
      <trkpt lat="46.15908" lon="-1.15621">
        <ele>9.8</ele>
        <time>2025-07-01T12:47:45Z</time>
      </trkpt>
      <trkpt lat="46.15912" lon="-1.15619">
        <ele>9.6</ele>
        <time>2025-07-01T12:47:48Z</time>
      </trkpt>
      <trkpt lat="46.15918" lon="-1.15616">
        <ele>9.6</ele>
        <time>2025-07-01T12:47:52Z</time>
      </trkpt>
      <trkpt lat="46.15922" lon="-1.15614">
        <ele>9.6</ele>
        <time>2025-07-01T12:47:55Z</time>
      </trkpt>
      <trkpt lat="46.15926" lon="-1.15614">
        <ele>9.8</ele>
        <time>2025-07-01T12:47:59Z</time>
      </trkpt>
      <trkpt lat="46.15936" lon="-1.1561">
        <ele>9.8</ele>
        <time>2025-07-01T12:48:06Z</time>
      </trkpt>
      <trkpt lat="46.15943" lon="-1.15607">
        <ele>9.6</ele>
        <time>2025-07-01T12:48:12Z</time>
      </trkpt>
      <trkpt lat="46.15953" lon="-1.15602">
        <ele>9.4</ele>
        <time>2025-07-01T12:48:19Z</time>
      </trkpt>
      <trkpt lat="46.15959" lon="-1.156">
        <ele>9.6</ele>
        <time>2025-07-01T12:48:24Z</time>
      </trkpt>
      <trkpt lat="46.15961" lon="-1.15599">
        <ele>9.8</ele>
        <time>2025-07-01T12:48:26Z</time>
      </trkpt>
      <trkpt lat="46.15968" lon="-1.15598">
        <ele>9.8</ele>
        <time>2025-07-01T12:48:32Z</time>
      </trkpt>
      <trkpt lat="46.15977" lon="-1.15598">
        <ele>9.2</ele>
        <time>2025-07-01T12:48:38Z</time>
      </trkpt>
      <trkpt lat="46.15978" lon="-1.15598">
        <ele>9.2</ele>
        <time>2025-07-01T12:48:39Z</time>
      </trkpt>
      <trkpt lat="46.15985" lon="-1.15595">
        <ele>10</ele>
        <time>2025-07-01T12:48:45Z</time>
      </trkpt>
      <trkpt lat="46.15996" lon="-1.15592">
        <ele>10</ele>
        <time>2025-07-01T12:48:55Z</time>
      </trkpt>
      <trkpt lat="46.15998" lon="-1.1559">
        <ele>9.8</ele>
        <time>2025-07-01T12:48:57Z</time>
      </trkpt>
      <trkpt lat="46.15999" lon="-1.15589">
        <ele>9.8</ele>
        <time>2025-07-01T12:48:59Z</time>
      </trkpt>
      <trkpt lat="46.16" lon="-1.1559">
        <ele>9.6</ele>
        <time>2025-07-01T12:49:00Z</time>
      </trkpt>
      <trkpt lat="46.16" lon="-1.15591">
        <ele>9.6</ele>
        <time>2025-07-01T12:49:01Z</time>
      </trkpt>
      <trkpt lat="46.16" lon="-1.15592">
        <ele>9.6</ele>
        <time>2025-07-01T12:49:04Z</time>
      </trkpt>
      <trkpt lat="46.16003" lon="-1.15588">
        <ele>10</ele>
        <time>2025-07-01T12:49:09Z</time>
      </trkpt>
      <trkpt lat="46.16005" lon="-1.15594">
        <ele>10</ele>
        <time>2025-07-01T12:49:13Z</time>
      </trkpt>
      <trkpt lat="46.16008" lon="-1.156">
        <ele>10.4</ele>
        <time>2025-07-01T12:49:18Z</time>
      </trkpt>
      <trkpt lat="46.16011" lon="-1.15604">
        <ele>10.4</ele>
        <time>2025-07-01T12:49:21Z</time>
      </trkpt>
      <trkpt lat="46.16013" lon="-1.15607">
        <ele>10.2</ele>
        <time>2025-07-01T12:49:23Z</time>
      </trkpt>
      <trkpt lat="46.16017" lon="-1.15611">
        <ele>9.8</ele>
        <time>2025-07-01T12:49:27Z</time>
      </trkpt>
      <trkpt lat="46.16018" lon="-1.15613">
        <ele>9.8</ele>
        <time>2025-07-01T12:49:28Z</time>
      </trkpt>
      <trkpt lat="46.16021" lon="-1.15616">
        <ele>9.8</ele>
        <time>2025-07-01T12:49:31Z</time>
      </trkpt>
      <trkpt lat="46.16021" lon="-1.15618">
        <ele>9.8</ele>
        <time>2025-07-01T12:49:32Z</time>
      </trkpt>
      <trkpt lat="46.16021" lon="-1.1562">
        <ele>9.8</ele>
        <time>2025-07-01T12:49:33Z</time>
      </trkpt>
      <trkpt lat="46.16021" lon="-1.15624">
        <ele>9.8</ele>
        <time>2025-07-01T12:49:35Z</time>
      </trkpt>
      <trkpt lat="46.16021" lon="-1.15626">
        <ele>9.8</ele>
        <time>2025-07-01T12:49:36Z</time>
      </trkpt>
      <trkpt lat="46.16024" lon="-1.15631">
        <ele>9.8</ele>
        <time>2025-07-01T12:49:40Z</time>
      </trkpt>
      <trkpt lat="46.16026" lon="-1.15634">
        <ele>9.8</ele>
        <time>2025-07-01T12:49:42Z</time>
      </trkpt>
      <trkpt lat="46.16028" lon="-1.15638">
        <ele>10</ele>
        <time>2025-07-01T12:49:45Z</time>
      </trkpt>
      <trkpt lat="46.16029" lon="-1.1564">
        <ele>10.2</ele>
        <time>2025-07-01T12:49:47Z</time>
      </trkpt>
      <trkpt lat="46.16029" lon="-1.15641">
        <ele>10.4</ele>
        <time>2025-07-01T12:49:48Z</time>
      </trkpt>
      <trkpt lat="46.1603" lon="-1.15644">
        <ele>10.4</ele>
        <time>2025-07-01T12:49:50Z</time>
      </trkpt>
      <trkpt lat="46.16032" lon="-1.15647">
        <ele>10.4</ele>
        <time>2025-07-01T12:49:52Z</time>
      </trkpt>
      <trkpt lat="46.16032" lon="-1.15651">
        <ele>10.4</ele>
        <time>2025-07-01T12:49:54Z</time>
      </trkpt>
      <trkpt lat="46.16032" lon="-1.15652">
        <ele>10.4</ele>
        <time>2025-07-01T12:49:55Z</time>
      </trkpt>
      <trkpt lat="46.16035" lon="-1.15657">
        <ele>10.2</ele>
        <time>2025-07-01T12:49:58Z</time>
      </trkpt>
      <trkpt lat="46.16035" lon="-1.1566">
        <ele>10.2</ele>
        <time>2025-07-01T12:50:00Z</time>
      </trkpt>
      <trkpt lat="46.1604" lon="-1.15665">
        <ele>10.6</ele>
        <time>2025-07-01T12:50:04Z</time>
      </trkpt>
      <trkpt lat="46.16042" lon="-1.15676">
        <ele>10.6</ele>
        <time>2025-07-01T12:50:10Z</time>
      </trkpt>
      <trkpt lat="46.16043" lon="-1.15677">
        <ele>10.4</ele>
        <time>2025-07-01T12:50:11Z</time>
      </trkpt>
      <trkpt lat="46.16044" lon="-1.15686">
        <ele>10.4</ele>
        <time>2025-07-01T12:50:17Z</time>
      </trkpt>
      <trkpt lat="46.16043" lon="-1.15689">
        <ele>10.2</ele>
        <time>2025-07-01T12:50:19Z</time>
      </trkpt>
      <trkpt lat="46.16042" lon="-1.1569">
        <ele>10.2</ele>
        <time>2025-07-01T12:50:20Z</time>
      </trkpt>
      <trkpt lat="46.16039" lon="-1.1569">
        <ele>9.8</ele>
        <time>2025-07-01T12:50:24Z</time>
      </trkpt>
      <trkpt lat="46.16036" lon="-1.15693">
        <ele>9.4</ele>
        <time>2025-07-01T12:50:27Z</time>
      </trkpt>
      <trkpt lat="46.16032" lon="-1.15695">
        <ele>8.8</ele>
        <time>2025-07-01T12:50:29Z</time>
      </trkpt>
      <trkpt lat="46.16028" lon="-1.15697">
        <ele>8.4</ele>
        <time>2025-07-01T12:50:32Z</time>
      </trkpt>
      <trkpt lat="46.16025" lon="-1.15697">
        <ele>8</ele>
        <time>2025-07-01T12:50:34Z</time>
      </trkpt>
      <trkpt lat="46.16023" lon="-1.15698">
        <ele>7.8</ele>
        <time>2025-07-01T12:50:35Z</time>
      </trkpt>
      <trkpt lat="46.16022" lon="-1.157">
        <ele>7.8</ele>
        <time>2025-07-01T12:50:36Z</time>
      </trkpt>
      <trkpt lat="46.1602" lon="-1.15703">
        <ele>7.6</ele>
        <time>2025-07-01T12:50:38Z</time>
      </trkpt>
      <trkpt lat="46.16019" lon="-1.15707">
        <ele>7.6</ele>
        <time>2025-07-01T12:50:40Z</time>
      </trkpt>
      <trkpt lat="46.16011" lon="-1.15724">
        <ele>8</ele>
        <time>2025-07-01T12:50:50Z</time>
      </trkpt>
      <trkpt lat="46.16005" lon="-1.15736">
        <ele>7.6</ele>
        <time>2025-07-01T12:50:59Z</time>
      </trkpt>
      <trkpt lat="46.15996" lon="-1.15745">
        <ele>7.8</ele>
        <time>2025-07-01T12:51:07Z</time>
      </trkpt>
      <trkpt lat="46.15988" lon="-1.15757">
        <ele>7.6</ele>
        <time>2025-07-01T12:51:15Z</time>
      </trkpt>
      <trkpt lat="46.15981" lon="-1.15766">
        <ele>7.6</ele>
        <time>2025-07-01T12:51:23Z</time>
      </trkpt>
      <trkpt lat="46.15978" lon="-1.15773">
        <ele>7.6</ele>
        <time>2025-07-01T12:51:29Z</time>
      </trkpt>
      <trkpt lat="46.15978" lon="-1.15774">
        <ele>7.8</ele>
        <time>2025-07-01T12:51:31Z</time>
      </trkpt>
      <trkpt lat="46.15979" lon="-1.15775">
        <ele>7.6</ele>
        <time>2025-07-01T12:51:36Z</time>
      </trkpt>
      <trkpt lat="46.15976" lon="-1.1578">
        <ele>8.2</ele>
        <time>2025-07-01T12:51:42Z</time>
      </trkpt>
      <trkpt lat="46.15976" lon="-1.15781">
        <ele>8.4</ele>
        <time>2025-07-01T12:51:48Z</time>
      </trkpt>
      <trkpt lat="46.15978" lon="-1.15778">
        <ele>8.2</ele>
        <time>2025-07-01T12:51:50Z</time>
      </trkpt>
      <trkpt lat="46.15979" lon="-1.15776">
        <ele>8</ele>
        <time>2025-07-01T12:52:09Z</time>
      </trkpt>
      <trkpt lat="46.1598" lon="-1.15775">
        <ele>8</ele>
        <time>2025-07-01T12:52:18Z</time>
      </trkpt>
      <trkpt lat="46.15976" lon="-1.1578">
        <ele>7.6</ele>
        <time>2025-07-01T12:52:22Z</time>
      </trkpt>
      <trkpt lat="46.15966" lon="-1.15792">
        <ele>7.4</ele>
        <time>2025-07-01T12:52:30Z</time>
      </trkpt>
      <trkpt lat="46.1596" lon="-1.15805">
        <ele>7.4</ele>
        <time>2025-07-01T12:52:39Z</time>
      </trkpt>
      <trkpt lat="46.15959" lon="-1.15806">
        <ele>7.4</ele>
        <time>2025-07-01T12:52:40Z</time>
      </trkpt>
      <trkpt lat="46.15958" lon="-1.15806">
        <ele>7.2</ele>
        <time>2025-07-01T12:52:41Z</time>
      </trkpt>
      <trkpt lat="46.15949" lon="-1.15809">
        <ele>7.6</ele>
        <time>2025-07-01T12:52:49Z</time>
      </trkpt>
      <trkpt lat="46.15944" lon="-1.15808">
        <ele>7.6</ele>
        <time>2025-07-01T12:52:53Z</time>
      </trkpt>
      <trkpt lat="46.15941" lon="-1.15811">
        <ele>7.6</ele>
        <time>2025-07-01T12:52:55Z</time>
      </trkpt>
      <trkpt lat="46.15939" lon="-1.15811">
        <ele>7.6</ele>
        <time>2025-07-01T12:52:58Z</time>
      </trkpt>
      <trkpt lat="46.15939" lon="-1.1581">
        <ele>7.6</ele>
        <time>2025-07-01T12:53:01Z</time>
      </trkpt>
      <trkpt lat="46.15934" lon="-1.15812">
        <ele>7.4</ele>
        <time>2025-07-01T12:53:07Z</time>
      </trkpt>
      <trkpt lat="46.15931" lon="-1.15812">
        <ele>7.4</ele>
        <time>2025-07-01T12:53:10Z</time>
      </trkpt>
      <trkpt lat="46.15928" lon="-1.15811">
        <ele>7.6</ele>
        <time>2025-07-01T12:53:14Z</time>
      </trkpt>
      <trkpt lat="46.15919" lon="-1.1581">
        <ele>7.4</ele>
        <time>2025-07-01T12:53:22Z</time>
      </trkpt>
      <trkpt lat="46.15918" lon="-1.1581">
        <ele>7.4</ele>
        <time>2025-07-01T12:53:23Z</time>
      </trkpt>
      <trkpt lat="46.15916" lon="-1.1581">
        <ele>7.4</ele>
        <time>2025-07-01T12:53:24Z</time>
      </trkpt>
      <trkpt lat="46.15913" lon="-1.15807">
        <ele>7.4</ele>
        <time>2025-07-01T12:53:28Z</time>
      </trkpt>
      <trkpt lat="46.1591" lon="-1.15806">
        <ele>7.4</ele>
        <time>2025-07-01T12:53:31Z</time>
      </trkpt>
      <trkpt lat="46.15902" lon="-1.15807">
        <ele>7.4</ele>
        <time>2025-07-01T12:53:35Z</time>
      </trkpt>
      <trkpt lat="46.15895" lon="-1.15806">
        <ele>7.6</ele>
        <time>2025-07-01T12:53:42Z</time>
      </trkpt>
      <trkpt lat="46.15893" lon="-1.15805">
        <ele>7.6</ele>
        <time>2025-07-01T12:53:44Z</time>
      </trkpt>
      <trkpt lat="46.15891" lon="-1.15804">
        <ele>7.4</ele>
        <time>2025-07-01T12:53:46Z</time>
      </trkpt>
      <trkpt lat="46.15889" lon="-1.15803">
        <ele>7.4</ele>
        <time>2025-07-01T12:53:48Z</time>
      </trkpt>
      <trkpt lat="46.15889" lon="-1.15803">
        <ele>7.4</ele>
        <time>2025-07-01T12:53:49Z</time>
      </trkpt>
      <trkpt lat="46.15888" lon="-1.15803">
        <ele>7.4</ele>
        <time>2025-07-01T12:53:51Z</time>
      </trkpt>
      <trkpt lat="46.15884" lon="-1.15799">
        <ele>7.6</ele>
        <time>2025-07-01T12:53:55Z</time>
      </trkpt>
      <trkpt lat="46.15881" lon="-1.15799">
        <ele>7.6</ele>
        <time>2025-07-01T12:53:57Z</time>
      </trkpt>
      <trkpt lat="46.15873" lon="-1.158">
        <ele>7.6</ele>
        <time>2025-07-01T12:54:01Z</time>
      </trkpt>
      <trkpt lat="46.15862" lon="-1.15805">
        <ele>8</ele>
        <time>2025-07-01T12:54:09Z</time>
      </trkpt>
      <trkpt lat="46.15846" lon="-1.15805">
        <ele>8</ele>
        <time>2025-07-01T12:54:19Z</time>
      </trkpt>
      <trkpt lat="46.15838" lon="-1.15807">
        <ele>7.8</ele>
        <time>2025-07-01T12:54:22Z</time>
      </trkpt>
      <trkpt lat="46.15836" lon="-1.15809">
        <ele>7.8</ele>
        <time>2025-07-01T12:54:23Z</time>
      </trkpt>
      <trkpt lat="46.15832" lon="-1.15816">
        <ele>8</ele>
        <time>2025-07-01T12:54:28Z</time>
      </trkpt>
      <trkpt lat="46.15831" lon="-1.15818">
        <ele>8</ele>
        <time>2025-07-01T12:54:30Z</time>
      </trkpt>
      <trkpt lat="46.15831" lon="-1.15821">
        <ele>8.2</ele>
        <time>2025-07-01T12:54:32Z</time>
      </trkpt>
      <trkpt lat="46.15831" lon="-1.15822">
        <ele>8.2</ele>
        <time>2025-07-01T12:54:33Z</time>
      </trkpt>
      <trkpt lat="46.15831" lon="-1.15823">
        <ele>8.2</ele>
        <time>2025-07-01T12:54:34Z</time>
      </trkpt>
      <trkpt lat="46.15829" lon="-1.1583">
        <ele>8.2</ele>
        <time>2025-07-01T12:54:39Z</time>
      </trkpt>
      <trkpt lat="46.15829" lon="-1.15834">
        <ele>8</ele>
        <time>2025-07-01T12:54:41Z</time>
      </trkpt>
      <trkpt lat="46.15825" lon="-1.15844">
        <ele>7.8</ele>
        <time>2025-07-01T12:54:47Z</time>
      </trkpt>
      <trkpt lat="46.15825" lon="-1.15846">
        <ele>7.8</ele>
        <time>2025-07-01T12:54:48Z</time>
      </trkpt>
      <trkpt lat="46.15822" lon="-1.15855">
        <ele>7.8</ele>
        <time>2025-07-01T12:54:55Z</time>
      </trkpt>
      <trkpt lat="46.15822" lon="-1.15858">
        <ele>8</ele>
        <time>2025-07-01T12:54:57Z</time>
      </trkpt>
      <trkpt lat="46.15822" lon="-1.15859">
        <ele>8</ele>
        <time>2025-07-01T12:54:58Z</time>
      </trkpt>
      <trkpt lat="46.15822" lon="-1.15861">
        <ele>8</ele>
        <time>2025-07-01T12:55:00Z</time>
      </trkpt>
      <trkpt lat="46.15822" lon="-1.15863">
        <ele>8.2</ele>
        <time>2025-07-01T12:55:02Z</time>
      </trkpt>
      <trkpt lat="46.1582" lon="-1.15863">
        <ele>8.2</ele>
        <time>2025-07-01T12:55:04Z</time>
      </trkpt>
      <trkpt lat="46.15816" lon="-1.15862">
        <ele>8.2</ele>
        <time>2025-07-01T12:55:08Z</time>
      </trkpt>
      <trkpt lat="46.15812" lon="-1.15861">
        <ele>8.2</ele>
        <time>2025-07-01T12:55:11Z</time>
      </trkpt>
      <trkpt lat="46.1581" lon="-1.15862">
        <ele>8.2</ele>
        <time>2025-07-01T12:55:13Z</time>
      </trkpt>
      <trkpt lat="46.15809" lon="-1.15862">
        <ele>8.2</ele>
        <time>2025-07-01T12:55:14Z</time>
      </trkpt>
      <trkpt lat="46.15799" lon="-1.15859">
        <ele>8</ele>
        <time>2025-07-01T12:55:22Z</time>
      </trkpt>
      <trkpt lat="46.15796" lon="-1.15857">
        <ele>7.8</ele>
        <time>2025-07-01T12:55:27Z</time>
      </trkpt>
      <trkpt lat="46.15797" lon="-1.15856">
        <ele>8</ele>
        <time>2025-07-01T12:55:32Z</time>
      </trkpt>
      <trkpt lat="46.15797" lon="-1.15856">
        <ele>8</ele>
        <time>2025-07-01T12:55:33Z</time>
      </trkpt>
      <trkpt lat="46.15796" lon="-1.15857">
        <ele>8.4</ele>
        <time>2025-07-01T12:55:37Z</time>
      </trkpt>
      <trkpt lat="46.15796" lon="-1.15859">
        <ele>8.4</ele>
        <time>2025-07-01T12:55:40Z</time>
      </trkpt>
      <trkpt lat="46.15793" lon="-1.15864">
        <ele>8</ele>
        <time>2025-07-01T12:55:48Z</time>
      </trkpt>
      <trkpt lat="46.15787" lon="-1.15866">
        <ele>8.4</ele>
        <time>2025-07-01T12:55:54Z</time>
      </trkpt>
      <trkpt lat="46.15777" lon="-1.15866">
        <ele>8.4</ele>
        <time>2025-07-01T12:56:02Z</time>
      </trkpt>
      <trkpt lat="46.15767" lon="-1.15867">
        <ele>8.2</ele>
        <time>2025-07-01T12:56:09Z</time>
      </trkpt>
      <trkpt lat="46.15757" lon="-1.15866">
        <ele>8.2</ele>
        <time>2025-07-01T12:56:18Z</time>
      </trkpt>
      <trkpt lat="46.15755" lon="-1.15867">
        <ele>8.2</ele>
        <time>2025-07-01T12:56:20Z</time>
      </trkpt>
      <trkpt lat="46.15753" lon="-1.15867">
        <ele>8.2</ele>
        <time>2025-07-01T12:56:22Z</time>
      </trkpt>
      <trkpt lat="46.15749" lon="-1.15867">
        <ele>8.2</ele>
        <time>2025-07-01T12:56:26Z</time>
      </trkpt>
      <trkpt lat="46.15739" lon="-1.15865">
        <ele>8</ele>
        <time>2025-07-01T12:56:35Z</time>
      </trkpt>
      <trkpt lat="46.15738" lon="-1.15865">
        <ele>8</ele>
        <time>2025-07-01T12:56:37Z</time>
      </trkpt>
      <trkpt lat="46.15734" lon="-1.15865">
        <ele>8</ele>
        <time>2025-07-01T12:56:41Z</time>
      </trkpt>
      <trkpt lat="46.15722" lon="-1.15863">
        <ele>8.2</ele>
        <time>2025-07-01T12:56:49Z</time>
      </trkpt>
      <trkpt lat="46.15716" lon="-1.15864">
        <ele>8</ele>
        <time>2025-07-01T12:56:55Z</time>
      </trkpt>
      <trkpt lat="46.15714" lon="-1.15865">
        <ele>8.2</ele>
        <time>2025-07-01T12:56:57Z</time>
      </trkpt>
      <trkpt lat="46.15708" lon="-1.15868">
        <ele>8.2</ele>
        <time>2025-07-01T12:57:00Z</time>
      </trkpt>
      <trkpt lat="46.15704" lon="-1.15871">
        <ele>8.2</ele>
        <time>2025-07-01T12:57:02Z</time>
      </trkpt>
      <trkpt lat="46.15702" lon="-1.15873">
        <ele>8.2</ele>
        <time>2025-07-01T12:57:04Z</time>
      </trkpt>
      <trkpt lat="46.157" lon="-1.15875">
        <ele>8.2</ele>
        <time>2025-07-01T12:57:06Z</time>
      </trkpt>
      <trkpt lat="46.15693" lon="-1.15884">
        <ele>8</ele>
        <time>2025-07-01T12:57:14Z</time>
      </trkpt>
      <trkpt lat="46.15691" lon="-1.15889">
        <ele>8</ele>
        <time>2025-07-01T12:57:18Z</time>
      </trkpt>
      <trkpt lat="46.1569" lon="-1.15891">
        <ele>8</ele>
        <time>2025-07-01T12:57:20Z</time>
      </trkpt>
      <trkpt lat="46.15689" lon="-1.15894">
        <ele>8</ele>
        <time>2025-07-01T12:57:22Z</time>
      </trkpt>
      <trkpt lat="46.15688" lon="-1.15896">
        <ele>8</ele>
        <time>2025-07-01T12:57:24Z</time>
      </trkpt>
      <trkpt lat="46.15684" lon="-1.15903">
        <ele>8</ele>
        <time>2025-07-01T12:57:27Z</time>
      </trkpt>
      <trkpt lat="46.15683" lon="-1.15906">
        <ele>8</ele>
        <time>2025-07-01T12:57:29Z</time>
      </trkpt>
      <trkpt lat="46.15679" lon="-1.15917">
        <ele>7.8</ele>
        <time>2025-07-01T12:57:36Z</time>
      </trkpt>
      <trkpt lat="46.15679" lon="-1.15919">
        <ele>7.8</ele>
        <time>2025-07-01T12:57:39Z</time>
      </trkpt>
      <trkpt lat="46.15677" lon="-1.15922">
        <ele>8</ele>
        <time>2025-07-01T12:57:42Z</time>
      </trkpt>
      <trkpt lat="46.15677" lon="-1.15924">
        <ele>8.2</ele>
        <time>2025-07-01T12:57:43Z</time>
      </trkpt>
      <trkpt lat="46.15677" lon="-1.15926">
        <ele>8.2</ele>
        <time>2025-07-01T12:57:44Z</time>
      </trkpt>
      <trkpt lat="46.15674" lon="-1.15933">
        <ele>8.2</ele>
        <time>2025-07-01T12:57:48Z</time>
      </trkpt>
      <trkpt lat="46.15673" lon="-1.15937">
        <ele>8</ele>
        <time>2025-07-01T12:57:51Z</time>
      </trkpt>
      <trkpt lat="46.15672" lon="-1.15942">
        <ele>8</ele>
        <time>2025-07-01T12:57:53Z</time>
      </trkpt>
      <trkpt lat="46.15671" lon="-1.15947">
        <ele>8</ele>
        <time>2025-07-01T12:57:56Z</time>
      </trkpt>
      <trkpt lat="46.15667" lon="-1.15961">
        <ele>8.2</ele>
        <time>2025-07-01T12:58:03Z</time>
      </trkpt>
      <trkpt lat="46.15666" lon="-1.15965">
        <ele>8</ele>
        <time>2025-07-01T12:58:05Z</time>
      </trkpt>
      <trkpt lat="46.15667" lon="-1.15966">
        <ele>8</ele>
        <time>2025-07-01T12:58:06Z</time>
      </trkpt>
      <trkpt lat="46.15668" lon="-1.15969">
        <ele>7.8</ele>
        <time>2025-07-01T12:58:08Z</time>
      </trkpt>
      <trkpt lat="46.15669" lon="-1.15972">
        <ele>7.8</ele>
        <time>2025-07-01T12:58:10Z</time>
      </trkpt>
      <trkpt lat="46.1567" lon="-1.15974">
        <ele>7.8</ele>
        <time>2025-07-01T12:58:12Z</time>
      </trkpt>
      <trkpt lat="46.15671" lon="-1.15976">
        <ele>7.8</ele>
        <time>2025-07-01T12:58:15Z</time>
      </trkpt>
      <trkpt lat="46.15672" lon="-1.15978">
        <ele>7.4</ele>
        <time>2025-07-01T12:58:21Z</time>
      </trkpt>
      <trkpt lat="46.15678" lon="-1.15981">
        <ele>7.6</ele>
        <time>2025-07-01T12:58:25Z</time>
      </trkpt>
      <trkpt lat="46.15682" lon="-1.15983">
        <ele>7.8</ele>
        <time>2025-07-01T12:58:28Z</time>
      </trkpt>
      <trkpt lat="46.15684" lon="-1.15986">
        <ele>7.8</ele>
        <time>2025-07-01T12:58:30Z</time>
      </trkpt>
      <trkpt lat="46.15687" lon="-1.15988">
        <ele>8.2</ele>
        <time>2025-07-01T12:58:33Z</time>
      </trkpt>
      <trkpt lat="46.15688" lon="-1.15987">
        <ele>8.4</ele>
        <time>2025-07-01T12:58:34Z</time>
      </trkpt>
      <trkpt lat="46.15689" lon="-1.15987">
        <ele>8.6</ele>
        <time>2025-07-01T12:58:35Z</time>
      </trkpt>
      <trkpt lat="46.1569" lon="-1.15988">
        <ele>8.8</ele>
        <time>2025-07-01T12:58:37Z</time>
      </trkpt>
      <trkpt lat="46.15692" lon="-1.15994">
        <ele>8.6</ele>
        <time>2025-07-01T12:58:41Z</time>
      </trkpt>
      <trkpt lat="46.15689" lon="-1.16">
        <ele>8.4</ele>
        <time>2025-07-01T12:58:47Z</time>
      </trkpt>
      <trkpt lat="46.15687" lon="-1.16004">
        <ele>8.4</ele>
        <time>2025-07-01T12:58:50Z</time>
      </trkpt>
      <trkpt lat="46.15687" lon="-1.16008">
        <ele>8.2</ele>
        <time>2025-07-01T12:58:53Z</time>
      </trkpt>
      <trkpt lat="46.15685" lon="-1.16014">
        <ele>8.2</ele>
        <time>2025-07-01T12:58:58Z</time>
      </trkpt>
      <trkpt lat="46.15686" lon="-1.16015">
        <ele>8.4</ele>
        <time>2025-07-01T12:58:59Z</time>
      </trkpt>
      <trkpt lat="46.15683" lon="-1.1602">
        <ele>8.8</ele>
        <time>2025-07-01T12:59:03Z</time>
      </trkpt>
      <trkpt lat="46.15682" lon="-1.16022">
        <ele>8.6</ele>
        <time>2025-07-01T12:59:04Z</time>
      </trkpt>
      <trkpt lat="46.15679" lon="-1.16027">
        <ele>8.6</ele>
        <time>2025-07-01T12:59:11Z</time>
      </trkpt>
      <trkpt lat="46.15675" lon="-1.16032">
        <ele>8.2</ele>
        <time>2025-07-01T12:59:19Z</time>
      </trkpt>
      <trkpt lat="46.15675" lon="-1.16041">
        <ele>8</ele>
        <time>2025-07-01T12:59:26Z</time>
      </trkpt>
      <trkpt lat="46.15675" lon="-1.16042">
        <ele>7.8</ele>
        <time>2025-07-01T12:59:27Z</time>
      </trkpt>
      <trkpt lat="46.15676" lon="-1.16048">
        <ele>7.8</ele>
        <time>2025-07-01T12:59:31Z</time>
      </trkpt>
      <trkpt lat="46.15679" lon="-1.1605">
        <ele>7.6</ele>
        <time>2025-07-01T12:59:34Z</time>
      </trkpt>
      <trkpt lat="46.15681" lon="-1.16051">
        <ele>8</ele>
        <time>2025-07-01T12:59:37Z</time>
      </trkpt>
      <trkpt lat="46.15683" lon="-1.16053">
        <ele>8.2</ele>
        <time>2025-07-01T12:59:42Z</time>
      </trkpt>
      <trkpt lat="46.15685" lon="-1.16052">
        <ele>8</ele>
        <time>2025-07-01T12:59:47Z</time>
      </trkpt>
      <trkpt lat="46.15687" lon="-1.16053">
        <ele>8</ele>
        <time>2025-07-01T12:59:53Z</time>
      </trkpt>
      <trkpt lat="46.15688" lon="-1.16058">
        <ele>7.2</ele>
        <time>2025-07-01T12:59:58Z</time>
      </trkpt>
      <trkpt lat="46.15689" lon="-1.16059">
        <ele>7.2</ele>
        <time>2025-07-01T12:59:59Z</time>
      </trkpt>
      <trkpt lat="46.1569" lon="-1.16066">
        <ele>7</ele>
        <time>2025-07-01T13:00:04Z</time>
      </trkpt>
      <trkpt lat="46.15689" lon="-1.16071">
        <ele>7</ele>
        <time>2025-07-01T13:00:07Z</time>
      </trkpt>
      <trkpt lat="46.15689" lon="-1.16073">
        <ele>7</ele>
        <time>2025-07-01T13:00:09Z</time>
      </trkpt>
      <trkpt lat="46.15689" lon="-1.16074">
        <ele>7</ele>
        <time>2025-07-01T13:00:12Z</time>
      </trkpt>
      <trkpt lat="46.15687" lon="-1.16075">
        <ele>6.6</ele>
        <time>2025-07-01T13:00:19Z</time>
      </trkpt>
      <trkpt lat="46.15682" lon="-1.16075">
        <ele>6.4</ele>
        <time>2025-07-01T13:00:26Z</time>
      </trkpt>
      <trkpt lat="46.15673" lon="-1.16077">
        <ele>6.4</ele>
        <time>2025-07-01T13:00:34Z</time>
      </trkpt>
      <trkpt lat="46.15664" lon="-1.16077">
        <ele>6.4</ele>
        <time>2025-07-01T13:00:41Z</time>
      </trkpt>
      <trkpt lat="46.15663" lon="-1.16078">
        <ele>6.4</ele>
        <time>2025-07-01T13:00:42Z</time>
      </trkpt>
      <trkpt lat="46.15662" lon="-1.16081">
        <ele>6.6</ele>
        <time>2025-07-01T13:00:47Z</time>
      </trkpt>
      <trkpt lat="46.15661" lon="-1.16083">
        <ele>6.6</ele>
        <time>2025-07-01T13:00:53Z</time>
      </trkpt>
      <trkpt lat="46.15657" lon="-1.16084">
        <ele>6.8</ele>
        <time>2025-07-01T13:01:00Z</time>
      </trkpt>
      <trkpt lat="46.15654" lon="-1.16089">
        <ele>6.6</ele>
        <time>2025-07-01T13:01:07Z</time>
      </trkpt>
      <trkpt lat="46.15655" lon="-1.16092">
        <ele>6.4</ele>
        <time>2025-07-01T13:01:15Z</time>
      </trkpt>
      <trkpt lat="46.15652" lon="-1.16094">
        <ele>6.2</ele>
        <time>2025-07-01T13:01:30Z</time>
      </trkpt>
      <trkpt lat="46.15648" lon="-1.16098">
        <ele>6.2</ele>
        <time>2025-07-01T13:01:32Z</time>
      </trkpt>
      <trkpt lat="46.15641" lon="-1.16106">
        <ele>6.2</ele>
        <time>2025-07-01T13:01:37Z</time>
      </trkpt>
      <trkpt lat="46.15639" lon="-1.16108">
        <ele>6.4</ele>
        <time>2025-07-01T13:01:39Z</time>
      </trkpt>
      <trkpt lat="46.15636" lon="-1.16115">
        <ele>6.4</ele>
        <time>2025-07-01T13:01:43Z</time>
      </trkpt>
      <trkpt lat="46.15638" lon="-1.16123">
        <ele>6.6</ele>
        <time>2025-07-01T13:01:48Z</time>
      </trkpt>
      <trkpt lat="46.1564" lon="-1.16124">
        <ele>6.6</ele>
        <time>2025-07-01T13:01:50Z</time>
      </trkpt>
      <trkpt lat="46.15642" lon="-1.16129">
        <ele>6.4</ele>
        <time>2025-07-01T13:01:54Z</time>
      </trkpt>
      <trkpt lat="46.15643" lon="-1.16132">
        <ele>6</ele>
        <time>2025-07-01T13:01:57Z</time>
      </trkpt>
      <trkpt lat="46.15644" lon="-1.16139">
        <ele>5.8</ele>
        <time>2025-07-01T13:02:03Z</time>
      </trkpt>
      <trkpt lat="46.15644" lon="-1.16143">
        <ele>5.8</ele>
        <time>2025-07-01T13:02:05Z</time>
      </trkpt>
      <trkpt lat="46.15643" lon="-1.16148">
        <ele>5.8</ele>
        <time>2025-07-01T13:02:08Z</time>
      </trkpt>
      <trkpt lat="46.15642" lon="-1.16161">
        <ele>6.2</ele>
        <time>2025-07-01T13:02:15Z</time>
      </trkpt>
      <trkpt lat="46.15641" lon="-1.16171">
        <ele>6.2</ele>
        <time>2025-07-01T13:02:19Z</time>
      </trkpt>
      <trkpt lat="46.15639" lon="-1.16179">
        <ele>6</ele>
        <time>2025-07-01T13:02:23Z</time>
      </trkpt>
      <trkpt lat="46.15643" lon="-1.16185">
        <ele>6.2</ele>
        <time>2025-07-01T13:02:28Z</time>
      </trkpt>
      <trkpt lat="46.15643" lon="-1.16187">
        <ele>6.2</ele>
        <time>2025-07-01T13:02:29Z</time>
      </trkpt>
      <trkpt lat="46.15643" lon="-1.16193">
        <ele>6.6</ele>
        <time>2025-07-01T13:02:32Z</time>
      </trkpt>
      <trkpt lat="46.15644" lon="-1.16196">
        <ele>6.8</ele>
        <time>2025-07-01T13:02:35Z</time>
      </trkpt>
      <trkpt lat="46.15644" lon="-1.16202">
        <ele>7</ele>
        <time>2025-07-01T13:02:39Z</time>
      </trkpt>
      <trkpt lat="46.15642" lon="-1.16204">
        <ele>7.2</ele>
        <time>2025-07-01T13:02:41Z</time>
      </trkpt>
      <trkpt lat="46.15641" lon="-1.16205">
        <ele>7.2</ele>
        <time>2025-07-01T13:02:42Z</time>
      </trkpt>
      <trkpt lat="46.15639" lon="-1.16206">
        <ele>7.2</ele>
        <time>2025-07-01T13:02:43Z</time>
      </trkpt>
      <trkpt lat="46.15634" lon="-1.16207">
        <ele>7.2</ele>
        <time>2025-07-01T13:02:47Z</time>
      </trkpt>
      <trkpt lat="46.15624" lon="-1.16211">
        <ele>7.2</ele>
        <time>2025-07-01T13:02:54Z</time>
      </trkpt>
      <trkpt lat="46.1562" lon="-1.16215">
        <ele>7.2</ele>
        <time>2025-07-01T13:02:57Z</time>
      </trkpt>
      <trkpt lat="46.15614" lon="-1.16222">
        <ele>7.4</ele>
        <time>2025-07-01T13:03:04Z</time>
      </trkpt>
      <trkpt lat="46.15614" lon="-1.16225">
        <ele>7.6</ele>
        <time>2025-07-01T13:03:06Z</time>
      </trkpt>
      <trkpt lat="46.15615" lon="-1.16231">
        <ele>8</ele>
        <time>2025-07-01T13:03:09Z</time>
      </trkpt>
      <trkpt lat="46.15616" lon="-1.16236">
        <ele>8.4</ele>
        <time>2025-07-01T13:03:12Z</time>
      </trkpt>
      <trkpt lat="46.15615" lon="-1.16238">
        <ele>8.4</ele>
        <time>2025-07-01T13:03:13Z</time>
      </trkpt>
      <trkpt lat="46.15615" lon="-1.16244">
        <ele>8.8</ele>
        <time>2025-07-01T13:03:16Z</time>
      </trkpt>
      <trkpt lat="46.15615" lon="-1.16258">
        <ele>8.6</ele>
        <time>2025-07-01T13:03:23Z</time>
      </trkpt>
      <trkpt lat="46.15616" lon="-1.1626">
        <ele>8.6</ele>
        <time>2025-07-01T13:03:25Z</time>
      </trkpt>
      <trkpt lat="46.15615" lon="-1.16268">
        <ele>8.6</ele>
        <time>2025-07-01T13:03:29Z</time>
      </trkpt>
      <trkpt lat="46.15616" lon="-1.1628">
        <ele>8.8</ele>
        <time>2025-07-01T13:03:36Z</time>
      </trkpt>
      <trkpt lat="46.15616" lon="-1.16285">
        <ele>8.8</ele>
        <time>2025-07-01T13:03:40Z</time>
      </trkpt>
      <trkpt lat="46.15616" lon="-1.16287">
        <ele>9</ele>
        <time>2025-07-01T13:03:41Z</time>
      </trkpt>
      <trkpt lat="46.15617" lon="-1.16289">
        <ele>9.2</ele>
        <time>2025-07-01T13:03:43Z</time>
      </trkpt>
      <trkpt lat="46.15617" lon="-1.16292">
        <ele>9.4</ele>
        <time>2025-07-01T13:03:45Z</time>
      </trkpt>
      <trkpt lat="46.15617" lon="-1.16296">
        <ele>9.6</ele>
        <time>2025-07-01T13:03:47Z</time>
      </trkpt>
      <trkpt lat="46.15617" lon="-1.16298">
        <ele>9.6</ele>
        <time>2025-07-01T13:03:48Z</time>
      </trkpt>
      <trkpt lat="46.15617" lon="-1.163">
        <ele>9.6</ele>
        <time>2025-07-01T13:03:49Z</time>
      </trkpt>
      <trkpt lat="46.15618" lon="-1.16304">
        <ele>9.6</ele>
        <time>2025-07-01T13:03:51Z</time>
      </trkpt>
      <trkpt lat="46.15619" lon="-1.16309">
        <ele>9.6</ele>
        <time>2025-07-01T13:03:54Z</time>
      </trkpt>
      <trkpt lat="46.15617" lon="-1.1632">
        <ele>9.8</ele>
        <time>2025-07-01T13:04:00Z</time>
      </trkpt>
      <trkpt lat="46.15613" lon="-1.16342">
        <ele>9.6</ele>
        <time>2025-07-01T13:04:10Z</time>
      </trkpt>
      <trkpt lat="46.15612" lon="-1.16353">
        <ele>10.2</ele>
        <time>2025-07-01T13:04:16Z</time>
      </trkpt>
      <trkpt lat="46.15612" lon="-1.16354">
        <ele>10.4</ele>
        <time>2025-07-01T13:04:17Z</time>
      </trkpt>
      <trkpt lat="46.15613" lon="-1.16356">
        <ele>10.6</ele>
        <time>2025-07-01T13:04:18Z</time>
      </trkpt>
      <trkpt lat="46.15613" lon="-1.16357">
        <ele>10.6</ele>
        <time>2025-07-01T13:04:19Z</time>
      </trkpt>
      <trkpt lat="46.15613" lon="-1.16368">
        <ele>10.8</ele>
        <time>2025-07-01T13:04:26Z</time>
      </trkpt>
      <trkpt lat="46.15614" lon="-1.1637">
        <ele>10.8</ele>
        <time>2025-07-01T13:04:27Z</time>
      </trkpt>
      <trkpt lat="46.15614" lon="-1.1638">
        <ele>11.2</ele>
        <time>2025-07-01T13:04:32Z</time>
      </trkpt>
      <trkpt lat="46.15613" lon="-1.16386">
        <ele>11.4</ele>
        <time>2025-07-01T13:04:36Z</time>
      </trkpt>
      <trkpt lat="46.15611" lon="-1.16391">
        <ele>11.4</ele>
        <time>2025-07-01T13:04:39Z</time>
      </trkpt>
      <trkpt lat="46.15612" lon="-1.16394">
        <ele>11.4</ele>
        <time>2025-07-01T13:04:41Z</time>
      </trkpt>
      <trkpt lat="46.15612" lon="-1.16398">
        <ele>11.6</ele>
        <time>2025-07-01T13:04:44Z</time>
      </trkpt>
      <trkpt lat="46.15611" lon="-1.16402">
        <ele>11.6</ele>
        <time>2025-07-01T13:04:46Z</time>
      </trkpt>
      <trkpt lat="46.15608" lon="-1.1641">
        <ele>11.6</ele>
        <time>2025-07-01T13:04:50Z</time>
      </trkpt>
      <trkpt lat="46.15608" lon="-1.16411">
        <ele>11.6</ele>
        <time>2025-07-01T13:04:51Z</time>
      </trkpt>
      <trkpt lat="46.15604" lon="-1.16422">
        <ele>11.8</ele>
        <time>2025-07-01T13:04:56Z</time>
      </trkpt>
      <trkpt lat="46.15604" lon="-1.16424">
        <ele>11.8</ele>
        <time>2025-07-01T13:04:57Z</time>
      </trkpt>
      <trkpt lat="46.15603" lon="-1.16427">
        <ele>11.8</ele>
        <time>2025-07-01T13:04:59Z</time>
      </trkpt>
      <trkpt lat="46.15603" lon="-1.16433">
        <ele>11.8</ele>
        <time>2025-07-01T13:05:02Z</time>
      </trkpt>
      <trkpt lat="46.156" lon="-1.16439">
        <ele>11.8</ele>
        <time>2025-07-01T13:05:05Z</time>
      </trkpt>
      <trkpt lat="46.15599" lon="-1.16442">
        <ele>11.8</ele>
        <time>2025-07-01T13:05:07Z</time>
      </trkpt>
      <trkpt lat="46.15599" lon="-1.16443">
        <ele>11.8</ele>
        <time>2025-07-01T13:05:08Z</time>
      </trkpt>
      <trkpt lat="46.15599" lon="-1.16452">
        <ele>12</ele>
        <time>2025-07-01T13:05:12Z</time>
      </trkpt>
      <trkpt lat="46.15599" lon="-1.16454">
        <ele>12</ele>
        <time>2025-07-01T13:05:14Z</time>
      </trkpt>
      <trkpt lat="46.156" lon="-1.16462">
        <ele>12.2</ele>
        <time>2025-07-01T13:05:19Z</time>
      </trkpt>
      <trkpt lat="46.15602" lon="-1.1647">
        <ele>12.4</ele>
        <time>2025-07-01T13:05:22Z</time>
      </trkpt>
      <trkpt lat="46.15603" lon="-1.16474">
        <ele>12.4</ele>
        <time>2025-07-01T13:05:24Z</time>
      </trkpt>
      <trkpt lat="46.15604" lon="-1.16478">
        <ele>12.4</ele>
        <time>2025-07-01T13:05:26Z</time>
      </trkpt>
      <trkpt lat="46.15604" lon="-1.16479">
        <ele>12.4</ele>
        <time>2025-07-01T13:05:28Z</time>
      </trkpt>
      <trkpt lat="46.15603" lon="-1.16479">
        <ele>12.4</ele>
        <time>2025-07-01T13:05:29Z</time>
      </trkpt>
      <trkpt lat="46.156" lon="-1.16479">
        <ele>12.6</ele>
        <time>2025-07-01T13:05:31Z</time>
      </trkpt>
      <trkpt lat="46.15597" lon="-1.16481">
        <ele>12.6</ele>
        <time>2025-07-01T13:05:34Z</time>
      </trkpt>
      <trkpt lat="46.15595" lon="-1.16481">
        <ele>12.6</ele>
        <time>2025-07-01T13:05:35Z</time>
      </trkpt>
      <trkpt lat="46.15593" lon="-1.16482">
        <ele>12.6</ele>
        <time>2025-07-01T13:05:36Z</time>
      </trkpt>
      <trkpt lat="46.15592" lon="-1.16483">
        <ele>12.6</ele>
        <time>2025-07-01T13:05:37Z</time>
      </trkpt>
      <trkpt lat="46.15591" lon="-1.16487">
        <ele>12.6</ele>
        <time>2025-07-01T13:05:40Z</time>
      </trkpt>
      <trkpt lat="46.15592" lon="-1.16489">
        <ele>12.6</ele>
        <time>2025-07-01T13:05:41Z</time>
      </trkpt>
      <trkpt lat="46.15593" lon="-1.16492">
        <ele>12.6</ele>
        <time>2025-07-01T13:05:42Z</time>
      </trkpt>
      <trkpt lat="46.15593" lon="-1.16499">
        <ele>12.6</ele>
        <time>2025-07-01T13:05:45Z</time>
      </trkpt>
      <trkpt lat="46.15594" lon="-1.16508">
        <ele>12.8</ele>
        <time>2025-07-01T13:05:51Z</time>
      </trkpt>
      <trkpt lat="46.15593" lon="-1.16519">
        <ele>12.8</ele>
        <time>2025-07-01T13:05:57Z</time>
      </trkpt>
      <trkpt lat="46.15594" lon="-1.1652">
        <ele>12.6</ele>
        <time>2025-07-01T13:05:58Z</time>
      </trkpt>
      <trkpt lat="46.15594" lon="-1.16523">
        <ele>12.8</ele>
        <time>2025-07-01T13:06:00Z</time>
      </trkpt>
      <trkpt lat="46.15596" lon="-1.16531">
        <ele>12.8</ele>
        <time>2025-07-01T13:06:03Z</time>
      </trkpt>
      <trkpt lat="46.15596" lon="-1.16535">
        <ele>12.8</ele>
        <time>2025-07-01T13:06:04Z</time>
      </trkpt>
      <trkpt lat="46.15596" lon="-1.16544">
        <ele>13.2</ele>
        <time>2025-07-01T13:06:09Z</time>
      </trkpt>
      <trkpt lat="46.15597" lon="-1.16547">
        <ele>13.2</ele>
        <time>2025-07-01T13:06:11Z</time>
      </trkpt>
      <trkpt lat="46.15595" lon="-1.16554">
        <ele>13.4</ele>
        <time>2025-07-01T13:06:15Z</time>
      </trkpt>
      <trkpt lat="46.15593" lon="-1.16558">
        <ele>13.4</ele>
        <time>2025-07-01T13:06:17Z</time>
      </trkpt>
      <trkpt lat="46.15592" lon="-1.1656">
        <ele>13.6</ele>
        <time>2025-07-01T13:06:18Z</time>
      </trkpt>
      <trkpt lat="46.15591" lon="-1.16561">
        <ele>13.6</ele>
        <time>2025-07-01T13:06:19Z</time>
      </trkpt>
      <trkpt lat="46.15589" lon="-1.16565">
        <ele>13.8</ele>
        <time>2025-07-01T13:06:21Z</time>
      </trkpt>
      <trkpt lat="46.15589" lon="-1.16568">
        <ele>13.8</ele>
        <time>2025-07-01T13:06:23Z</time>
      </trkpt>
      <trkpt lat="46.15591" lon="-1.16573">
        <ele>13.8</ele>
        <time>2025-07-01T13:06:26Z</time>
      </trkpt>
      <trkpt lat="46.15592" lon="-1.16575">
        <ele>14</ele>
        <time>2025-07-01T13:06:27Z</time>
      </trkpt>
      <trkpt lat="46.15592" lon="-1.16582">
        <ele>14</ele>
        <time>2025-07-01T13:06:30Z</time>
      </trkpt>
      <trkpt lat="46.15593" lon="-1.16592">
        <ele>14</ele>
        <time>2025-07-01T13:06:35Z</time>
      </trkpt>
      <trkpt lat="46.15592" lon="-1.16605">
        <ele>14.2</ele>
        <time>2025-07-01T13:06:42Z</time>
      </trkpt>
      <trkpt lat="46.15591" lon="-1.1662">
        <ele>14.6</ele>
        <time>2025-07-01T13:06:50Z</time>
      </trkpt>
      <trkpt lat="46.1559" lon="-1.16626">
        <ele>14.4</ele>
        <time>2025-07-01T13:06:54Z</time>
      </trkpt>
      <trkpt lat="46.1559" lon="-1.16628">
        <ele>14.4</ele>
        <time>2025-07-01T13:06:57Z</time>
      </trkpt>
      <trkpt lat="46.15588" lon="-1.16624">
        <ele>14.2</ele>
        <time>2025-07-01T13:07:03Z</time>
      </trkpt>
      <trkpt lat="46.15588" lon="-1.16624">
        <ele>14.2</ele>
        <time>2025-07-01T13:07:06Z</time>
      </trkpt>
      <trkpt lat="46.15586" lon="-1.16626">
        <ele>14</ele>
        <time>2025-07-01T13:07:09Z</time>
      </trkpt>
      <trkpt lat="46.15585" lon="-1.16627">
        <ele>14</ele>
        <time>2025-07-01T13:07:10Z</time>
      </trkpt>
      <trkpt lat="46.15585" lon="-1.16627">
        <ele>14</ele>
        <time>2025-07-01T13:07:11Z</time>
      </trkpt>
      <trkpt lat="46.15585" lon="-1.16633">
        <ele>13.4</ele>
        <time>2025-07-01T13:07:17Z</time>
      </trkpt>
      <trkpt lat="46.15587" lon="-1.16642">
        <ele>13.8</ele>
        <time>2025-07-01T13:07:24Z</time>
      </trkpt>
      <trkpt lat="46.15587" lon="-1.16645">
        <ele>13.8</ele>
        <time>2025-07-01T13:07:25Z</time>
      </trkpt>
      <trkpt lat="46.15588" lon="-1.16657">
        <ele>13.8</ele>
        <time>2025-07-01T13:07:33Z</time>
      </trkpt>
      <trkpt lat="46.15588" lon="-1.1667">
        <ele>13.6</ele>
        <time>2025-07-01T13:07:41Z</time>
      </trkpt>
      <trkpt lat="46.15588" lon="-1.16684">
        <ele>13.6</ele>
        <time>2025-07-01T13:07:49Z</time>
      </trkpt>
      <trkpt lat="46.15588" lon="-1.16685">
        <ele>13.6</ele>
        <time>2025-07-01T13:07:50Z</time>
      </trkpt>
      <trkpt lat="46.15587" lon="-1.16692">
        <ele>13.6</ele>
        <time>2025-07-01T13:07:54Z</time>
      </trkpt>
      <trkpt lat="46.15587" lon="-1.16693">
        <ele>13.6</ele>
        <time>2025-07-01T13:07:55Z</time>
      </trkpt>
      <trkpt lat="46.15587" lon="-1.167">
        <ele>13.6</ele>
        <time>2025-07-01T13:07:59Z</time>
      </trkpt>
      <trkpt lat="46.15588" lon="-1.16701">
        <ele>13.6</ele>
        <time>2025-07-01T13:08:00Z</time>
      </trkpt>
      <trkpt lat="46.15587" lon="-1.16703">
        <ele>13.6</ele>
        <time>2025-07-01T13:08:01Z</time>
      </trkpt>
      <trkpt lat="46.15586" lon="-1.16718">
        <ele>13.8</ele>
        <time>2025-07-01T13:08:10Z</time>
      </trkpt>
      <trkpt lat="46.15587" lon="-1.16731">
        <ele>13.6</ele>
        <time>2025-07-01T13:08:18Z</time>
      </trkpt>
      <trkpt lat="46.15586" lon="-1.16749">
        <ele>14.8</ele>
        <time>2025-07-01T13:08:27Z</time>
      </trkpt>
      <trkpt lat="46.15586" lon="-1.16762">
        <ele>14.4</ele>
        <time>2025-07-01T13:08:34Z</time>
      </trkpt>
      <trkpt lat="46.15587" lon="-1.16766">
        <ele>14.4</ele>
        <time>2025-07-01T13:08:36Z</time>
      </trkpt>
      <trkpt lat="46.15585" lon="-1.16781">
        <ele>14.8</ele>
        <time>2025-07-01T13:08:44Z</time>
      </trkpt>
      <trkpt lat="46.15584" lon="-1.16801">
        <ele>15.6</ele>
        <time>2025-07-01T13:08:55Z</time>
      </trkpt>
      <trkpt lat="46.15583" lon="-1.16814">
        <ele>15.4</ele>
        <time>2025-07-01T13:09:02Z</time>
      </trkpt>
      <trkpt lat="46.15581" lon="-1.16832">
        <ele>15.8</ele>
        <time>2025-07-01T13:09:12Z</time>
      </trkpt>
      <trkpt lat="46.1558" lon="-1.16836">
        <ele>15.8</ele>
        <time>2025-07-01T13:09:14Z</time>
      </trkpt>
      <trkpt lat="46.1558" lon="-1.16847">
        <ele>15.6</ele>
        <time>2025-07-01T13:09:20Z</time>
      </trkpt>
      <trkpt lat="46.15581" lon="-1.16852">
        <ele>15.6</ele>
        <time>2025-07-01T13:09:23Z</time>
      </trkpt>
      <trkpt lat="46.15581" lon="-1.16857">
        <ele>15.8</ele>
        <time>2025-07-01T13:09:26Z</time>
      </trkpt>
      <trkpt lat="46.1558" lon="-1.16872">
        <ele>16.2</ele>
        <time>2025-07-01T13:09:35Z</time>
      </trkpt>
      <trkpt lat="46.1558" lon="-1.16886">
        <ele>16.2</ele>
        <time>2025-07-01T13:09:42Z</time>
      </trkpt>
      <trkpt lat="46.15581" lon="-1.16889">
        <ele>16</ele>
        <time>2025-07-01T13:09:44Z</time>
      </trkpt>
      <trkpt lat="46.1558" lon="-1.16896">
        <ele>16</ele>
        <time>2025-07-01T13:09:48Z</time>
      </trkpt>
      <trkpt lat="46.15581" lon="-1.16901">
        <ele>16.4</ele>
        <time>2025-07-01T13:09:51Z</time>
      </trkpt>
      <trkpt lat="46.15581" lon="-1.16902">
        <ele>16.4</ele>
        <time>2025-07-01T13:09:52Z</time>
      </trkpt>
      <trkpt lat="46.15579" lon="-1.16913">
        <ele>16.6</ele>
        <time>2025-07-01T13:09:58Z</time>
      </trkpt>
      <trkpt lat="46.15578" lon="-1.16928">
        <ele>16.8</ele>
        <time>2025-07-01T13:10:05Z</time>
      </trkpt>
      <trkpt lat="46.15578" lon="-1.1693">
        <ele>16.8</ele>
        <time>2025-07-01T13:10:06Z</time>
      </trkpt>
      <trkpt lat="46.15578" lon="-1.16931">
        <ele>16.6</ele>
        <time>2025-07-01T13:10:07Z</time>
      </trkpt>
      <trkpt lat="46.15577" lon="-1.1694">
        <ele>16.6</ele>
        <time>2025-07-01T13:10:12Z</time>
      </trkpt>
      <trkpt lat="46.15577" lon="-1.16955">
        <ele>16.4</ele>
        <time>2025-07-01T13:10:20Z</time>
      </trkpt>
      <trkpt lat="46.15577" lon="-1.16965">
        <ele>16.6</ele>
        <time>2025-07-01T13:10:26Z</time>
      </trkpt>
      <trkpt lat="46.15577" lon="-1.16967">
        <ele>16.6</ele>
        <time>2025-07-01T13:10:27Z</time>
      </trkpt>
      <trkpt lat="46.15576" lon="-1.16985">
        <ele>16.4</ele>
        <time>2025-07-01T13:10:36Z</time>
      </trkpt>
      <trkpt lat="46.15576" lon="-1.16997">
        <ele>16.6</ele>
        <time>2025-07-01T13:10:43Z</time>
      </trkpt>
      <trkpt lat="46.15576" lon="-1.16999">
        <ele>16.6</ele>
        <time>2025-07-01T13:10:44Z</time>
      </trkpt>
      <trkpt lat="46.15573" lon="-1.17014">
        <ele>16.8</ele>
        <time>2025-07-01T13:10:52Z</time>
      </trkpt>
      <trkpt lat="46.15572" lon="-1.17025">
        <ele>16.8</ele>
        <time>2025-07-01T13:10:59Z</time>
      </trkpt>
      <trkpt lat="46.15572" lon="-1.17027">
        <ele>16.8</ele>
        <time>2025-07-01T13:11:00Z</time>
      </trkpt>
      <trkpt lat="46.15572" lon="-1.17031">
        <ele>16.6</ele>
        <time>2025-07-01T13:11:03Z</time>
      </trkpt>
      <trkpt lat="46.15573" lon="-1.17036">
        <ele>16.6</ele>
        <time>2025-07-01T13:11:06Z</time>
      </trkpt>
      <trkpt lat="46.15575" lon="-1.17051">
        <ele>16.6</ele>
        <time>2025-07-01T13:11:15Z</time>
      </trkpt>
      <trkpt lat="46.15575" lon="-1.17055">
        <ele>16.6</ele>
        <time>2025-07-01T13:11:17Z</time>
      </trkpt>
      <trkpt lat="46.15575" lon="-1.17057">
        <ele>16.6</ele>
        <time>2025-07-01T13:11:19Z</time>
      </trkpt>
      <trkpt lat="46.15575" lon="-1.17058">
        <ele>16.6</ele>
        <time>2025-07-01T13:11:20Z</time>
      </trkpt>
      <trkpt lat="46.15575" lon="-1.17062">
        <ele>16.4</ele>
        <time>2025-07-01T13:11:22Z</time>
      </trkpt>
      <trkpt lat="46.15574" lon="-1.17066">
        <ele>16.4</ele>
        <time>2025-07-01T13:11:24Z</time>
      </trkpt>
      <trkpt lat="46.15574" lon="-1.17069">
        <ele>16.4</ele>
        <time>2025-07-01T13:11:26Z</time>
      </trkpt>
      <trkpt lat="46.15574" lon="-1.1707">
        <ele>16.4</ele>
        <time>2025-07-01T13:11:27Z</time>
      </trkpt>
      <trkpt lat="46.15574" lon="-1.17075">
        <ele>16.4</ele>
        <time>2025-07-01T13:11:31Z</time>
      </trkpt>
      <trkpt lat="46.15575" lon="-1.17081">
        <ele>16.6</ele>
        <time>2025-07-01T13:11:36Z</time>
      </trkpt>
      <trkpt lat="46.15573" lon="-1.17097">
        <ele>17</ele>
        <time>2025-07-01T13:11:41Z</time>
      </trkpt>
      <trkpt lat="46.15574" lon="-1.171">
        <ele>17</ele>
        <time>2025-07-01T13:11:42Z</time>
      </trkpt>
      <trkpt lat="46.15573" lon="-1.17102">
        <ele>17.2</ele>
        <time>2025-07-01T13:11:43Z</time>
      </trkpt>
      <trkpt lat="46.15576" lon="-1.17105">
        <ele>17.4</ele>
        <time>2025-07-01T13:11:47Z</time>
      </trkpt>
      <trkpt lat="46.15579" lon="-1.17113">
        <ele>17.4</ele>
        <time>2025-07-01T13:11:54Z</time>
      </trkpt>
      <trkpt lat="46.15582" lon="-1.17113">
        <ele>17.8</ele>
        <time>2025-07-01T13:11:58Z</time>
      </trkpt>
      <trkpt lat="46.15583" lon="-1.17113">
        <ele>18</ele>
        <time>2025-07-01T13:11:59Z</time>
      </trkpt>
      <trkpt lat="46.15585" lon="-1.17113">
        <ele>18.2</ele>
        <time>2025-07-01T13:12:01Z</time>
      </trkpt>
      <trkpt lat="46.15593" lon="-1.17116">
        <ele>18.2</ele>
        <time>2025-07-01T13:12:08Z</time>
      </trkpt>
      <trkpt lat="46.156" lon="-1.17121">
        <ele>18.2</ele>
        <time>2025-07-01T13:12:14Z</time>
      </trkpt>
      <trkpt lat="46.15601" lon="-1.17122">
        <ele>18.2</ele>
        <time>2025-07-01T13:12:15Z</time>
      </trkpt>
      <trkpt lat="46.15614" lon="-1.17128">
        <ele>18.6</ele>
        <time>2025-07-01T13:12:25Z</time>
      </trkpt>
      <trkpt lat="46.15619" lon="-1.17129">
        <ele>18.8</ele>
        <time>2025-07-01T13:12:29Z</time>
      </trkpt>
      <trkpt lat="46.15623" lon="-1.1713">
        <ele>19</ele>
        <time>2025-07-01T13:12:32Z</time>
      </trkpt>
      <trkpt lat="46.15635" lon="-1.17131">
        <ele>19</ele>
        <time>2025-07-01T13:12:42Z</time>
      </trkpt>
      <trkpt lat="46.15642" lon="-1.17135">
        <ele>19.2</ele>
        <time>2025-07-01T13:12:48Z</time>
      </trkpt>
      <trkpt lat="46.15648" lon="-1.17142">
        <ele>19.6</ele>
        <time>2025-07-01T13:12:55Z</time>
      </trkpt>
      <trkpt lat="46.15649" lon="-1.17143">
        <ele>19.6</ele>
        <time>2025-07-01T13:12:56Z</time>
      </trkpt>
      <trkpt lat="46.15654" lon="-1.17146">
        <ele>19.6</ele>
        <time>2025-07-01T13:13:00Z</time>
      </trkpt>
      <trkpt lat="46.15658" lon="-1.1715">
        <ele>19.6</ele>
        <time>2025-07-01T13:13:04Z</time>
      </trkpt>
      <trkpt lat="46.15659" lon="-1.17153">
        <ele>19.8</ele>
        <time>2025-07-01T13:13:06Z</time>
      </trkpt>
      <trkpt lat="46.1566" lon="-1.17156">
        <ele>19.8</ele>
        <time>2025-07-01T13:13:08Z</time>
      </trkpt>
      <trkpt lat="46.15664" lon="-1.17158">
        <ele>20</ele>
        <time>2025-07-01T13:13:11Z</time>
      </trkpt>
      <trkpt lat="46.15666" lon="-1.17158">
        <ele>20</ele>
        <time>2025-07-01T13:13:12Z</time>
      </trkpt>
      <trkpt lat="46.15674" lon="-1.17165">
        <ele>20.2</ele>
        <time>2025-07-01T13:13:19Z</time>
      </trkpt>
      <trkpt lat="46.15678" lon="-1.1717">
        <ele>20.4</ele>
        <time>2025-07-01T13:13:24Z</time>
      </trkpt>
      <trkpt lat="46.15679" lon="-1.17173">
        <ele>20.4</ele>
        <time>2025-07-01T13:13:26Z</time>
      </trkpt>
      <trkpt lat="46.15683" lon="-1.17181">
        <ele>20.6</ele>
        <time>2025-07-01T13:13:31Z</time>
      </trkpt>
      <trkpt lat="46.15682" lon="-1.17183">
        <ele>20.6</ele>
        <time>2025-07-01T13:13:32Z</time>
      </trkpt>
      <trkpt lat="46.15682" lon="-1.17187">
        <ele>20.8</ele>
        <time>2025-07-01T13:13:34Z</time>
      </trkpt>
      <trkpt lat="46.15683" lon="-1.17193">
        <ele>21</ele>
        <time>2025-07-01T13:13:37Z</time>
      </trkpt>
      <trkpt lat="46.15683" lon="-1.172">
        <ele>21</ele>
        <time>2025-07-01T13:13:42Z</time>
      </trkpt>
      <trkpt lat="46.15682" lon="-1.17207">
        <ele>21.4</ele>
        <time>2025-07-01T13:13:50Z</time>
      </trkpt>
      <trkpt lat="46.15685" lon="-1.17211">
        <ele>20.8</ele>
        <time>2025-07-01T13:13:57Z</time>
      </trkpt>
      <trkpt lat="46.15691" lon="-1.17205">
        <ele>21.8</ele>
        <time>2025-07-01T13:14:04Z</time>
      </trkpt>
      <trkpt lat="46.15694" lon="-1.17206">
        <ele>21.8</ele>
        <time>2025-07-01T13:14:09Z</time>
      </trkpt>
      <trkpt lat="46.15696" lon="-1.17215">
        <ele>21.6</ele>
        <time>2025-07-01T13:14:15Z</time>
      </trkpt>
      <trkpt lat="46.15696" lon="-1.17218">
        <ele>21.6</ele>
        <time>2025-07-01T13:14:17Z</time>
      </trkpt>
      <trkpt lat="46.15694" lon="-1.17227">
        <ele>22</ele>
        <time>2025-07-01T13:14:23Z</time>
      </trkpt>
      <trkpt lat="46.15693" lon="-1.17229">
        <ele>22</ele>
        <time>2025-07-01T13:14:24Z</time>
      </trkpt>
      <trkpt lat="46.15692" lon="-1.17234">
        <ele>22</ele>
        <time>2025-07-01T13:14:27Z</time>
      </trkpt>
      <trkpt lat="46.15691" lon="-1.17236">
        <ele>22</ele>
        <time>2025-07-01T13:14:29Z</time>
      </trkpt>
      <trkpt lat="46.15689" lon="-1.1724">
        <ele>21.8</ele>
        <time>2025-07-01T13:14:31Z</time>
      </trkpt>
      <trkpt lat="46.15682" lon="-1.17248">
        <ele>21.4</ele>
        <time>2025-07-01T13:14:36Z</time>
      </trkpt>
      <trkpt lat="46.15681" lon="-1.17252">
        <ele>21.2</ele>
        <time>2025-07-01T13:14:39Z</time>
      </trkpt>
      <trkpt lat="46.15679" lon="-1.17255">
        <ele>21.2</ele>
        <time>2025-07-01T13:14:42Z</time>
      </trkpt>
      <trkpt lat="46.15676" lon="-1.17257">
        <ele>21</ele>
        <time>2025-07-01T13:14:45Z</time>
      </trkpt>
      <trkpt lat="46.15674" lon="-1.17259">
        <ele>21</ele>
        <time>2025-07-01T13:14:47Z</time>
      </trkpt>
      <trkpt lat="46.15666" lon="-1.17266">
        <ele>20.6</ele>
        <time>2025-07-01T13:14:54Z</time>
      </trkpt>
      <trkpt lat="46.15662" lon="-1.17272">
        <ele>20.2</ele>
        <time>2025-07-01T13:14:59Z</time>
      </trkpt>
      <trkpt lat="46.15659" lon="-1.17273">
        <ele>20.2</ele>
        <time>2025-07-01T13:15:01Z</time>
      </trkpt>
      <trkpt lat="46.15654" lon="-1.17275">
        <ele>19.8</ele>
        <time>2025-07-01T13:15:05Z</time>
      </trkpt>
      <trkpt lat="46.15653" lon="-1.17275">
        <ele>19.8</ele>
        <time>2025-07-01T13:15:06Z</time>
      </trkpt>
      <trkpt lat="46.1565" lon="-1.17276">
        <ele>19.6</ele>
        <time>2025-07-01T13:15:08Z</time>
      </trkpt>
      <trkpt lat="46.15646" lon="-1.17276">
        <ele>19.6</ele>
        <time>2025-07-01T13:15:11Z</time>
      </trkpt>
      <trkpt lat="46.15642" lon="-1.1728">
        <ele>19.6</ele>
        <time>2025-07-01T13:15:14Z</time>
      </trkpt>
      <trkpt lat="46.15641" lon="-1.17281">
        <ele>19.6</ele>
        <time>2025-07-01T13:15:15Z</time>
      </trkpt>
      <trkpt lat="46.15635" lon="-1.17283">
        <ele>19.2</ele>
        <time>2025-07-01T13:15:20Z</time>
      </trkpt>
      <trkpt lat="46.15625" lon="-1.17285">
        <ele>19</ele>
        <time>2025-07-01T13:15:27Z</time>
      </trkpt>
      <trkpt lat="46.15622" lon="-1.17286">
        <ele>18.8</ele>
        <time>2025-07-01T13:15:29Z</time>
      </trkpt>
      <trkpt lat="46.15614" lon="-1.17287">
        <ele>18.4</ele>
        <time>2025-07-01T13:15:34Z</time>
      </trkpt>
      <trkpt lat="46.15605" lon="-1.17293">
        <ele>18.2</ele>
        <time>2025-07-01T13:15:42Z</time>
      </trkpt>
      <trkpt lat="46.15599" lon="-1.17298">
        <ele>18</ele>
        <time>2025-07-01T13:15:48Z</time>
      </trkpt>
      <trkpt lat="46.15596" lon="-1.17298">
        <ele>18</ele>
        <time>2025-07-01T13:15:51Z</time>
      </trkpt>
      <trkpt lat="46.15592" lon="-1.17299">
        <ele>17.8</ele>
        <time>2025-07-01T13:15:54Z</time>
      </trkpt>
      <trkpt lat="46.15591" lon="-1.173">
        <ele>17.8</ele>
        <time>2025-07-01T13:15:55Z</time>
      </trkpt>
      <trkpt lat="46.15588" lon="-1.17301">
        <ele>17.6</ele>
        <time>2025-07-01T13:15:58Z</time>
      </trkpt>
      <trkpt lat="46.15581" lon="-1.17301">
        <ele>17.8</ele>
        <time>2025-07-01T13:16:03Z</time>
      </trkpt>
      <trkpt lat="46.15578" lon="-1.17302">
        <ele>17.4</ele>
        <time>2025-07-01T13:16:06Z</time>
      </trkpt>
      <trkpt lat="46.15574" lon="-1.17303">
        <ele>17.2</ele>
        <time>2025-07-01T13:16:09Z</time>
      </trkpt>
      <trkpt lat="46.15571" lon="-1.17303">
        <ele>17</ele>
        <time>2025-07-01T13:16:11Z</time>
      </trkpt>
      <trkpt lat="46.15567" lon="-1.17304">
        <ele>17</ele>
        <time>2025-07-01T13:16:14Z</time>
      </trkpt>
      <trkpt lat="46.15562" lon="-1.17305">
        <ele>16.8</ele>
        <time>2025-07-01T13:16:18Z</time>
      </trkpt>
      <trkpt lat="46.15561" lon="-1.17305">
        <ele>16.8</ele>
        <time>2025-07-01T13:16:19Z</time>
      </trkpt>
      <trkpt lat="46.15557" lon="-1.17305">
        <ele>16.6</ele>
        <time>2025-07-01T13:16:22Z</time>
      </trkpt>
      <trkpt lat="46.15551" lon="-1.17305">
        <ele>16.6</ele>
        <time>2025-07-01T13:16:26Z</time>
      </trkpt>
      <trkpt lat="46.15548" lon="-1.17305">
        <ele>16.6</ele>
        <time>2025-07-01T13:16:28Z</time>
      </trkpt>
      <trkpt lat="46.15545" lon="-1.17306">
        <ele>16.4</ele>
        <time>2025-07-01T13:16:30Z</time>
      </trkpt>
      <trkpt lat="46.15539" lon="-1.17308">
        <ele>16.4</ele>
        <time>2025-07-01T13:16:35Z</time>
      </trkpt>
      <trkpt lat="46.15531" lon="-1.17304">
        <ele>16</ele>
        <time>2025-07-01T13:16:40Z</time>
      </trkpt>
      <trkpt lat="46.15527" lon="-1.17303">
        <ele>15.6</ele>
        <time>2025-07-01T13:16:43Z</time>
      </trkpt>
      <trkpt lat="46.15523" lon="-1.17303">
        <ele>15.4</ele>
        <time>2025-07-01T13:16:47Z</time>
      </trkpt>
      <trkpt lat="46.1551" lon="-1.17299">
        <ele>15</ele>
        <time>2025-07-01T13:16:57Z</time>
      </trkpt>
      <trkpt lat="46.15502" lon="-1.17292">
        <ele>14.6</ele>
        <time>2025-07-01T13:17:03Z</time>
      </trkpt>
      <trkpt lat="46.15492" lon="-1.17282">
        <ele>14.2</ele>
        <time>2025-07-01T13:17:11Z</time>
      </trkpt>
      <trkpt lat="46.1548" lon="-1.17271">
        <ele>14</ele>
        <time>2025-07-01T13:17:21Z</time>
      </trkpt>
      <trkpt lat="46.15474" lon="-1.17265">
        <ele>13.8</ele>
        <time>2025-07-01T13:17:27Z</time>
      </trkpt>
      <trkpt lat="46.15473" lon="-1.17265">
        <ele>13.6</ele>
        <time>2025-07-01T13:17:28Z</time>
      </trkpt>
      <trkpt lat="46.1547" lon="-1.17262">
        <ele>13.4</ele>
        <time>2025-07-01T13:17:31Z</time>
      </trkpt>
      <trkpt lat="46.15463" lon="-1.17256">
        <ele>13</ele>
        <time>2025-07-01T13:17:38Z</time>
      </trkpt>
      <trkpt lat="46.15461" lon="-1.17252">
        <ele>13</ele>
        <time>2025-07-01T13:17:40Z</time>
      </trkpt>
      <trkpt lat="46.15457" lon="-1.17245">
        <ele>12.8</ele>
        <time>2025-07-01T13:17:46Z</time>
      </trkpt>
      <trkpt lat="46.15455" lon="-1.17244">
        <ele>12.6</ele>
        <time>2025-07-01T13:17:48Z</time>
      </trkpt>
      <trkpt lat="46.15454" lon="-1.17241">
        <ele>12.6</ele>
        <time>2025-07-01T13:17:50Z</time>
      </trkpt>
      <trkpt lat="46.15453" lon="-1.17238">
        <ele>12.4</ele>
        <time>2025-07-01T13:17:52Z</time>
      </trkpt>
      <trkpt lat="46.15451" lon="-1.17232">
        <ele>12.2</ele>
        <time>2025-07-01T13:17:55Z</time>
      </trkpt>
      <trkpt lat="46.1545" lon="-1.17225">
        <ele>12.2</ele>
        <time>2025-07-01T13:17:59Z</time>
      </trkpt>
      <trkpt lat="46.15452" lon="-1.17209">
        <ele>12.8</ele>
        <time>2025-07-01T13:18:07Z</time>
      </trkpt>
      <trkpt lat="46.1546" lon="-1.17196">
        <ele>12.6</ele>
        <time>2025-07-01T13:18:17Z</time>
      </trkpt>
      <trkpt lat="46.15468" lon="-1.17182">
        <ele>13.2</ele>
        <time>2025-07-01T13:18:25Z</time>
      </trkpt>
      <trkpt lat="46.15471" lon="-1.17174">
        <ele>13.2</ele>
        <time>2025-07-01T13:18:31Z</time>
      </trkpt>
      <trkpt lat="46.15475" lon="-1.17172">
        <ele>13.4</ele>
        <time>2025-07-01T13:18:34Z</time>
      </trkpt>
      <trkpt lat="46.15479" lon="-1.17171">
        <ele>13.4</ele>
        <time>2025-07-01T13:18:36Z</time>
      </trkpt>
      <trkpt lat="46.15483" lon="-1.17168">
        <ele>13.6</ele>
        <time>2025-07-01T13:18:39Z</time>
      </trkpt>
      <trkpt lat="46.15483" lon="-1.17164">
        <ele>13.8</ele>
        <time>2025-07-01T13:18:42Z</time>
      </trkpt>
      <trkpt lat="46.15484" lon="-1.17162">
        <ele>13.8</ele>
        <time>2025-07-01T13:18:44Z</time>
      </trkpt>
      <trkpt lat="46.15484" lon="-1.17156">
        <ele>13.8</ele>
        <time>2025-07-01T13:18:47Z</time>
      </trkpt>
      <trkpt lat="46.15487" lon="-1.17152">
        <ele>13.8</ele>
        <time>2025-07-01T13:18:49Z</time>
      </trkpt>
      <trkpt lat="46.15489" lon="-1.17147">
        <ele>14.4</ele>
        <time>2025-07-01T13:18:53Z</time>
      </trkpt>
      <trkpt lat="46.15489" lon="-1.17144">
        <ele>14.6</ele>
        <time>2025-07-01T13:18:55Z</time>
      </trkpt>
      <trkpt lat="46.15491" lon="-1.17141">
        <ele>14.4</ele>
        <time>2025-07-01T13:18:58Z</time>
      </trkpt>
      <trkpt lat="46.15494" lon="-1.17137">
        <ele>14.4</ele>
        <time>2025-07-01T13:19:01Z</time>
      </trkpt>
      <trkpt lat="46.15496" lon="-1.17133">
        <ele>14.4</ele>
        <time>2025-07-01T13:19:03Z</time>
      </trkpt>
      <trkpt lat="46.15498" lon="-1.17129">
        <ele>14.6</ele>
        <time>2025-07-01T13:19:05Z</time>
      </trkpt>
      <trkpt lat="46.15502" lon="-1.17128">
        <ele>14.6</ele>
        <time>2025-07-01T13:19:08Z</time>
      </trkpt>
      <trkpt lat="46.15504" lon="-1.17127">
        <ele>14.8</ele>
        <time>2025-07-01T13:19:09Z</time>
      </trkpt>
      <trkpt lat="46.15511" lon="-1.17127">
        <ele>15.2</ele>
        <time>2025-07-01T13:19:15Z</time>
      </trkpt>
      <trkpt lat="46.15518" lon="-1.17125">
        <ele>15.4</ele>
        <time>2025-07-01T13:19:21Z</time>
      </trkpt>
      <trkpt lat="46.15519" lon="-1.17124">
        <ele>15.4</ele>
        <time>2025-07-01T13:19:22Z</time>
      </trkpt>
      <trkpt lat="46.1552" lon="-1.17124">
        <ele>15.6</ele>
        <time>2025-07-01T13:19:23Z</time>
      </trkpt>
      <trkpt lat="46.15524" lon="-1.17125">
        <ele>15.8</ele>
        <time>2025-07-01T13:19:26Z</time>
      </trkpt>
      <trkpt lat="46.15525" lon="-1.17126">
        <ele>15.8</ele>
        <time>2025-07-01T13:19:27Z</time>
      </trkpt>
      <trkpt lat="46.15526" lon="-1.17126">
        <ele>16</ele>
        <time>2025-07-01T13:19:28Z</time>
      </trkpt>
      <trkpt lat="46.15526" lon="-1.17127">
        <ele>16</ele>
        <time>2025-07-01T13:19:30Z</time>
      </trkpt>
      <trkpt lat="46.15532" lon="-1.17129">
        <ele>16.4</ele>
        <time>2025-07-01T13:19:34Z</time>
      </trkpt>
      <trkpt lat="46.15533" lon="-1.17128">
        <ele>16.4</ele>
        <time>2025-07-01T13:19:35Z</time>
      </trkpt>
      <trkpt lat="46.15541" lon="-1.17126">
        <ele>16.8</ele>
        <time>2025-07-01T13:19:41Z</time>
      </trkpt>
      <trkpt lat="46.15545" lon="-1.17125">
        <ele>17</ele>
        <time>2025-07-01T13:19:44Z</time>
      </trkpt>
      <trkpt lat="46.15556" lon="-1.17127">
        <ele>17.4</ele>
        <time>2025-07-01T13:19:52Z</time>
      </trkpt>
      <trkpt lat="46.15559" lon="-1.17125">
        <ele>17.6</ele>
        <time>2025-07-01T13:19:57Z</time>
      </trkpt>
      <trkpt lat="46.15559" lon="-1.17125">
        <ele>17.6</ele>
        <time>2025-07-01T13:19:58Z</time>
      </trkpt>
      <trkpt lat="46.15558" lon="-1.17125">
        <ele>17.8</ele>
        <time>2025-07-01T13:20:04Z</time>
      </trkpt>
      <trkpt lat="46.15563" lon="-1.17125">
        <ele>17.8</ele>
        <time>2025-07-01T13:20:10Z</time>
      </trkpt>
      <trkpt lat="46.15565" lon="-1.17125">
        <ele>18</ele>
        <time>2025-07-01T13:20:12Z</time>
      </trkpt>
      <trkpt lat="46.1557" lon="-1.17123">
        <ele>18</ele>
        <time>2025-07-01T13:20:16Z</time>
      </trkpt>
      <trkpt lat="46.15571" lon="-1.17122">
        <ele>18</ele>
        <time>2025-07-01T13:20:17Z</time>
      </trkpt>
      <trkpt lat="46.15575" lon="-1.17114">
        <ele>18.2</ele>
        <time>2025-07-01T13:20:23Z</time>
      </trkpt>
      <trkpt lat="46.15575" lon="-1.17112">
        <ele>18.2</ele>
        <time>2025-07-01T13:20:25Z</time>
      </trkpt>
      <trkpt lat="46.15575" lon="-1.17112">
        <ele>18.2</ele>
        <time>2025-07-01T13:20:27Z</time>
      </trkpt>
      <trkpt lat="46.15575" lon="-1.17112">
        <ele>18.2</ele>
        <time>2025-07-01T13:20:28Z</time>
      </trkpt>
      <trkpt lat="46.15573" lon="-1.17105">
        <ele>18.4</ele>
        <time>2025-07-01T13:20:33Z</time>
      </trkpt>
      <trkpt lat="46.15573" lon="-1.17103">
        <ele>18.2</ele>
        <time>2025-07-01T13:20:35Z</time>
      </trkpt>
      <trkpt lat="46.15571" lon="-1.17096">
        <ele>18</ele>
        <time>2025-07-01T13:20:39Z</time>
      </trkpt>
      <trkpt lat="46.15564" lon="-1.17092">
        <ele>18</ele>
        <time>2025-07-01T13:20:45Z</time>
      </trkpt>
      <trkpt lat="46.15562" lon="-1.17092">
        <ele>18</ele>
        <time>2025-07-01T13:20:47Z</time>
      </trkpt>
      <trkpt lat="46.15559" lon="-1.17091">
        <ele>18</ele>
        <time>2025-07-01T13:20:52Z</time>
      </trkpt>
      <trkpt lat="46.15558" lon="-1.1709">
        <ele>18</ele>
        <time>2025-07-01T13:21:33Z</time>
      </trkpt>
      <trkpt lat="46.15558" lon="-1.1709">
        <ele>18</ele>
        <time>2025-07-01T13:21:34Z</time>
      </trkpt>
      <trkpt lat="46.15552" lon="-1.17086">
        <ele>17.6</ele>
        <time>2025-07-01T13:21:44Z</time>
      </trkpt>
      <trkpt lat="46.15545" lon="-1.17084">
        <ele>17.6</ele>
        <time>2025-07-01T13:21:49Z</time>
      </trkpt>
      <trkpt lat="46.15541" lon="-1.17081">
        <ele>17.6</ele>
        <time>2025-07-01T13:21:52Z</time>
      </trkpt>
      <trkpt lat="46.15533" lon="-1.17076">
        <ele>17.2</ele>
        <time>2025-07-01T13:22:00Z</time>
      </trkpt>
      <trkpt lat="46.15529" lon="-1.17073">
        <ele>17</ele>
        <time>2025-07-01T13:22:04Z</time>
      </trkpt>
      <trkpt lat="46.15528" lon="-1.17072">
        <ele>17</ele>
        <time>2025-07-01T13:22:06Z</time>
      </trkpt>
      <trkpt lat="46.15523" lon="-1.17068">
        <ele>16.8</ele>
        <time>2025-07-01T13:22:10Z</time>
      </trkpt>
      <trkpt lat="46.15516" lon="-1.17065">
        <ele>16.2</ele>
        <time>2025-07-01T13:22:17Z</time>
      </trkpt>
      <trkpt lat="46.15511" lon="-1.1706">
        <ele>16</ele>
        <time>2025-07-01T13:22:23Z</time>
      </trkpt>
      <trkpt lat="46.15509" lon="-1.17057">
        <ele>16</ele>
        <time>2025-07-01T13:22:25Z</time>
      </trkpt>
      <trkpt lat="46.15504" lon="-1.17053">
        <ele>16</ele>
        <time>2025-07-01T13:22:28Z</time>
      </trkpt>
      <trkpt lat="46.15496" lon="-1.17047">
        <ele>15.8</ele>
        <time>2025-07-01T13:22:34Z</time>
      </trkpt>
      <trkpt lat="46.15494" lon="-1.17046">
        <ele>15.6</ele>
        <time>2025-07-01T13:22:35Z</time>
      </trkpt>
      <trkpt lat="46.15493" lon="-1.17044">
        <ele>15.6</ele>
        <time>2025-07-01T13:22:36Z</time>
      </trkpt>
      <trkpt lat="46.15491" lon="-1.1704">
        <ele>15.4</ele>
        <time>2025-07-01T13:22:39Z</time>
      </trkpt>
      <trkpt lat="46.15479" lon="-1.17032">
        <ele>15</ele>
        <time>2025-07-01T13:22:48Z</time>
      </trkpt>
      <trkpt lat="46.15474" lon="-1.17024">
        <ele>14.6</ele>
        <time>2025-07-01T13:22:54Z</time>
      </trkpt>
      <trkpt lat="46.15471" lon="-1.1702">
        <ele>14.4</ele>
        <time>2025-07-01T13:22:58Z</time>
      </trkpt>
      <trkpt lat="46.1547" lon="-1.17016">
        <ele>14.4</ele>
        <time>2025-07-01T13:23:00Z</time>
      </trkpt>
      <trkpt lat="46.1547" lon="-1.17006">
        <ele>14.4</ele>
        <time>2025-07-01T13:23:06Z</time>
      </trkpt>
      <trkpt lat="46.15469" lon="-1.17003">
        <ele>14.4</ele>
        <time>2025-07-01T13:23:08Z</time>
      </trkpt>
      <trkpt lat="46.15468" lon="-1.16998">
        <ele>14.2</ele>
        <time>2025-07-01T13:23:11Z</time>
      </trkpt>
      <trkpt lat="46.15468" lon="-1.16989">
        <ele>14.2</ele>
        <time>2025-07-01T13:23:15Z</time>
      </trkpt>
      <trkpt lat="46.15468" lon="-1.16985">
        <ele>14.2</ele>
        <time>2025-07-01T13:23:17Z</time>
      </trkpt>
      <trkpt lat="46.15468" lon="-1.16983">
        <ele>14.2</ele>
        <time>2025-07-01T13:23:18Z</time>
      </trkpt>
      <trkpt lat="46.15471" lon="-1.16973">
        <ele>14.2</ele>
        <time>2025-07-01T13:23:24Z</time>
      </trkpt>
      <trkpt lat="46.15471" lon="-1.1697">
        <ele>14.2</ele>
        <time>2025-07-01T13:23:26Z</time>
      </trkpt>
      <trkpt lat="46.15472" lon="-1.16969">
        <ele>14.2</ele>
        <time>2025-07-01T13:23:27Z</time>
      </trkpt>
      <trkpt lat="46.15472" lon="-1.16953">
        <ele>14.4</ele>
        <time>2025-07-01T13:23:34Z</time>
      </trkpt>
      <trkpt lat="46.15475" lon="-1.16938">
        <ele>14.4</ele>
        <time>2025-07-01T13:23:42Z</time>
      </trkpt>
      <trkpt lat="46.15478" lon="-1.16921">
        <ele>14.4</ele>
        <time>2025-07-01T13:23:51Z</time>
      </trkpt>
      <trkpt lat="46.15478" lon="-1.16917">
        <ele>14.4</ele>
        <time>2025-07-01T13:23:53Z</time>
      </trkpt>
      <trkpt lat="46.15479" lon="-1.16909">
        <ele>14.4</ele>
        <time>2025-07-01T13:23:57Z</time>
      </trkpt>
      <trkpt lat="46.15481" lon="-1.16902">
        <ele>14.4</ele>
        <time>2025-07-01T13:24:00Z</time>
      </trkpt>
      <trkpt lat="46.15481" lon="-1.16892">
        <ele>14.4</ele>
        <time>2025-07-01T13:24:05Z</time>
      </trkpt>
      <trkpt lat="46.15482" lon="-1.16879">
        <ele>14.6</ele>
        <time>2025-07-01T13:24:13Z</time>
      </trkpt>
      <trkpt lat="46.15482" lon="-1.16877">
        <ele>14.6</ele>
        <time>2025-07-01T13:24:14Z</time>
      </trkpt>
      <trkpt lat="46.15483" lon="-1.16876">
        <ele>14.6</ele>
        <time>2025-07-01T13:24:15Z</time>
      </trkpt>
      <trkpt lat="46.15484" lon="-1.16865">
        <ele>14.8</ele>
        <time>2025-07-01T13:24:20Z</time>
      </trkpt>
      <trkpt lat="46.15486" lon="-1.1686">
        <ele>14.8</ele>
        <time>2025-07-01T13:24:23Z</time>
      </trkpt>
      <trkpt lat="46.15489" lon="-1.16851">
        <ele>14.8</ele>
        <time>2025-07-01T13:24:30Z</time>
      </trkpt>
      <trkpt lat="46.1549" lon="-1.16847">
        <ele>15</ele>
        <time>2025-07-01T13:24:32Z</time>
      </trkpt>
      <trkpt lat="46.15489" lon="-1.1684">
        <ele>14.8</ele>
        <time>2025-07-01T13:24:36Z</time>
      </trkpt>
      <trkpt lat="46.1549" lon="-1.16835">
        <ele>14.8</ele>
        <time>2025-07-01T13:24:39Z</time>
      </trkpt>
      <trkpt lat="46.1549" lon="-1.16832">
        <ele>14.8</ele>
        <time>2025-07-01T13:24:41Z</time>
      </trkpt>
      <trkpt lat="46.15492" lon="-1.16827">
        <ele>14.8</ele>
        <time>2025-07-01T13:24:44Z</time>
      </trkpt>
      <trkpt lat="46.15493" lon="-1.16815">
        <ele>14.6</ele>
        <time>2025-07-01T13:24:51Z</time>
      </trkpt>
      <trkpt lat="46.15495" lon="-1.16806">
        <ele>14.6</ele>
        <time>2025-07-01T13:24:57Z</time>
      </trkpt>
      <trkpt lat="46.15496" lon="-1.168">
        <ele>14.8</ele>
        <time>2025-07-01T13:25:01Z</time>
      </trkpt>
      <trkpt lat="46.15496" lon="-1.16799">
        <ele>14.8</ele>
        <time>2025-07-01T13:25:02Z</time>
      </trkpt>
      <trkpt lat="46.15494" lon="-1.16795">
        <ele>14.8</ele>
        <time>2025-07-01T13:25:07Z</time>
      </trkpt>
      <trkpt lat="46.15493" lon="-1.16795">
        <ele>14.8</ele>
        <time>2025-07-01T13:25:15Z</time>
      </trkpt>
      <trkpt lat="46.15494" lon="-1.16795">
        <ele>14.8</ele>
        <time>2025-07-01T13:25:21Z</time>
      </trkpt>
      <trkpt lat="46.15494" lon="-1.16795">
        <ele>14.6</ele>
        <time>2025-07-01T13:25:29Z</time>
      </trkpt>
      <trkpt lat="46.15497" lon="-1.16787">
        <ele>14.6</ele>
        <time>2025-07-01T13:25:33Z</time>
      </trkpt>
      <trkpt lat="46.155" lon="-1.16774">
        <ele>15</ele>
        <time>2025-07-01T13:25:40Z</time>
      </trkpt>
      <trkpt lat="46.15501" lon="-1.1677">
        <ele>15</ele>
        <time>2025-07-01T13:25:43Z</time>
      </trkpt>
      <trkpt lat="46.15501" lon="-1.16764">
        <ele>14.6</ele>
        <time>2025-07-01T13:25:47Z</time>
      </trkpt>
      <trkpt lat="46.15503" lon="-1.16758">
        <ele>14.6</ele>
        <time>2025-07-01T13:25:50Z</time>
      </trkpt>
      <trkpt lat="46.15505" lon="-1.16748">
        <ele>14.6</ele>
        <time>2025-07-01T13:25:56Z</time>
      </trkpt>
      <trkpt lat="46.15506" lon="-1.16743">
        <ele>15</ele>
        <time>2025-07-01T13:25:59Z</time>
      </trkpt>
      <trkpt lat="46.15506" lon="-1.16738">
        <ele>14.8</ele>
        <time>2025-07-01T13:26:02Z</time>
      </trkpt>
      <trkpt lat="46.15506" lon="-1.16732">
        <ele>14.8</ele>
        <time>2025-07-01T13:26:06Z</time>
      </trkpt>
      <trkpt lat="46.15506" lon="-1.16728">
        <ele>14.8</ele>
        <time>2025-07-01T13:26:09Z</time>
      </trkpt>
      <trkpt lat="46.15505" lon="-1.16727">
        <ele>14.8</ele>
        <time>2025-07-01T13:26:12Z</time>
      </trkpt>
      <trkpt lat="46.15508" lon="-1.16723">
        <ele>14.6</ele>
        <time>2025-07-01T13:26:19Z</time>
      </trkpt>
      <trkpt lat="46.15514" lon="-1.16708">
        <ele>14.6</ele>
        <time>2025-07-01T13:26:28Z</time>
      </trkpt>
      <trkpt lat="46.15517" lon="-1.16696">
        <ele>14.4</ele>
        <time>2025-07-01T13:26:37Z</time>
      </trkpt>
      <trkpt lat="46.15516" lon="-1.16687">
        <ele>14.4</ele>
        <time>2025-07-01T13:26:44Z</time>
      </trkpt>
      <trkpt lat="46.15516" lon="-1.16686">
        <ele>14.4</ele>
        <time>2025-07-01T13:26:45Z</time>
      </trkpt>
      <trkpt lat="46.15515" lon="-1.16687">
        <ele>14.4</ele>
        <time>2025-07-01T13:26:52Z</time>
      </trkpt>
      <trkpt lat="46.15518" lon="-1.16685">
        <ele>14.4</ele>
        <time>2025-07-01T13:26:57Z</time>
      </trkpt>
      <trkpt lat="46.1552" lon="-1.16685">
        <ele>14.2</ele>
        <time>2025-07-01T13:26:59Z</time>
      </trkpt>
      <trkpt lat="46.15524" lon="-1.16684">
        <ele>14.4</ele>
        <time>2025-07-01T13:27:03Z</time>
      </trkpt>
      <trkpt lat="46.15526" lon="-1.16683">
        <ele>14.6</ele>
        <time>2025-07-01T13:27:05Z</time>
      </trkpt>
      <trkpt lat="46.15531" lon="-1.16683">
        <ele>14.4</ele>
        <time>2025-07-01T13:27:12Z</time>
      </trkpt>
      <trkpt lat="46.15533" lon="-1.16685">
        <ele>14.2</ele>
        <time>2025-07-01T13:27:14Z</time>
      </trkpt>
      <trkpt lat="46.15534" lon="-1.16685">
        <ele>14.2</ele>
        <time>2025-07-01T13:27:15Z</time>
      </trkpt>
      <trkpt lat="46.15534" lon="-1.16684">
        <ele>14.2</ele>
        <time>2025-07-01T13:27:16Z</time>
      </trkpt>
      <trkpt lat="46.15534" lon="-1.16683">
        <ele>14.4</ele>
        <time>2025-07-01T13:27:17Z</time>
      </trkpt>
      <trkpt lat="46.15535" lon="-1.16682">
        <ele>14.4</ele>
        <time>2025-07-01T13:27:18Z</time>
      </trkpt>
      <trkpt lat="46.15534" lon="-1.16682">
        <ele>14.6</ele>
        <time>2025-07-01T13:27:19Z</time>
      </trkpt>
      <trkpt lat="46.15534" lon="-1.16681">
        <ele>14.6</ele>
        <time>2025-07-01T13:27:22Z</time>
      </trkpt>
      <trkpt lat="46.15534" lon="-1.1668">
        <ele>14.6</ele>
        <time>2025-07-01T13:27:24Z</time>
      </trkpt>
      <trkpt lat="46.15534" lon="-1.16679">
        <ele>14.6</ele>
        <time>2025-07-01T13:27:25Z</time>
      </trkpt>
      <trkpt lat="46.15534" lon="-1.16678">
        <ele>14.6</ele>
        <time>2025-07-01T13:27:26Z</time>
      </trkpt>
      <trkpt lat="46.15534" lon="-1.1667">
        <ele>14.2</ele>
        <time>2025-07-01T13:27:30Z</time>
      </trkpt>
      <trkpt lat="46.15533" lon="-1.16669">
        <ele>14.2</ele>
        <time>2025-07-01T13:27:31Z</time>
      </trkpt>
      <trkpt lat="46.15532" lon="-1.16656">
        <ele>14</ele>
        <time>2025-07-01T13:27:39Z</time>
      </trkpt>
      <trkpt lat="46.15532" lon="-1.16654">
        <ele>14</ele>
        <time>2025-07-01T13:27:40Z</time>
      </trkpt>
      <trkpt lat="46.15533" lon="-1.16651">
        <ele>14</ele>
        <time>2025-07-01T13:27:43Z</time>
      </trkpt>
      <trkpt lat="46.15534" lon="-1.16646">
        <ele>14.2</ele>
        <time>2025-07-01T13:27:46Z</time>
      </trkpt>
      <trkpt lat="46.15534" lon="-1.16643">
        <ele>14.2</ele>
        <time>2025-07-01T13:27:48Z</time>
      </trkpt>
      <trkpt lat="46.15531" lon="-1.16637">
        <ele>14.2</ele>
        <time>2025-07-01T13:27:52Z</time>
      </trkpt>
      <trkpt lat="46.15529" lon="-1.16635">
        <ele>14.2</ele>
        <time>2025-07-01T13:27:54Z</time>
      </trkpt>
      <trkpt lat="46.15528" lon="-1.16624">
        <ele>14.2</ele>
        <time>2025-07-01T13:27:59Z</time>
      </trkpt>
      <trkpt lat="46.15532" lon="-1.16609">
        <ele>14.2</ele>
        <time>2025-07-01T13:28:09Z</time>
      </trkpt>
      <trkpt lat="46.15533" lon="-1.16598">
        <ele>14.2</ele>
        <time>2025-07-01T13:28:15Z</time>
      </trkpt>
      <trkpt lat="46.15533" lon="-1.16589">
        <ele>14</ele>
        <time>2025-07-01T13:28:21Z</time>
      </trkpt>
      <trkpt lat="46.15533" lon="-1.16585">
        <ele>14</ele>
        <time>2025-07-01T13:28:24Z</time>
      </trkpt>
      <trkpt lat="46.15536" lon="-1.16581">
        <ele>14</ele>
        <time>2025-07-01T13:28:27Z</time>
      </trkpt>
      <trkpt lat="46.15539" lon="-1.16576">
        <ele>13.8</ele>
        <time>2025-07-01T13:28:30Z</time>
      </trkpt>
      <trkpt lat="46.15539" lon="-1.16575">
        <ele>13.8</ele>
        <time>2025-07-01T13:28:31Z</time>
      </trkpt>
      <trkpt lat="46.15542" lon="-1.16574">
        <ele>13.8</ele>
        <time>2025-07-01T13:28:33Z</time>
      </trkpt>
      <trkpt lat="46.15543" lon="-1.16574">
        <ele>13.8</ele>
        <time>2025-07-01T13:28:34Z</time>
      </trkpt>
      <trkpt lat="46.15544" lon="-1.16573">
        <ele>13.8</ele>
        <time>2025-07-01T13:28:36Z</time>
      </trkpt>
      <trkpt lat="46.15544" lon="-1.16571">
        <ele>13.6</ele>
        <time>2025-07-01T13:28:39Z</time>
      </trkpt>
      <trkpt lat="46.15542" lon="-1.16569">
        <ele>12.4</ele>
        <time>2025-07-01T13:28:45Z</time>
      </trkpt>
      <trkpt lat="46.15541" lon="-1.16568">
        <ele>11.4</ele>
        <time>2025-07-01T13:28:49Z</time>
      </trkpt>
      <trkpt lat="46.15541" lon="-1.16565">
        <ele>11</ele>
        <time>2025-07-01T13:28:51Z</time>
      </trkpt>
      <trkpt lat="46.1554" lon="-1.16559">
        <ele>11</ele>
        <time>2025-07-01T13:28:54Z</time>
      </trkpt>
      <trkpt lat="46.15541" lon="-1.16551">
        <ele>11</ele>
        <time>2025-07-01T13:28:59Z</time>
      </trkpt>
      <trkpt lat="46.15542" lon="-1.16551">
        <ele>11</ele>
        <time>2025-07-01T13:29:00Z</time>
      </trkpt>
      <trkpt lat="46.15546" lon="-1.16545">
        <ele>11</ele>
        <time>2025-07-01T13:29:05Z</time>
      </trkpt>
      <trkpt lat="46.15545" lon="-1.16542">
        <ele>10.8</ele>
        <time>2025-07-01T13:29:07Z</time>
      </trkpt>
      <trkpt lat="46.15543" lon="-1.16541">
        <ele>11</ele>
        <time>2025-07-01T13:29:10Z</time>
      </trkpt>
      <trkpt lat="46.15544" lon="-1.16534">
        <ele>12</ele>
        <time>2025-07-01T13:29:16Z</time>
      </trkpt>
      <trkpt lat="46.15545" lon="-1.16526">
        <ele>12.2</ele>
        <time>2025-07-01T13:29:21Z</time>
      </trkpt>
      <trkpt lat="46.15549" lon="-1.16514">
        <ele>11.8</ele>
        <time>2025-07-01T13:29:30Z</time>
      </trkpt>
      <trkpt lat="46.15551" lon="-1.16504">
        <ele>11.8</ele>
        <time>2025-07-01T13:29:36Z</time>
      </trkpt>
      <trkpt lat="46.15552" lon="-1.16503">
        <ele>11.6</ele>
        <time>2025-07-01T13:29:37Z</time>
      </trkpt>
      <trkpt lat="46.15554" lon="-1.1649">
        <ele>11.6</ele>
        <time>2025-07-01T13:29:44Z</time>
      </trkpt>
      <trkpt lat="46.15554" lon="-1.16488">
        <ele>11.6</ele>
        <time>2025-07-01T13:29:45Z</time>
      </trkpt>
      <trkpt lat="46.15557" lon="-1.16474">
        <ele>10.8</ele>
        <time>2025-07-01T13:29:52Z</time>
      </trkpt>
      <trkpt lat="46.15557" lon="-1.16473">
        <ele>10.8</ele>
        <time>2025-07-01T13:29:53Z</time>
      </trkpt>
      <trkpt lat="46.15557" lon="-1.16467">
        <ele>10.8</ele>
        <time>2025-07-01T13:29:56Z</time>
      </trkpt>
      <trkpt lat="46.15559" lon="-1.16464">
        <ele>10.8</ele>
        <time>2025-07-01T13:29:57Z</time>
      </trkpt>
      <trkpt lat="46.15559" lon="-1.16458">
        <ele>10.8</ele>
        <time>2025-07-01T13:30:00Z</time>
      </trkpt>
      <trkpt lat="46.15559" lon="-1.16454">
        <ele>10.8</ele>
        <time>2025-07-01T13:30:02Z</time>
      </trkpt>
      <trkpt lat="46.15559" lon="-1.16453">
        <ele>10.6</ele>
        <time>2025-07-01T13:30:03Z</time>
      </trkpt>
      <trkpt lat="46.1556" lon="-1.16448">
        <ele>10.4</ele>
        <time>2025-07-01T13:30:06Z</time>
      </trkpt>
      <trkpt lat="46.15561" lon="-1.16445">
        <ele>10.2</ele>
        <time>2025-07-01T13:30:08Z</time>
      </trkpt>
      <trkpt lat="46.15561" lon="-1.16443">
        <ele>10</ele>
        <time>2025-07-01T13:30:10Z</time>
      </trkpt>
      <trkpt lat="46.15562" lon="-1.16437">
        <ele>10</ele>
        <time>2025-07-01T13:30:13Z</time>
      </trkpt>
      <trkpt lat="46.15563" lon="-1.16431">
        <ele>10</ele>
        <time>2025-07-01T13:30:16Z</time>
      </trkpt>
      <trkpt lat="46.15564" lon="-1.16425">
        <ele>10.2</ele>
        <time>2025-07-01T13:30:19Z</time>
      </trkpt>
      <trkpt lat="46.15565" lon="-1.16421">
        <ele>10.4</ele>
        <time>2025-07-01T13:30:22Z</time>
      </trkpt>
      <trkpt lat="46.15568" lon="-1.16411">
        <ele>10</ele>
        <time>2025-07-01T13:30:28Z</time>
      </trkpt>
      <trkpt lat="46.15567" lon="-1.16394">
        <ele>10.4</ele>
        <time>2025-07-01T13:30:36Z</time>
      </trkpt>
      <trkpt lat="46.15568" lon="-1.16393">
        <ele>10.4</ele>
        <time>2025-07-01T13:30:37Z</time>
      </trkpt>
      <trkpt lat="46.15569" lon="-1.16386">
        <ele>10.2</ele>
        <time>2025-07-01T13:30:41Z</time>
      </trkpt>
      <trkpt lat="46.1557" lon="-1.16381">
        <ele>10.2</ele>
        <time>2025-07-01T13:30:44Z</time>
      </trkpt>
      <trkpt lat="46.15573" lon="-1.16368">
        <ele>10.2</ele>
        <time>2025-07-01T13:30:51Z</time>
      </trkpt>
      <trkpt lat="46.15573" lon="-1.16362">
        <ele>10.4</ele>
        <time>2025-07-01T13:30:54Z</time>
      </trkpt>
      <trkpt lat="46.15574" lon="-1.16352">
        <ele>10.4</ele>
        <time>2025-07-01T13:30:59Z</time>
      </trkpt>
      <trkpt lat="46.15576" lon="-1.16347">
        <ele>10.4</ele>
        <time>2025-07-01T13:31:02Z</time>
      </trkpt>
      <trkpt lat="46.15578" lon="-1.16333">
        <ele>10.6</ele>
        <time>2025-07-01T13:31:09Z</time>
      </trkpt>
      <trkpt lat="46.15578" lon="-1.16332">
        <ele>10.6</ele>
        <time>2025-07-01T13:31:10Z</time>
      </trkpt>
      <trkpt lat="46.15578" lon="-1.16312">
        <ele>10.6</ele>
        <time>2025-07-01T13:31:21Z</time>
      </trkpt>
      <trkpt lat="46.15577" lon="-1.16294">
        <ele>10.4</ele>
        <time>2025-07-01T13:31:30Z</time>
      </trkpt>
      <trkpt lat="46.15576" lon="-1.16271">
        <ele>10.4</ele>
        <time>2025-07-01T13:31:42Z</time>
      </trkpt>
      <trkpt lat="46.15576" lon="-1.16259">
        <ele>10.4</ele>
        <time>2025-07-01T13:31:49Z</time>
      </trkpt>
      <trkpt lat="46.15576" lon="-1.16257">
        <ele>10.6</ele>
        <time>2025-07-01T13:31:50Z</time>
      </trkpt>
      <trkpt lat="46.15579" lon="-1.16241">
        <ele>10.6</ele>
        <time>2025-07-01T13:31:58Z</time>
      </trkpt>
      <trkpt lat="46.15578" lon="-1.16225">
        <ele>10.8</ele>
        <time>2025-07-01T13:32:06Z</time>
      </trkpt>
      <trkpt lat="46.15577" lon="-1.16222">
        <ele>10.8</ele>
        <time>2025-07-01T13:32:08Z</time>
      </trkpt>
      <trkpt lat="46.15576" lon="-1.16209">
        <ele>10.8</ele>
        <time>2025-07-01T13:32:15Z</time>
      </trkpt>
      <trkpt lat="46.15576" lon="-1.16207">
        <ele>11</ele>
        <time>2025-07-01T13:32:16Z</time>
      </trkpt>
      <trkpt lat="46.15576" lon="-1.16203">
        <ele>11</ele>
        <time>2025-07-01T13:32:18Z</time>
      </trkpt>
      <trkpt lat="46.15575" lon="-1.16189">
        <ele>10.4</ele>
        <time>2025-07-01T13:32:26Z</time>
      </trkpt>
      <trkpt lat="46.15576" lon="-1.16183">
        <ele>10.2</ele>
        <time>2025-07-01T13:32:30Z</time>
      </trkpt>
      <trkpt lat="46.15575" lon="-1.16181">
        <ele>10.2</ele>
        <time>2025-07-01T13:32:31Z</time>
      </trkpt>
      <trkpt lat="46.15573" lon="-1.1617">
        <ele>10.2</ele>
        <time>2025-07-01T13:32:36Z</time>
      </trkpt>
      <trkpt lat="46.15571" lon="-1.16159">
        <ele>10.2</ele>
        <time>2025-07-01T13:32:41Z</time>
      </trkpt>
      <trkpt lat="46.15568" lon="-1.16148">
        <ele>10.2</ele>
        <time>2025-07-01T13:32:47Z</time>
      </trkpt>
      <trkpt lat="46.15567" lon="-1.16145">
        <ele>10</ele>
        <time>2025-07-01T13:32:49Z</time>
      </trkpt>
      <trkpt lat="46.15564" lon="-1.16137">
        <ele>10</ele>
        <time>2025-07-01T13:32:54Z</time>
      </trkpt>
      <trkpt lat="46.15563" lon="-1.16135">
        <ele>10</ele>
        <time>2025-07-01T13:32:55Z</time>
      </trkpt>
      <trkpt lat="46.15561" lon="-1.16131">
        <ele>10</ele>
        <time>2025-07-01T13:32:58Z</time>
      </trkpt>
      <trkpt lat="46.15559" lon="-1.16123">
        <ele>10</ele>
        <time>2025-07-01T13:33:03Z</time>
      </trkpt>
      <trkpt lat="46.15555" lon="-1.16109">
        <ele>10</ele>
        <time>2025-07-01T13:33:11Z</time>
      </trkpt>
      <trkpt lat="46.15556" lon="-1.16094">
        <ele>9.8</ele>
        <time>2025-07-01T13:33:18Z</time>
      </trkpt>
      <trkpt lat="46.15556" lon="-1.16092">
        <ele>9.6</ele>
        <time>2025-07-01T13:33:19Z</time>
      </trkpt>
      <trkpt lat="46.15559" lon="-1.16075">
        <ele>9.4</ele>
        <time>2025-07-01T13:33:29Z</time>
      </trkpt>
      <trkpt lat="46.15559" lon="-1.16073">
        <ele>9.4</ele>
        <time>2025-07-01T13:33:30Z</time>
      </trkpt>
      <trkpt lat="46.15557" lon="-1.16058">
        <ele>9.4</ele>
        <time>2025-07-01T13:33:38Z</time>
      </trkpt>
      <trkpt lat="46.15554" lon="-1.16053">
        <ele>9.4</ele>
        <time>2025-07-01T13:33:42Z</time>
      </trkpt>
      <trkpt lat="46.15549" lon="-1.16049">
        <ele>9.4</ele>
        <time>2025-07-01T13:33:46Z</time>
      </trkpt>
      <trkpt lat="46.15544" lon="-1.16042">
        <ele>9.6</ele>
        <time>2025-07-01T13:33:51Z</time>
      </trkpt>
      <trkpt lat="46.15542" lon="-1.1604">
        <ele>9.6</ele>
        <time>2025-07-01T13:33:53Z</time>
      </trkpt>
      <trkpt lat="46.15537" lon="-1.16031">
        <ele>9.4</ele>
        <time>2025-07-01T13:33:59Z</time>
      </trkpt>
      <trkpt lat="46.15536" lon="-1.1603">
        <ele>9.4</ele>
        <time>2025-07-01T13:34:00Z</time>
      </trkpt>
      <trkpt lat="46.1553" lon="-1.1602">
        <ele>9.4</ele>
        <time>2025-07-01T13:34:08Z</time>
      </trkpt>
      <trkpt lat="46.15514" lon="-1.16004">
        <ele>9.6</ele>
        <time>2025-07-01T13:34:23Z</time>
      </trkpt>
      <trkpt lat="46.15507" lon="-1.15995">
        <ele>9.6</ele>
        <time>2025-07-01T13:34:30Z</time>
      </trkpt>
      <trkpt lat="46.15502" lon="-1.15989">
        <ele>9.6</ele>
        <time>2025-07-01T13:34:35Z</time>
      </trkpt>
      <trkpt lat="46.15501" lon="-1.15986">
        <ele>9.4</ele>
        <time>2025-07-01T13:34:37Z</time>
      </trkpt>
      <trkpt lat="46.155" lon="-1.15983">
        <ele>9.4</ele>
        <time>2025-07-01T13:34:39Z</time>
      </trkpt>
      <trkpt lat="46.15499" lon="-1.15977">
        <ele>9.4</ele>
        <time>2025-07-01T13:34:42Z</time>
      </trkpt>
      <trkpt lat="46.15498" lon="-1.15974">
        <ele>9.4</ele>
        <time>2025-07-01T13:34:44Z</time>
      </trkpt>
      <trkpt lat="46.15498" lon="-1.15973">
        <ele>9.4</ele>
        <time>2025-07-01T13:34:45Z</time>
      </trkpt>
      <trkpt lat="46.155" lon="-1.15967">
        <ele>9.8</ele>
        <time>2025-07-01T13:34:49Z</time>
      </trkpt>
      <trkpt lat="46.15503" lon="-1.15963">
        <ele>9.8</ele>
        <time>2025-07-01T13:34:52Z</time>
      </trkpt>
      <trkpt lat="46.15504" lon="-1.15961">
        <ele>9.8</ele>
        <time>2025-07-01T13:34:54Z</time>
      </trkpt>
      <trkpt lat="46.15506" lon="-1.15957">
        <ele>9.8</ele>
        <time>2025-07-01T13:34:57Z</time>
      </trkpt>
      <trkpt lat="46.15507" lon="-1.15955">
        <ele>10</ele>
        <time>2025-07-01T13:34:59Z</time>
      </trkpt>
      <trkpt lat="46.15507" lon="-1.15954">
        <ele>10.2</ele>
        <time>2025-07-01T13:35:04Z</time>
      </trkpt>
      <trkpt lat="46.15507" lon="-1.15954">
        <ele>10.2</ele>
        <time>2025-07-01T13:35:05Z</time>
      </trkpt>
      <trkpt lat="46.15511" lon="-1.15956">
        <ele>10</ele>
        <time>2025-07-01T13:35:10Z</time>
      </trkpt>
      <trkpt lat="46.15514" lon="-1.15955">
        <ele>10.2</ele>
        <time>2025-07-01T13:35:13Z</time>
      </trkpt>
      <trkpt lat="46.15517" lon="-1.15952">
        <ele>10.2</ele>
        <time>2025-07-01T13:35:16Z</time>
      </trkpt>
      <trkpt lat="46.15521" lon="-1.15952">
        <ele>10.4</ele>
        <time>2025-07-01T13:35:18Z</time>
      </trkpt>
      <trkpt lat="46.15524" lon="-1.15952">
        <ele>10</ele>
        <time>2025-07-01T13:35:21Z</time>
      </trkpt>
      <trkpt lat="46.15524" lon="-1.15952">
        <ele>10</ele>
        <time>2025-07-01T13:35:22Z</time>
      </trkpt>
      <trkpt lat="46.15523" lon="-1.15951">
        <ele>9.2</ele>
        <time>2025-07-01T13:35:37Z</time>
      </trkpt>
      <trkpt lat="46.15523" lon="-1.15951">
        <ele>9</ele>
        <time>2025-07-01T13:35:41Z</time>
      </trkpt>
      <trkpt lat="46.15527" lon="-1.15943">
        <ele>9</ele>
        <time>2025-07-01T13:35:45Z</time>
      </trkpt>
      <trkpt lat="46.1553" lon="-1.1593">
        <ele>8.8</ele>
        <time>2025-07-01T13:35:51Z</time>
      </trkpt>
      <trkpt lat="46.15532" lon="-1.15919">
        <ele>8.8</ele>
        <time>2025-07-01T13:35:58Z</time>
      </trkpt>
      <trkpt lat="46.15531" lon="-1.15916">
        <ele>8.8</ele>
        <time>2025-07-01T13:36:00Z</time>
      </trkpt>
      <trkpt lat="46.1553" lon="-1.1591">
        <ele>8.2</ele>
        <time>2025-07-01T13:36:04Z</time>
      </trkpt>
      <trkpt lat="46.1553" lon="-1.15908">
        <ele>8</ele>
        <time>2025-07-01T13:36:06Z</time>
      </trkpt>
      <trkpt lat="46.15529" lon="-1.15906">
        <ele>8</ele>
        <time>2025-07-01T13:36:08Z</time>
      </trkpt>
      <trkpt lat="46.1553" lon="-1.15902">
        <ele>8</ele>
        <time>2025-07-01T13:36:13Z</time>
      </trkpt>
      <trkpt lat="46.15531" lon="-1.15899">
        <ele>8</ele>
        <time>2025-07-01T13:36:15Z</time>
      </trkpt>
      <trkpt lat="46.15531" lon="-1.15899">
        <ele>8</ele>
        <time>2025-07-01T13:36:16Z</time>
      </trkpt>
      <trkpt lat="46.1553" lon="-1.15897">
        <ele>8</ele>
        <time>2025-07-01T13:36:19Z</time>
      </trkpt>
      <trkpt lat="46.15532" lon="-1.15896">
        <ele>8</ele>
        <time>2025-07-01T13:36:24Z</time>
      </trkpt>
      <trkpt lat="46.15531" lon="-1.15897">
        <ele>8.2</ele>
        <time>2025-07-01T13:36:27Z</time>
      </trkpt>
      <trkpt lat="46.1553" lon="-1.159">
        <ele>8.2</ele>
        <time>2025-07-01T13:36:34Z</time>
      </trkpt>
      <trkpt lat="46.1553" lon="-1.159">
        <ele>8.4</ele>
        <time>2025-07-01T13:36:37Z</time>
      </trkpt>
      <trkpt lat="46.15531" lon="-1.15896">
        <ele>8.2</ele>
        <time>2025-07-01T13:36:41Z</time>
      </trkpt>
      <trkpt lat="46.15532" lon="-1.15887">
        <ele>8.4</ele>
        <time>2025-07-01T13:36:47Z</time>
      </trkpt>
      <trkpt lat="46.15531" lon="-1.15883">
        <ele>8.4</ele>
        <time>2025-07-01T13:36:50Z</time>
      </trkpt>
      <trkpt lat="46.15531" lon="-1.15882">
        <ele>8.4</ele>
        <time>2025-07-01T13:36:51Z</time>
      </trkpt>
      <trkpt lat="46.1553" lon="-1.15881">
        <ele>8.2</ele>
        <time>2025-07-01T13:36:52Z</time>
      </trkpt>
      <trkpt lat="46.1553" lon="-1.15879">
        <ele>8.2</ele>
        <time>2025-07-01T13:36:55Z</time>
      </trkpt>
      <trkpt lat="46.15532" lon="-1.15878">
        <ele>8</ele>
        <time>2025-07-01T13:36:57Z</time>
      </trkpt>
      <trkpt lat="46.15531" lon="-1.15877">
        <ele>8</ele>
        <time>2025-07-01T13:36:58Z</time>
      </trkpt>
      <trkpt lat="46.15531" lon="-1.15877">
        <ele>8</ele>
        <time>2025-07-01T13:37:00Z</time>
      </trkpt>
      <trkpt lat="46.15532" lon="-1.15878">
        <ele>8</ele>
        <time>2025-07-01T13:37:02Z</time>
      </trkpt>
      <trkpt lat="46.15529" lon="-1.15881">
        <ele>7.8</ele>
        <time>2025-07-01T13:37:06Z</time>
      </trkpt>
      <trkpt lat="46.15529" lon="-1.15881">
        <ele>7.8</ele>
        <time>2025-07-01T13:37:07Z</time>
      </trkpt>
      <trkpt lat="46.15529" lon="-1.15881">
        <ele>7.6</ele>
        <time>2025-07-01T13:37:12Z</time>
      </trkpt>
      <trkpt lat="46.15531" lon="-1.15879">
        <ele>7.2</ele>
        <time>2025-07-01T13:37:28Z</time>
      </trkpt>
      <trkpt lat="46.15533" lon="-1.15876">
        <ele>7.4</ele>
        <time>2025-07-01T13:37:30Z</time>
      </trkpt>
      <trkpt lat="46.15541" lon="-1.15862">
        <ele>7.8</ele>
        <time>2025-07-01T13:37:38Z</time>
      </trkpt>
      <trkpt lat="46.15545" lon="-1.15857">
        <ele>7.8</ele>
        <time>2025-07-01T13:37:43Z</time>
      </trkpt>
      <trkpt lat="46.15546" lon="-1.15854">
        <ele>7.8</ele>
        <time>2025-07-01T13:37:45Z</time>
      </trkpt>
      <trkpt lat="46.15551" lon="-1.1584">
        <ele>7.8</ele>
        <time>2025-07-01T13:37:54Z</time>
      </trkpt>
      <trkpt lat="46.15552" lon="-1.15836">
        <ele>8</ele>
        <time>2025-07-01T13:37:59Z</time>
      </trkpt>
      <trkpt lat="46.15553" lon="-1.15835">
        <ele>8</ele>
        <time>2025-07-01T13:38:05Z</time>
      </trkpt>
      <trkpt lat="46.15558" lon="-1.15829">
        <ele>8</ele>
        <time>2025-07-01T13:38:11Z</time>
      </trkpt>
      <trkpt lat="46.15562" lon="-1.1582">
        <ele>7.8</ele>
        <time>2025-07-01T13:38:19Z</time>
      </trkpt>
      <trkpt lat="46.15565" lon="-1.15807">
        <ele>7.6</ele>
        <time>2025-07-01T13:38:27Z</time>
      </trkpt>
      <trkpt lat="46.15567" lon="-1.15799">
        <ele>7.4</ele>
        <time>2025-07-01T13:38:32Z</time>
      </trkpt>
      <trkpt lat="46.15569" lon="-1.15796">
        <ele>7.4</ele>
        <time>2025-07-01T13:38:34Z</time>
      </trkpt>
      <trkpt lat="46.15574" lon="-1.15777">
        <ele>7.4</ele>
        <time>2025-07-01T13:38:46Z</time>
      </trkpt>
      <trkpt lat="46.15576" lon="-1.15774">
        <ele>7</ele>
        <time>2025-07-01T13:38:48Z</time>
      </trkpt>
      <trkpt lat="46.1558" lon="-1.15762">
        <ele>6.8</ele>
        <time>2025-07-01T13:38:56Z</time>
      </trkpt>
      <trkpt lat="46.15585" lon="-1.15751">
        <ele>7.2</ele>
        <time>2025-07-01T13:39:05Z</time>
      </trkpt>
      <trkpt lat="46.15587" lon="-1.15747">
        <ele>7.4</ele>
        <time>2025-07-01T13:39:09Z</time>
      </trkpt>
      <trkpt lat="46.15588" lon="-1.15741">
        <ele>6.8</ele>
        <time>2025-07-01T13:39:14Z</time>
      </trkpt>
      <trkpt lat="46.15588" lon="-1.15739">
        <ele>6.8</ele>
        <time>2025-07-01T13:39:15Z</time>
      </trkpt>
      <trkpt lat="46.15588" lon="-1.15737">
        <ele>7</ele>
        <time>2025-07-01T13:39:16Z</time>
      </trkpt>
      <trkpt lat="46.15591" lon="-1.15725">
        <ele>6.8</ele>
        <time>2025-07-01T13:39:24Z</time>
      </trkpt>
      <trkpt lat="46.15596" lon="-1.15709">
        <ele>7.2</ele>
        <time>2025-07-01T13:39:34Z</time>
      </trkpt>
      <trkpt lat="46.15595" lon="-1.15702">
        <ele>8.2</ele>
        <time>2025-07-01T13:39:39Z</time>
      </trkpt>
      <trkpt lat="46.15594" lon="-1.15697">
        <ele>8.4</ele>
        <time>2025-07-01T13:39:42Z</time>
      </trkpt>
      <trkpt lat="46.15593" lon="-1.15694">
        <ele>8.8</ele>
        <time>2025-07-01T13:39:44Z</time>
      </trkpt>
      <trkpt lat="46.15593" lon="-1.15693">
        <ele>8.8</ele>
        <time>2025-07-01T13:39:45Z</time>
      </trkpt>
      <trkpt lat="46.15589" lon="-1.15689">
        <ele>9.2</ele>
        <time>2025-07-01T13:39:49Z</time>
      </trkpt>
      <trkpt lat="46.15588" lon="-1.15687">
        <ele>9.4</ele>
        <time>2025-07-01T13:39:51Z</time>
      </trkpt>
      <trkpt lat="46.15587" lon="-1.15684">
        <ele>9.8</ele>
        <time>2025-07-01T13:39:54Z</time>
      </trkpt>
      <trkpt lat="46.15587" lon="-1.1568">
        <ele>10.2</ele>
        <time>2025-07-01T13:39:57Z</time>
      </trkpt>
      <trkpt lat="46.15587" lon="-1.15676">
        <ele>10.4</ele>
        <time>2025-07-01T13:39:59Z</time>
      </trkpt>
      <trkpt lat="46.15585" lon="-1.15669">
        <ele>10.6</ele>
        <time>2025-07-01T13:40:04Z</time>
      </trkpt>
      <trkpt lat="46.15585" lon="-1.15667">
        <ele>10.6</ele>
        <time>2025-07-01T13:40:05Z</time>
      </trkpt>
      <trkpt lat="46.15585" lon="-1.15655">
        <ele>10.4</ele>
        <time>2025-07-01T13:40:12Z</time>
      </trkpt>
      <trkpt lat="46.15585" lon="-1.15651">
        <ele>10.8</ele>
        <time>2025-07-01T13:40:18Z</time>
      </trkpt>
      <trkpt lat="46.15585" lon="-1.15643">
        <ele>10.6</ele>
        <time>2025-07-01T13:40:24Z</time>
      </trkpt>
      <trkpt lat="46.15585" lon="-1.15642">
        <ele>10.6</ele>
        <time>2025-07-01T13:40:25Z</time>
      </trkpt>
      <trkpt lat="46.15583" lon="-1.15638">
        <ele>10.6</ele>
        <time>2025-07-01T13:40:27Z</time>
      </trkpt>
      <trkpt lat="46.15583" lon="-1.15632">
        <ele>10.6</ele>
        <time>2025-07-01T13:40:30Z</time>
      </trkpt>
      <trkpt lat="46.15583" lon="-1.15621">
        <ele>10.8</ele>
        <time>2025-07-01T13:40:36Z</time>
      </trkpt>
      <trkpt lat="46.15583" lon="-1.15617">
        <ele>10.8</ele>
        <time>2025-07-01T13:40:38Z</time>
      </trkpt>
      <trkpt lat="46.15582" lon="-1.15605">
        <ele>10.8</ele>
        <time>2025-07-01T13:40:45Z</time>
      </trkpt>
      <trkpt lat="46.15582" lon="-1.15597">
        <ele>10.6</ele>
        <time>2025-07-01T13:40:50Z</time>
      </trkpt>
      <trkpt lat="46.15581" lon="-1.15593">
        <ele>10.6</ele>
        <time>2025-07-01T13:40:52Z</time>
      </trkpt>
      <trkpt lat="46.1558" lon="-1.1558">
        <ele>10.8</ele>
        <time>2025-07-01T13:41:00Z</time>
      </trkpt>
      <trkpt lat="46.1558" lon="-1.15573">
        <ele>10.8</ele>
        <time>2025-07-01T13:41:04Z</time>
      </trkpt>
      <trkpt lat="46.15581" lon="-1.15567">
        <ele>10.8</ele>
        <time>2025-07-01T13:41:08Z</time>
      </trkpt>
      <trkpt lat="46.15582" lon="-1.1556">
        <ele>10.8</ele>
        <time>2025-07-01T13:41:12Z</time>
      </trkpt>
      <trkpt lat="46.15582" lon="-1.15555">
        <ele>10.6</ele>
        <time>2025-07-01T13:41:15Z</time>
      </trkpt>
      <trkpt lat="46.15581" lon="-1.15543">
        <ele>10.6</ele>
        <time>2025-07-01T13:41:22Z</time>
      </trkpt>
      <trkpt lat="46.15581" lon="-1.15533">
        <ele>10.4</ele>
        <time>2025-07-01T13:41:27Z</time>
      </trkpt>
      <trkpt lat="46.1558" lon="-1.15526">
        <ele>10.4</ele>
        <time>2025-07-01T13:41:31Z</time>
      </trkpt>
      <trkpt lat="46.1558" lon="-1.15526">
        <ele>10.4</ele>
        <time>2025-07-01T13:41:32Z</time>
      </trkpt>
      <trkpt lat="46.1558" lon="-1.15524">
        <ele>10.4</ele>
        <time>2025-07-01T13:41:33Z</time>
      </trkpt>
      <trkpt lat="46.1558" lon="-1.15522">
        <ele>10.4</ele>
        <time>2025-07-01T13:41:34Z</time>
      </trkpt>
      <trkpt lat="46.15579" lon="-1.15519">
        <ele>10.4</ele>
        <time>2025-07-01T13:41:36Z</time>
      </trkpt>
      <trkpt lat="46.15579" lon="-1.15514">
        <ele>10.4</ele>
        <time>2025-07-01T13:41:38Z</time>
      </trkpt>
      <trkpt lat="46.15579" lon="-1.15513">
        <ele>10.4</ele>
        <time>2025-07-01T13:41:39Z</time>
      </trkpt>
      <trkpt lat="46.15579" lon="-1.15512">
        <ele>10.4</ele>
        <time>2025-07-01T13:41:41Z</time>
      </trkpt>
      <trkpt lat="46.15579" lon="-1.15513">
        <ele>10.4</ele>
        <time>2025-07-01T13:41:42Z</time>
      </trkpt>
      <trkpt lat="46.15579" lon="-1.15513">
        <ele>10.4</ele>
        <time>2025-07-01T13:41:43Z</time>
      </trkpt>
      <trkpt lat="46.1558" lon="-1.15512">
        <ele>10.2</ele>
        <time>2025-07-01T13:41:45Z</time>
      </trkpt>
      <trkpt lat="46.1558" lon="-1.15509">
        <ele>10.2</ele>
        <time>2025-07-01T13:41:47Z</time>
      </trkpt>
      <trkpt lat="46.1558" lon="-1.15501">
        <ele>10.4</ele>
        <time>2025-07-01T13:41:51Z</time>
      </trkpt>
      <trkpt lat="46.15581" lon="-1.15498">
        <ele>10.2</ele>
        <time>2025-07-01T13:41:53Z</time>
      </trkpt>
      <trkpt lat="46.15581" lon="-1.15493">
        <ele>10</ele>
        <time>2025-07-01T13:41:56Z</time>
      </trkpt>
      <trkpt lat="46.1558" lon="-1.1549">
        <ele>10</ele>
        <time>2025-07-01T13:41:58Z</time>
      </trkpt>
      <trkpt lat="46.15579" lon="-1.15485">
        <ele>10</ele>
        <time>2025-07-01T13:42:01Z</time>
      </trkpt>
      <trkpt lat="46.15578" lon="-1.15471">
        <ele>9.8</ele>
        <time>2025-07-01T13:42:09Z</time>
      </trkpt>
      <trkpt lat="46.15578" lon="-1.15471">
        <ele>9.8</ele>
        <time>2025-07-01T13:42:10Z</time>
      </trkpt>
      <trkpt lat="46.1558" lon="-1.15462">
        <ele>9.6</ele>
        <time>2025-07-01T13:42:17Z</time>
      </trkpt>
      <trkpt lat="46.15582" lon="-1.15455">
        <ele>9.6</ele>
        <time>2025-07-01T13:42:23Z</time>
      </trkpt>
      <trkpt lat="46.15581" lon="-1.15454">
        <ele>9.6</ele>
        <time>2025-07-01T13:42:25Z</time>
      </trkpt>
      <trkpt lat="46.15581" lon="-1.15452">
        <ele>9.8</ele>
        <time>2025-07-01T13:42:30Z</time>
      </trkpt>
      <trkpt lat="46.15579" lon="-1.1545">
        <ele>9.8</ele>
        <time>2025-07-01T13:42:38Z</time>
      </trkpt>
      <trkpt lat="46.1558" lon="-1.1545">
        <ele>9.8</ele>
        <time>2025-07-01T13:42:46Z</time>
      </trkpt>
      <trkpt lat="46.15579" lon="-1.1545">
        <ele>9.8</ele>
        <time>2025-07-01T13:42:48Z</time>
      </trkpt>
      <trkpt lat="46.15581" lon="-1.15448">
        <ele>9.8</ele>
        <time>2025-07-01T13:42:50Z</time>
      </trkpt>
      <trkpt lat="46.1558" lon="-1.15445">
        <ele>9.2</ele>
        <time>2025-07-01T13:42:54Z</time>
      </trkpt>
      <trkpt lat="46.1558" lon="-1.15444">
        <ele>8.8</ele>
        <time>2025-07-01T13:42:56Z</time>
      </trkpt>
      <trkpt lat="46.15582" lon="-1.15441">
        <ele>8.2</ele>
        <time>2025-07-01T13:42:59Z</time>
      </trkpt>
      <trkpt lat="46.15582" lon="-1.15439">
        <ele>8</ele>
        <time>2025-07-01T13:43:02Z</time>
      </trkpt>
      <trkpt lat="46.15583" lon="-1.15437">
        <ele>7.2</ele>
        <time>2025-07-01T13:43:04Z</time>
      </trkpt>
      <trkpt lat="46.15584" lon="-1.15436">
        <ele>7</ele>
        <time>2025-07-01T13:43:05Z</time>
      </trkpt>
      <trkpt lat="46.15587" lon="-1.15434">
        <ele>6.4</ele>
        <time>2025-07-01T13:43:08Z</time>
      </trkpt>
      <trkpt lat="46.15588" lon="-1.15433">
        <ele>6.2</ele>
        <time>2025-07-01T13:43:09Z</time>
      </trkpt>
      <trkpt lat="46.15593" lon="-1.15429">
        <ele>6</ele>
        <time>2025-07-01T13:43:14Z</time>
      </trkpt>
      <trkpt lat="46.15596" lon="-1.15427">
        <ele>5.8</ele>
        <time>2025-07-01T13:43:16Z</time>
      </trkpt>
      <trkpt lat="46.15602" lon="-1.15421">
        <ele>5.6</ele>
        <time>2025-07-01T13:43:23Z</time>
      </trkpt>
      <trkpt lat="46.15612" lon="-1.15417">
        <ele>5.6</ele>
        <time>2025-07-01T13:43:33Z</time>
      </trkpt>
      <trkpt lat="46.15624" lon="-1.15413">
        <ele>5.2</ele>
        <time>2025-07-01T13:43:44Z</time>
      </trkpt>
      <trkpt lat="46.15632" lon="-1.15406">
        <ele>5.2</ele>
        <time>2025-07-01T13:43:52Z</time>
      </trkpt>
      <trkpt lat="46.15633" lon="-1.15405">
        <ele>5.2</ele>
        <time>2025-07-01T13:43:53Z</time>
      </trkpt>
      <trkpt lat="46.15632" lon="-1.15401">
        <ele>5.4</ele>
        <time>2025-07-01T13:43:57Z</time>
      </trkpt>
      <trkpt lat="46.15636" lon="-1.15399">
        <ele>5.6</ele>
        <time>2025-07-01T13:44:02Z</time>
      </trkpt>
      <trkpt lat="46.15639" lon="-1.15398">
        <ele>5.6</ele>
        <time>2025-07-01T13:44:05Z</time>
      </trkpt>
      <trkpt lat="46.1564" lon="-1.15397">
        <ele>5.6</ele>
        <time>2025-07-01T13:44:06Z</time>
      </trkpt>
      <trkpt lat="46.15641" lon="-1.15396">
        <ele>6</ele>
        <time>2025-07-01T13:44:11Z</time>
      </trkpt>
      <trkpt lat="46.15642" lon="-1.15401">
        <ele>5.8</ele>
        <time>2025-07-01T13:44:17Z</time>
      </trkpt>
      <trkpt lat="46.15643" lon="-1.15403">
        <ele>5.6</ele>
        <time>2025-07-01T13:44:19Z</time>
      </trkpt>
      <trkpt lat="46.15648" lon="-1.15402">
        <ele>5.6</ele>
        <time>2025-07-01T13:44:23Z</time>
      </trkpt>
      <trkpt lat="46.15649" lon="-1.15401">
        <ele>5.6</ele>
        <time>2025-07-01T13:44:24Z</time>
      </trkpt>
      <trkpt lat="46.15659" lon="-1.15394">
        <ele>6</ele>
        <time>2025-07-01T13:44:33Z</time>
      </trkpt>
      <trkpt lat="46.15666" lon="-1.15389">
        <ele>6</ele>
        <time>2025-07-01T13:44:41Z</time>
      </trkpt>
      <trkpt lat="46.15669" lon="-1.15387">
        <ele>6</ele>
        <time>2025-07-01T13:44:48Z</time>
      </trkpt>
      <trkpt lat="46.15668" lon="-1.15385">
        <ele>6.6</ele>
        <time>2025-07-01T13:44:58Z</time>
      </trkpt>
      <trkpt lat="46.15673" lon="-1.15382">
        <ele>6.2</ele>
        <time>2025-07-01T13:45:10Z</time>
      </trkpt>
      <trkpt lat="46.15681" lon="-1.15377">
        <ele>6.4</ele>
        <time>2025-07-01T13:45:16Z</time>
      </trkpt>
      <trkpt lat="46.15684" lon="-1.15377">
        <ele>6.2</ele>
        <time>2025-07-01T13:45:18Z</time>
      </trkpt>
      <trkpt lat="46.15686" lon="-1.15377">
        <ele>6.2</ele>
        <time>2025-07-01T13:45:21Z</time>
      </trkpt>
      <trkpt lat="46.15691" lon="-1.15375">
        <ele>6.4</ele>
        <time>2025-07-01T13:45:26Z</time>
      </trkpt>
      <trkpt lat="46.15698" lon="-1.1537">
        <ele>7</ele>
        <time>2025-07-01T13:45:33Z</time>
      </trkpt>
      <trkpt lat="46.15701" lon="-1.15367">
        <ele>7.2</ele>
        <time>2025-07-01T13:45:37Z</time>
      </trkpt>
      <trkpt lat="46.15714" lon="-1.15362">
        <ele>7.6</ele>
        <time>2025-07-01T13:45:47Z</time>
      </trkpt>
      <trkpt lat="46.15717" lon="-1.15361">
        <ele>7.6</ele>
        <time>2025-07-01T13:45:50Z</time>
      </trkpt>
      <trkpt lat="46.15718" lon="-1.15363">
        <ele>7.6</ele>
        <time>2025-07-01T13:45:53Z</time>
      </trkpt>
      <trkpt lat="46.15721" lon="-1.15364">
        <ele>7.4</ele>
        <time>2025-07-01T13:45:57Z</time>
      </trkpt>
      <trkpt lat="46.15723" lon="-1.15363">
        <ele>7.4</ele>
        <time>2025-07-01T13:46:00Z</time>
      </trkpt>
      <trkpt lat="46.15723" lon="-1.15363">
        <ele>7.8</ele>
        <time>2025-07-01T13:46:05Z</time>
      </trkpt>
      <trkpt lat="46.15723" lon="-1.15375">
        <ele>11.4</ele>
        <time>2025-07-01T14:27:29Z</time>
      </trkpt>
      <trkpt lat="46.15723" lon="-1.15375">
        <ele>11.4</ele>
        <time>2025-07-01T14:27:30Z</time>
      </trkpt>
      <trkpt lat="46.15727" lon="-1.1536">
        <ele>11.2</ele>
        <time>2025-07-01T14:27:39Z</time>
      </trkpt>
      <trkpt lat="46.1573" lon="-1.15352">
        <ele>11.2</ele>
        <time>2025-07-01T14:27:42Z</time>
      </trkpt>
      <trkpt lat="46.15734" lon="-1.15346">
        <ele>11</ele>
        <time>2025-07-01T14:27:46Z</time>
      </trkpt>
      <trkpt lat="46.15738" lon="-1.15343">
        <ele>11</ele>
        <time>2025-07-01T14:27:51Z</time>
      </trkpt>
      <trkpt lat="46.1574" lon="-1.15342">
        <ele>10.8</ele>
        <time>2025-07-01T14:27:53Z</time>
      </trkpt>
      <trkpt lat="46.1575" lon="-1.15337">
        <ele>10.8</ele>
        <time>2025-07-01T14:28:02Z</time>
      </trkpt>
      <trkpt lat="46.15755" lon="-1.15333">
        <ele>10.6</ele>
        <time>2025-07-01T14:28:08Z</time>
      </trkpt>
      <trkpt lat="46.15759" lon="-1.1533">
        <ele>10.6</ele>
        <time>2025-07-01T14:28:12Z</time>
      </trkpt>
      <trkpt lat="46.15763" lon="-1.15327">
        <ele>10.4</ele>
        <time>2025-07-01T14:28:16Z</time>
      </trkpt>
      <trkpt lat="46.15766" lon="-1.15326">
        <ele>10.4</ele>
        <time>2025-07-01T14:28:20Z</time>
      </trkpt>
      <trkpt lat="46.15769" lon="-1.15319">
        <ele>10.4</ele>
        <time>2025-07-01T14:28:26Z</time>
      </trkpt>
      <trkpt lat="46.1577" lon="-1.15318">
        <ele>10.4</ele>
        <time>2025-07-01T14:28:27Z</time>
      </trkpt>
      <trkpt lat="46.15771" lon="-1.15315">
        <ele>10.4</ele>
        <time>2025-07-01T14:28:29Z</time>
      </trkpt>
      <trkpt lat="46.15771" lon="-1.15314">
        <ele>10.4</ele>
        <time>2025-07-01T14:28:30Z</time>
      </trkpt>
      <trkpt lat="46.15772" lon="-1.15311">
        <ele>10.2</ele>
        <time>2025-07-01T14:28:34Z</time>
      </trkpt>
      <trkpt lat="46.15775" lon="-1.15309">
        <ele>10.4</ele>
        <time>2025-07-01T14:28:40Z</time>
      </trkpt>
      <trkpt lat="46.15779" lon="-1.15312">
        <ele>10.4</ele>
        <time>2025-07-01T14:28:48Z</time>
      </trkpt>
      <trkpt lat="46.15782" lon="-1.15309">
        <ele>10.2</ele>
        <time>2025-07-01T14:28:50Z</time>
      </trkpt>
      <trkpt lat="46.15786" lon="-1.15304">
        <ele>10.2</ele>
        <time>2025-07-01T14:28:56Z</time>
      </trkpt>
      <trkpt lat="46.15789" lon="-1.15304">
        <ele>10.2</ele>
        <time>2025-07-01T14:29:03Z</time>
      </trkpt>
      <trkpt lat="46.15792" lon="-1.153">
        <ele>10</ele>
        <time>2025-07-01T14:29:08Z</time>
      </trkpt>
      <trkpt lat="46.15793" lon="-1.15298">
        <ele>10</ele>
        <time>2025-07-01T14:29:10Z</time>
      </trkpt>
      <trkpt lat="46.15798" lon="-1.15291">
        <ele>9.8</ele>
        <time>2025-07-01T14:29:18Z</time>
      </trkpt>
      <trkpt lat="46.15798" lon="-1.1529">
        <ele>9.8</ele>
        <time>2025-07-01T14:29:19Z</time>
      </trkpt>
      <trkpt lat="46.15803" lon="-1.15285">
        <ele>9.8</ele>
        <time>2025-07-01T14:29:27Z</time>
      </trkpt>
      <trkpt lat="46.15808" lon="-1.15271">
        <ele>9.6</ele>
        <time>2025-07-01T14:29:36Z</time>
      </trkpt>
      <trkpt lat="46.15807" lon="-1.15269">
        <ele>9.4</ele>
        <time>2025-07-01T14:29:41Z</time>
      </trkpt>
      <trkpt lat="46.15808" lon="-1.15268">
        <ele>9.2</ele>
        <time>2025-07-01T14:29:42Z</time>
      </trkpt>
      <trkpt lat="46.15808" lon="-1.15264">
        <ele>9.2</ele>
        <time>2025-07-01T14:29:44Z</time>
      </trkpt>
      <trkpt lat="46.15808" lon="-1.15259">
        <ele>9.4</ele>
        <time>2025-07-01T14:29:47Z</time>
      </trkpt>
      <trkpt lat="46.15809" lon="-1.15258">
        <ele>9.4</ele>
        <time>2025-07-01T14:29:48Z</time>
      </trkpt>
      <trkpt lat="46.1581" lon="-1.15248">
        <ele>9.4</ele>
        <time>2025-07-01T14:29:55Z</time>
      </trkpt>
      <trkpt lat="46.1581" lon="-1.15246">
        <ele>9.4</ele>
        <time>2025-07-01T14:29:56Z</time>
      </trkpt>
      <trkpt lat="46.15809" lon="-1.15239">
        <ele>9.2</ele>
        <time>2025-07-01T14:30:02Z</time>
      </trkpt>
      <trkpt lat="46.15809" lon="-1.15238">
        <ele>9.2</ele>
        <time>2025-07-01T14:30:03Z</time>
      </trkpt>
      <trkpt lat="46.1581" lon="-1.15235">
        <ele>9.2</ele>
        <time>2025-07-01T14:30:05Z</time>
      </trkpt>
      <trkpt lat="46.15808" lon="-1.15231">
        <ele>9</ele>
        <time>2025-07-01T14:30:09Z</time>
      </trkpt>
      <trkpt lat="46.1581" lon="-1.15225">
        <ele>9.2</ele>
        <time>2025-07-01T14:30:16Z</time>
      </trkpt>
      <trkpt lat="46.1581" lon="-1.15214">
        <ele>8.8</ele>
        <time>2025-07-01T14:30:24Z</time>
      </trkpt>
      <trkpt lat="46.15812" lon="-1.15204">
        <ele>8.8</ele>
        <time>2025-07-01T14:30:30Z</time>
      </trkpt>
      <trkpt lat="46.15812" lon="-1.15203">
        <ele>8.8</ele>
        <time>2025-07-01T14:30:31Z</time>
      </trkpt>
      <trkpt lat="46.15814" lon="-1.15196">
        <ele>9</ele>
        <time>2025-07-01T14:30:35Z</time>
      </trkpt>
      <trkpt lat="46.15814" lon="-1.15192">
        <ele>9</ele>
        <time>2025-07-01T14:30:38Z</time>
      </trkpt>
      <trkpt lat="46.15815" lon="-1.1519">
        <ele>9</ele>
        <time>2025-07-01T14:30:40Z</time>
      </trkpt>
      <trkpt lat="46.15816" lon="-1.15178">
        <ele>9.2</ele>
        <time>2025-07-01T14:30:47Z</time>
      </trkpt>
      <trkpt lat="46.15815" lon="-1.15177">
        <ele>9.2</ele>
        <time>2025-07-01T14:30:48Z</time>
      </trkpt>
      <trkpt lat="46.15815" lon="-1.15175">
        <ele>9.2</ele>
        <time>2025-07-01T14:30:49Z</time>
      </trkpt>
      <trkpt lat="46.15813" lon="-1.15138">
        <ele>9</ele>
        <time>2025-07-01T14:35:43Z</time>
      </trkpt>
      <trkpt lat="46.15813" lon="-1.15136">
        <ele>9</ele>
        <time>2025-07-01T14:35:45Z</time>
      </trkpt>
      <trkpt lat="46.15814" lon="-1.15134">
        <ele>9</ele>
        <time>2025-07-01T14:35:46Z</time>
      </trkpt>
      <trkpt lat="46.15813" lon="-1.15127">
        <ele>9.2</ele>
        <time>2025-07-01T14:35:51Z</time>
      </trkpt>
      <trkpt lat="46.15813" lon="-1.15121">
        <ele>9.2</ele>
        <time>2025-07-01T14:35:55Z</time>
      </trkpt>
      <trkpt lat="46.15813" lon="-1.15119">
        <ele>9.2</ele>
        <time>2025-07-01T14:35:56Z</time>
      </trkpt>
      <trkpt lat="46.15811" lon="-1.15107">
        <ele>9.4</ele>
        <time>2025-07-01T14:36:04Z</time>
      </trkpt>
      <trkpt lat="46.15809" lon="-1.15106">
        <ele>9.2</ele>
        <time>2025-07-01T14:36:10Z</time>
      </trkpt>
      <trkpt lat="46.15812" lon="-1.15104">
        <ele>9.2</ele>
        <time>2025-07-01T14:36:15Z</time>
      </trkpt>
      <trkpt lat="46.1581" lon="-1.15103">
        <ele>9.2</ele>
        <time>2025-07-01T14:36:23Z</time>
      </trkpt>
      <trkpt lat="46.15807" lon="-1.15094">
        <ele>9</ele>
        <time>2025-07-01T14:36:39Z</time>
      </trkpt>
      <trkpt lat="46.15805" lon="-1.15091">
        <ele>9.2</ele>
        <time>2025-07-01T14:36:42Z</time>
      </trkpt>
      <trkpt lat="46.15803" lon="-1.15087">
        <ele>9.2</ele>
        <time>2025-07-01T14:36:45Z</time>
      </trkpt>
      <trkpt lat="46.15801" lon="-1.15086">
        <ele>9.2</ele>
        <time>2025-07-01T14:36:47Z</time>
      </trkpt>
      <trkpt lat="46.15799" lon="-1.1508">
        <ele>9</ele>
        <time>2025-07-01T14:36:51Z</time>
      </trkpt>
      <trkpt lat="46.15796" lon="-1.15079">
        <ele>9</ele>
        <time>2025-07-01T14:36:54Z</time>
      </trkpt>
      <trkpt lat="46.15785" lon="-1.1508">
        <ele>9.2</ele>
        <time>2025-07-01T14:37:03Z</time>
      </trkpt>
      <trkpt lat="46.15781" lon="-1.15078">
        <ele>9</ele>
        <time>2025-07-01T14:37:07Z</time>
      </trkpt>
      <trkpt lat="46.15774" lon="-1.15077">
        <ele>8.8</ele>
        <time>2025-07-01T14:37:12Z</time>
      </trkpt>
      <trkpt lat="46.15772" lon="-1.15078">
        <ele>8.8</ele>
        <time>2025-07-01T14:37:14Z</time>
      </trkpt>
      <trkpt lat="46.15765" lon="-1.15059">
        <ele>8.2</ele>
        <time>2025-07-01T14:38:09Z</time>
      </trkpt>
      <trkpt lat="46.15763" lon="-1.15077">
        <ele>8.4</ele>
        <time>2025-07-01T14:38:14Z</time>
      </trkpt>
      <trkpt lat="46.15758" lon="-1.15087">
        <ele>8.2</ele>
        <time>2025-07-01T14:38:21Z</time>
      </trkpt>
      <trkpt lat="46.15757" lon="-1.15088">
        <ele>8.2</ele>
        <time>2025-07-01T14:38:22Z</time>
      </trkpt>
      <trkpt lat="46.15757" lon="-1.15089">
        <ele>8.2</ele>
        <time>2025-07-01T14:38:23Z</time>
      </trkpt>
      <trkpt lat="46.15751" lon="-1.15098">
        <ele>8.2</ele>
        <time>2025-07-01T14:38:29Z</time>
      </trkpt>
      <trkpt lat="46.15747" lon="-1.15102">
        <ele>8</ele>
        <time>2025-07-01T14:38:33Z</time>
      </trkpt>
      <trkpt lat="46.15745" lon="-1.15107">
        <ele>8</ele>
        <time>2025-07-01T14:38:37Z</time>
      </trkpt>
      <trkpt lat="46.15737" lon="-1.15117">
        <ele>8</ele>
        <time>2025-07-01T14:38:47Z</time>
      </trkpt>
      <trkpt lat="46.1573" lon="-1.15124">
        <ele>8</ele>
        <time>2025-07-01T14:38:54Z</time>
      </trkpt>
      <trkpt lat="46.15727" lon="-1.15127">
        <ele>8.2</ele>
        <time>2025-07-01T14:38:57Z</time>
      </trkpt>
      <trkpt lat="46.1572" lon="-1.15132">
        <ele>8.2</ele>
        <time>2025-07-01T14:39:03Z</time>
      </trkpt>
      <trkpt lat="46.15712" lon="-1.15138">
        <ele>8</ele>
        <time>2025-07-01T14:39:11Z</time>
      </trkpt>
      <trkpt lat="46.15703" lon="-1.15146">
        <ele>8</ele>
        <time>2025-07-01T14:39:20Z</time>
      </trkpt>
      <trkpt lat="46.15701" lon="-1.15148">
        <ele>8</ele>
        <time>2025-07-01T14:39:22Z</time>
      </trkpt>
      <trkpt lat="46.15694" lon="-1.15158">
        <ele>8.2</ele>
        <time>2025-07-01T14:39:30Z</time>
      </trkpt>
      <trkpt lat="46.15682" lon="-1.15172">
        <ele>7.8</ele>
        <time>2025-07-01T14:39:45Z</time>
      </trkpt>
      <trkpt lat="46.15672" lon="-1.1518">
        <ele>7.4</ele>
        <time>2025-07-01T14:39:55Z</time>
      </trkpt>
      <trkpt lat="46.15667" lon="-1.15181">
        <ele>7.2</ele>
        <time>2025-07-01T14:39:59Z</time>
      </trkpt>
      <trkpt lat="46.15663" lon="-1.1518">
        <ele>7.4</ele>
        <time>2025-07-01T14:40:03Z</time>
      </trkpt>
      <trkpt lat="46.1566" lon="-1.1518">
        <ele>7.8</ele>
        <time>2025-07-01T14:40:06Z</time>
      </trkpt>
      <trkpt lat="46.15658" lon="-1.15181">
        <ele>7.6</ele>
        <time>2025-07-01T14:40:08Z</time>
      </trkpt>
      <trkpt lat="46.15655" lon="-1.15181">
        <ele>7.6</ele>
        <time>2025-07-01T14:40:11Z</time>
      </trkpt>
      <trkpt lat="46.15654" lon="-1.15182">
        <ele>7.6</ele>
        <time>2025-07-01T14:40:12Z</time>
      </trkpt>
      <trkpt lat="46.15649" lon="-1.15182">
        <ele>7.8</ele>
        <time>2025-07-01T14:40:18Z</time>
      </trkpt>
      <trkpt lat="46.15647" lon="-1.15182">
        <ele>7.8</ele>
        <time>2025-07-01T14:40:20Z</time>
      </trkpt>
      <trkpt lat="46.15641" lon="-1.15181">
        <ele>8.2</ele>
        <time>2025-07-01T14:40:28Z</time>
      </trkpt>
      <trkpt lat="46.15639" lon="-1.1518">
        <ele>8</ele>
        <time>2025-07-01T14:40:31Z</time>
      </trkpt>
      <trkpt lat="46.15637" lon="-1.15182">
        <ele>7.8</ele>
        <time>2025-07-01T14:40:35Z</time>
      </trkpt>
      <trkpt lat="46.15638" lon="-1.15184">
        <ele>7.8</ele>
        <time>2025-07-01T14:40:45Z</time>
      </trkpt>
      <trkpt lat="46.15638" lon="-1.15184">
        <ele>7.8</ele>
        <time>2025-07-01T14:40:50Z</time>
      </trkpt>
      <trkpt lat="46.15634" lon="-1.15187">
        <ele>7.2</ele>
        <time>2025-07-01T14:40:54Z</time>
      </trkpt>
      <trkpt lat="46.15633" lon="-1.15189">
        <ele>7.2</ele>
        <time>2025-07-01T14:40:55Z</time>
      </trkpt>
      <trkpt lat="46.15627" lon="-1.15198">
        <ele>7</ele>
        <time>2025-07-01T14:41:03Z</time>
      </trkpt>
      <trkpt lat="46.15626" lon="-1.15201">
        <ele>7.2</ele>
        <time>2025-07-01T14:41:05Z</time>
      </trkpt>
      <trkpt lat="46.15624" lon="-1.1521">
        <ele>7</ele>
        <time>2025-07-01T14:41:11Z</time>
      </trkpt>
      <trkpt lat="46.15618" lon="-1.15225">
        <ele>6.4</ele>
        <time>2025-07-01T14:41:22Z</time>
      </trkpt>
      <trkpt lat="46.15609" lon="-1.15236">
        <ele>6.8</ele>
        <time>2025-07-01T14:41:33Z</time>
      </trkpt>
      <trkpt lat="46.15601" lon="-1.15246">
        <ele>7</ele>
        <time>2025-07-01T14:41:42Z</time>
      </trkpt>
      <trkpt lat="46.15596" lon="-1.15252">
        <ele>6.8</ele>
        <time>2025-07-01T14:41:48Z</time>
      </trkpt>
      <trkpt lat="46.15593" lon="-1.15253">
        <ele>6.6</ele>
        <time>2025-07-01T14:41:51Z</time>
      </trkpt>
      <trkpt lat="46.15588" lon="-1.15254">
        <ele>6.6</ele>
        <time>2025-07-01T14:41:55Z</time>
      </trkpt>
      <trkpt lat="46.15587" lon="-1.1525">
        <ele>6.8</ele>
        <time>2025-07-01T14:41:58Z</time>
      </trkpt>
      <trkpt lat="46.15583" lon="-1.15243">
        <ele>6.6</ele>
        <time>2025-07-01T14:42:03Z</time>
      </trkpt>
      <trkpt lat="46.15581" lon="-1.15237">
        <ele>6.6</ele>
        <time>2025-07-01T14:42:07Z</time>
      </trkpt>
      <trkpt lat="46.15578" lon="-1.15227">
        <ele>6.8</ele>
        <time>2025-07-01T14:42:14Z</time>
      </trkpt>
      <trkpt lat="46.15577" lon="-1.15209">
        <ele>6.4</ele>
        <time>2025-07-01T14:42:25Z</time>
      </trkpt>
      <trkpt lat="46.15574" lon="-1.15198">
        <ele>6.4</ele>
        <time>2025-07-01T14:42:33Z</time>
      </trkpt>
      <trkpt lat="46.15572" lon="-1.15185">
        <ele>6.4</ele>
        <time>2025-07-01T14:42:40Z</time>
      </trkpt>
      <trkpt lat="46.15564" lon="-1.15183">
        <ele>7</ele>
        <time>2025-07-01T14:42:47Z</time>
      </trkpt>
      <trkpt lat="46.15559" lon="-1.15185">
        <ele>7</ele>
        <time>2025-07-01T14:42:51Z</time>
      </trkpt>
      <trkpt lat="46.15558" lon="-1.15187">
        <ele>7.2</ele>
        <time>2025-07-01T14:42:53Z</time>
      </trkpt>
      <trkpt lat="46.15557" lon="-1.15189">
        <ele>7.2</ele>
        <time>2025-07-01T14:42:54Z</time>
      </trkpt>
      <trkpt lat="46.15554" lon="-1.15201">
        <ele>7.4</ele>
        <time>2025-07-01T14:43:02Z</time>
      </trkpt>
      <trkpt lat="46.15553" lon="-1.15207">
        <ele>7.4</ele>
        <time>2025-07-01T14:43:06Z</time>
      </trkpt>
      <trkpt lat="46.15551" lon="-1.15214">
        <ele>7.2</ele>
        <time>2025-07-01T14:43:11Z</time>
      </trkpt>
      <trkpt lat="46.15549" lon="-1.15222">
        <ele>7.2</ele>
        <time>2025-07-01T14:43:19Z</time>
      </trkpt>
      <trkpt lat="46.15547" lon="-1.1522">
        <ele>7</ele>
        <time>2025-07-01T14:43:25Z</time>
      </trkpt>
      <trkpt lat="46.15547" lon="-1.15221">
        <ele>7</ele>
        <time>2025-07-01T14:43:31Z</time>
      </trkpt>
      <trkpt lat="46.15549" lon="-1.1523">
        <ele>7</ele>
        <time>2025-07-01T14:43:38Z</time>
      </trkpt>
      <trkpt lat="46.15549" lon="-1.15244">
        <ele>7.2</ele>
        <time>2025-07-01T14:43:46Z</time>
      </trkpt>
      <trkpt lat="46.15549" lon="-1.15261">
        <ele>7.2</ele>
        <time>2025-07-01T14:43:56Z</time>
      </trkpt>
      <trkpt lat="46.15546" lon="-1.15269">
        <ele>7</ele>
        <time>2025-07-01T14:44:03Z</time>
      </trkpt>
      <trkpt lat="46.15545" lon="-1.1527">
        <ele>6.8</ele>
        <time>2025-07-01T14:44:04Z</time>
      </trkpt>
      <trkpt lat="46.15539" lon="-1.15275">
        <ele>6.8</ele>
        <time>2025-07-01T14:44:11Z</time>
      </trkpt>
      <trkpt lat="46.1554" lon="-1.15276">
        <ele>6.6</ele>
        <time>2025-07-01T14:44:15Z</time>
      </trkpt>
      <trkpt lat="46.15541" lon="-1.15279">
        <ele>6.2</ele>
        <time>2025-07-01T14:44:21Z</time>
      </trkpt>
      <trkpt lat="46.1554" lon="-1.15279">
        <ele>6.2</ele>
        <time>2025-07-01T14:44:22Z</time>
      </trkpt>
      <trkpt lat="46.15539" lon="-1.15281">
        <ele>6.2</ele>
        <time>2025-07-01T14:44:23Z</time>
      </trkpt>
      <trkpt lat="46.1554" lon="-1.15286">
        <ele>6.4</ele>
        <time>2025-07-01T14:44:26Z</time>
      </trkpt>
      <trkpt lat="46.15542" lon="-1.15296">
        <ele>6.4</ele>
        <time>2025-07-01T14:44:33Z</time>
      </trkpt>
      <trkpt lat="46.15542" lon="-1.15298">
        <ele>6.6</ele>
        <time>2025-07-01T14:44:34Z</time>
      </trkpt>
      <trkpt lat="46.15542" lon="-1.153">
        <ele>6.4</ele>
        <time>2025-07-01T14:44:36Z</time>
      </trkpt>
      <trkpt lat="46.15541" lon="-1.15303">
        <ele>6.2</ele>
        <time>2025-07-01T14:44:38Z</time>
      </trkpt>
      <trkpt lat="46.15541" lon="-1.15306">
        <ele>5.8</ele>
        <time>2025-07-01T14:44:40Z</time>
      </trkpt>
      <trkpt lat="46.15541" lon="-1.15309">
        <ele>5.4</ele>
        <time>2025-07-01T14:44:43Z</time>
      </trkpt>
      <trkpt lat="46.15541" lon="-1.1531">
        <ele>5.4</ele>
        <time>2025-07-01T14:44:44Z</time>
      </trkpt>
      <trkpt lat="46.15541" lon="-1.15313">
        <ele>5.4</ele>
        <time>2025-07-01T14:44:46Z</time>
      </trkpt>
      <trkpt lat="46.1554" lon="-1.15314">
        <ele>5.2</ele>
        <time>2025-07-01T14:44:47Z</time>
      </trkpt>
      <trkpt lat="46.15539" lon="-1.15315">
        <ele>5.2</ele>
        <time>2025-07-01T14:44:51Z</time>
      </trkpt>
      <trkpt lat="46.15538" lon="-1.15314">
        <ele>5.4</ele>
        <time>2025-07-01T14:45:06Z</time>
      </trkpt>
      <trkpt lat="46.15538" lon="-1.15315">
        <ele>6</ele>
        <time>2025-07-01T14:45:12Z</time>
      </trkpt>
      <trkpt lat="46.15533" lon="-1.15319">
        <ele>6</ele>
        <time>2025-07-01T14:45:18Z</time>
      </trkpt>
      <trkpt lat="46.15526" lon="-1.15324">
        <ele>6</ele>
        <time>2025-07-01T14:45:24Z</time>
      </trkpt>
      <trkpt lat="46.15526" lon="-1.15324">
        <ele>6</ele>
        <time>2025-07-01T14:45:25Z</time>
      </trkpt>
      <trkpt lat="46.15524" lon="-1.15323">
        <ele>6</ele>
        <time>2025-07-01T14:45:27Z</time>
      </trkpt>
      <trkpt lat="46.15524" lon="-1.15324">
        <ele>5.8</ele>
        <time>2025-07-01T14:45:28Z</time>
      </trkpt>
      <trkpt lat="46.15523" lon="-1.15325">
        <ele>6</ele>
        <time>2025-07-01T14:45:30Z</time>
      </trkpt>
      <trkpt lat="46.1552" lon="-1.15326">
        <ele>5.8</ele>
        <time>2025-07-01T14:45:32Z</time>
      </trkpt>
      <trkpt lat="46.15517" lon="-1.15328">
        <ele>5.8</ele>
        <time>2025-07-01T14:45:35Z</time>
      </trkpt>
      <trkpt lat="46.15516" lon="-1.1533">
        <ele>5.8</ele>
        <time>2025-07-01T14:45:37Z</time>
      </trkpt>
      <trkpt lat="46.15513" lon="-1.15334">
        <ele>6</ele>
        <time>2025-07-01T14:45:41Z</time>
      </trkpt>
      <trkpt lat="46.15511" lon="-1.15337">
        <ele>5.4</ele>
        <time>2025-07-01T14:45:44Z</time>
      </trkpt>
      <trkpt lat="46.1551" lon="-1.15337">
        <ele>5.4</ele>
        <time>2025-07-01T14:45:45Z</time>
      </trkpt>
      <trkpt lat="46.1551" lon="-1.15338">
        <ele>5.4</ele>
        <time>2025-07-01T14:45:46Z</time>
      </trkpt>
      <trkpt lat="46.15508" lon="-1.15339">
        <ele>5.4</ele>
        <time>2025-07-01T14:45:48Z</time>
      </trkpt>
      <trkpt lat="46.15504" lon="-1.15343">
        <ele>6</ele>
        <time>2025-07-01T14:45:52Z</time>
      </trkpt>
      <trkpt lat="46.15498" lon="-1.15346">
        <ele>5.4</ele>
        <time>2025-07-01T14:45:58Z</time>
      </trkpt>
      <trkpt lat="46.15497" lon="-1.15348">
        <ele>5.6</ele>
        <time>2025-07-01T14:46:00Z</time>
      </trkpt>
      <trkpt lat="46.15489" lon="-1.15356">
        <ele>5.8</ele>
        <time>2025-07-01T14:46:09Z</time>
      </trkpt>
      <trkpt lat="46.15486" lon="-1.15357">
        <ele>5.8</ele>
        <time>2025-07-01T14:46:12Z</time>
      </trkpt>
      <trkpt lat="46.15484" lon="-1.1536">
        <ele>6</ele>
        <time>2025-07-01T14:46:15Z</time>
      </trkpt>
      <trkpt lat="46.15483" lon="-1.15359">
        <ele>6</ele>
        <time>2025-07-01T14:46:16Z</time>
      </trkpt>
      <trkpt lat="46.15482" lon="-1.15358">
        <ele>6</ele>
        <time>2025-07-01T14:46:17Z</time>
      </trkpt>
      <trkpt lat="46.15481" lon="-1.15354">
        <ele>6.2</ele>
        <time>2025-07-01T14:46:21Z</time>
      </trkpt>
      <trkpt lat="46.1548" lon="-1.15351">
        <ele>6.2</ele>
        <time>2025-07-01T14:46:23Z</time>
      </trkpt>
      <trkpt lat="46.15481" lon="-1.15349">
        <ele>6.2</ele>
        <time>2025-07-01T14:46:25Z</time>
      </trkpt>
      <trkpt lat="46.15482" lon="-1.15341">
        <ele>6.2</ele>
        <time>2025-07-01T14:46:31Z</time>
      </trkpt>
      <trkpt lat="46.15483" lon="-1.15339">
        <ele>6.2</ele>
        <time>2025-07-01T14:46:34Z</time>
      </trkpt>
      <trkpt lat="46.15482" lon="-1.15339">
        <ele>6.2</ele>
        <time>2025-07-01T14:46:37Z</time>
      </trkpt>
      <trkpt lat="46.15481" lon="-1.15342">
        <ele>6.2</ele>
        <time>2025-07-01T14:46:42Z</time>
      </trkpt>
      <trkpt lat="46.15481" lon="-1.15342">
        <ele>6.2</ele>
        <time>2025-07-01T14:46:46Z</time>
      </trkpt>
      <trkpt lat="46.15481" lon="-1.15342">
        <ele>6.2</ele>
        <time>2025-07-01T14:46:48Z</time>
      </trkpt>
      <trkpt lat="46.15481" lon="-1.15342">
        <ele>6.2</ele>
        <time>2025-07-01T14:46:50Z</time>
      </trkpt>
      <trkpt lat="46.15481" lon="-1.15342">
        <ele>6.4</ele>
        <time>2025-07-01T14:46:54Z</time>
      </trkpt>
      <trkpt lat="46.15481" lon="-1.15343">
        <ele>7.2</ele>
        <time>2025-07-01T14:47:11Z</time>
      </trkpt>
      <trkpt lat="46.15479" lon="-1.15345">
        <ele>6.6</ele>
        <time>2025-07-01T14:47:21Z</time>
      </trkpt>
      <trkpt lat="46.15479" lon="-1.15345">
        <ele>6.6</ele>
        <time>2025-07-01T14:47:23Z</time>
      </trkpt>
      <trkpt lat="46.15479" lon="-1.15335">
        <ele>6.6</ele>
        <time>2025-07-01T14:47:33Z</time>
      </trkpt>
      <trkpt lat="46.15476" lon="-1.15318">
        <ele>6.4</ele>
        <time>2025-07-01T14:47:41Z</time>
      </trkpt>
      <trkpt lat="46.15475" lon="-1.15317">
        <ele>6.4</ele>
        <time>2025-07-01T14:47:42Z</time>
      </trkpt>
      <trkpt lat="46.15473" lon="-1.15308">
        <ele>6.2</ele>
        <time>2025-07-01T14:47:49Z</time>
      </trkpt>
      <trkpt lat="46.15469" lon="-1.15302">
        <ele>6.2</ele>
        <time>2025-07-01T14:47:54Z</time>
      </trkpt>
      <trkpt lat="46.15468" lon="-1.15297">
        <ele>6.4</ele>
        <time>2025-07-01T14:47:57Z</time>
      </trkpt>
      <trkpt lat="46.15468" lon="-1.15295">
        <ele>6.6</ele>
        <time>2025-07-01T14:47:58Z</time>
      </trkpt>
      <trkpt lat="46.15467" lon="-1.1529">
        <ele>6.6</ele>
        <time>2025-07-01T14:48:02Z</time>
      </trkpt>
      <trkpt lat="46.15467" lon="-1.15289">
        <ele>6.6</ele>
        <time>2025-07-01T14:48:03Z</time>
      </trkpt>
      <trkpt lat="46.15468" lon="-1.15288">
        <ele>6.8</ele>
        <time>2025-07-01T14:48:05Z</time>
      </trkpt>
      <trkpt lat="46.15468" lon="-1.15287">
        <ele>6.8</ele>
        <time>2025-07-01T14:48:06Z</time>
      </trkpt>
      <trkpt lat="46.15468" lon="-1.15286">
        <ele>6.6</ele>
        <time>2025-07-01T14:48:07Z</time>
      </trkpt>
      <trkpt lat="46.1547" lon="-1.15281">
        <ele>6.6</ele>
        <time>2025-07-01T14:48:11Z</time>
      </trkpt>
      <trkpt lat="46.15472" lon="-1.15275">
        <ele>6.6</ele>
        <time>2025-07-01T14:48:16Z</time>
      </trkpt>
      <trkpt lat="46.15472" lon="-1.15273">
        <ele>6.6</ele>
        <time>2025-07-01T14:48:17Z</time>
      </trkpt>
      <trkpt lat="46.15471" lon="-1.1527">
        <ele>6.6</ele>
        <time>2025-07-01T14:48:20Z</time>
      </trkpt>
      <trkpt lat="46.15469" lon="-1.1527">
        <ele>6.8</ele>
        <time>2025-07-01T14:48:22Z</time>
      </trkpt>
      <trkpt lat="46.15466" lon="-1.1527">
        <ele>7.4</ele>
        <time>2025-07-01T14:48:27Z</time>
      </trkpt>
      <trkpt lat="46.15464" lon="-1.15269">
        <ele>7.4</ele>
        <time>2025-07-01T14:48:30Z</time>
      </trkpt>
      <trkpt lat="46.15453" lon="-1.15267">
        <ele>7.8</ele>
        <time>2025-07-01T14:48:43Z</time>
      </trkpt>
      <trkpt lat="46.15451" lon="-1.15266">
        <ele>7.8</ele>
        <time>2025-07-01T14:48:45Z</time>
      </trkpt>
      <trkpt lat="46.15447" lon="-1.15266">
        <ele>7.8</ele>
        <time>2025-07-01T14:48:49Z</time>
      </trkpt>
      <trkpt lat="46.15444" lon="-1.15266">
        <ele>7.8</ele>
        <time>2025-07-01T14:48:52Z</time>
      </trkpt>
      <trkpt lat="46.15436" lon="-1.15264">
        <ele>7.6</ele>
        <time>2025-07-01T14:49:00Z</time>
      </trkpt>
      <trkpt lat="46.15429" lon="-1.15264">
        <ele>7.6</ele>
        <time>2025-07-01T14:49:07Z</time>
      </trkpt>
      <trkpt lat="46.15426" lon="-1.15267">
        <ele>7.6</ele>
        <time>2025-07-01T14:49:12Z</time>
      </trkpt>
      <trkpt lat="46.15425" lon="-1.15269">
        <ele>7.6</ele>
        <time>2025-07-01T14:49:13Z</time>
      </trkpt>
      <trkpt lat="46.15419" lon="-1.15273">
        <ele>7.4</ele>
        <time>2025-07-01T14:49:19Z</time>
      </trkpt>
      <trkpt lat="46.15415" lon="-1.15283">
        <ele>7.2</ele>
        <time>2025-07-01T14:49:27Z</time>
      </trkpt>
      <trkpt lat="46.15411" lon="-1.15298">
        <ele>7.2</ele>
        <time>2025-07-01T14:49:37Z</time>
      </trkpt>
      <trkpt lat="46.15409" lon="-1.15313">
        <ele>7.2</ele>
        <time>2025-07-01T14:49:46Z</time>
      </trkpt>
      <trkpt lat="46.15407" lon="-1.15331">
        <ele>7.2</ele>
        <time>2025-07-01T14:49:58Z</time>
      </trkpt>
      <trkpt lat="46.15405" lon="-1.15342">
        <ele>7.2</ele>
        <time>2025-07-01T14:50:04Z</time>
      </trkpt>
      <trkpt lat="46.15404" lon="-1.15355">
        <ele>6.4</ele>
        <time>2025-07-01T14:50:12Z</time>
      </trkpt>
      <trkpt lat="46.15402" lon="-1.15359">
        <ele>6.2</ele>
        <time>2025-07-01T14:50:14Z</time>
      </trkpt>
      <trkpt lat="46.15401" lon="-1.1537">
        <ele>6.8</ele>
        <time>2025-07-01T14:50:21Z</time>
      </trkpt>
      <trkpt lat="46.15398" lon="-1.15384">
        <ele>6.8</ele>
        <time>2025-07-01T14:50:29Z</time>
      </trkpt>
      <trkpt lat="46.15397" lon="-1.15395">
        <ele>6.4</ele>
        <time>2025-07-01T14:50:36Z</time>
      </trkpt>
      <trkpt lat="46.15394" lon="-1.1541">
        <ele>6.4</ele>
        <time>2025-07-01T14:50:45Z</time>
      </trkpt>
      <trkpt lat="46.15393" lon="-1.15425">
        <ele>6.4</ele>
        <time>2025-07-01T14:50:54Z</time>
      </trkpt>
      <trkpt lat="46.15393" lon="-1.15426">
        <ele>6.4</ele>
        <time>2025-07-01T14:50:55Z</time>
      </trkpt>
      <trkpt lat="46.15392" lon="-1.15428">
        <ele>6.4</ele>
        <time>2025-07-01T14:50:56Z</time>
      </trkpt>
      <trkpt lat="46.15392" lon="-1.15435">
        <ele>6.2</ele>
        <time>2025-07-01T14:51:01Z</time>
      </trkpt>
      <trkpt lat="46.15392" lon="-1.15439">
        <ele>6.2</ele>
        <time>2025-07-01T14:51:04Z</time>
      </trkpt>
      <trkpt lat="46.15391" lon="-1.15448">
        <ele>6.2</ele>
        <time>2025-07-01T14:51:08Z</time>
      </trkpt>
      <trkpt lat="46.15388" lon="-1.15461">
        <ele>6</ele>
        <time>2025-07-01T14:51:18Z</time>
      </trkpt>
      <trkpt lat="46.15387" lon="-1.15476">
        <ele>6</ele>
        <time>2025-07-01T14:51:27Z</time>
      </trkpt>
      <trkpt lat="46.15385" lon="-1.15482">
        <ele>6</ele>
        <time>2025-07-01T14:51:31Z</time>
      </trkpt>
      <trkpt lat="46.15385" lon="-1.15483">
        <ele>6</ele>
        <time>2025-07-01T14:51:32Z</time>
      </trkpt>
      <trkpt lat="46.15382" lon="-1.15498">
        <ele>6</ele>
        <time>2025-07-01T14:51:41Z</time>
      </trkpt>
      <trkpt lat="46.15382" lon="-1.15502">
        <ele>6</ele>
        <time>2025-07-01T14:51:43Z</time>
      </trkpt>
      <trkpt lat="46.15381" lon="-1.15505">
        <ele>5.8</ele>
        <time>2025-07-01T14:51:45Z</time>
      </trkpt>
      <trkpt lat="46.15381" lon="-1.15508">
        <ele>5.8</ele>
        <time>2025-07-01T14:51:47Z</time>
      </trkpt>
      <trkpt lat="46.1538" lon="-1.15511">
        <ele>5.8</ele>
        <time>2025-07-01T14:51:49Z</time>
      </trkpt>
      <trkpt lat="46.15378" lon="-1.15524">
        <ele>5.8</ele>
        <time>2025-07-01T14:51:57Z</time>
      </trkpt>
      <trkpt lat="46.15376" lon="-1.15532">
        <ele>5.6</ele>
        <time>2025-07-01T14:52:05Z</time>
      </trkpt>
    </trkseg>
  </trk>
</gpx>